Logo
 


Wetterdaten - Freitag, 20.05.2022 - Rheinberg-Annaberg     25 m ber NN private Wetterstation Rheinberg/Angaben ohne Gewhr!
Wetterdaten: aktuell Freitag, 20.05.2022 21:37
Datum Zeit Temp. A. Feuchte A. Luftdruck Regen Wind Richtung Richtung Sonnenschein ET UV Solar Taupunkt Windchill Windben Empfang
20.05.2022 21:37 14,8 C 85 % 1017,0 hPa 0,0 l/m 20,7 km/h S-SW 212 0 min 0,000 mm 0,0 UV-I 0 W/m 12,3 C 9,3 C 28,7 km/h 100,00 %
20.05.2022 21:36 14,8 C 86 % 1016,9 hPa 0,0 l/m 13,8 km/h S-SW 210 0 min 0,000 mm 0,0 UV-I 0 W/m 12,5 C 11,4 C 26,8 km/h 100,00 %
20.05.2022 21:35 14,8 C 86 % 1016,9 hPa 0,0 l/m 10,7 km/h SW 217 0 min 0,000 mm 0,0 UV-I 0 W/m 12,5 C 12,6 C 17,2 km/h 96,15 %
20.05.2022 21:34 14,8 C 86 % 1016,8 hPa 0,0 l/m 6,1 km/h SW 221 0 min 0,000 mm 0,0 UV-I 0 W/m 12,5 C 14,8 C 9,6 km/h 81,48 %
20.05.2022 21:33 14,8 C 86 % 1016,8 hPa 0,0 l/m 5,0 km/h SW 219 0 min 0,000 mm 0,0 UV-I 0 W/m 12,5 C 14,8 C 7,7 km/h 76,92 %
20.05.2022 21:32 14,8 C 86 % 1016,8 hPa 0,0 l/m 8,4 km/h SW 219 0 min 0,000 mm 0,0 UV-I 0 W/m 12,5 C 13,7 C 15,3 km/h 86,67 %
20.05.2022 21:31 14,8 C 86 % 1016,8 hPa 0,0 l/m 6,6 km/h SW 215 0 min 0,000 mm 0,0 UV-I 0 W/m 12,5 C 14,7 C 11,5 km/h 89,66 %
20.05.2022 21:30 14,8 C 86 % 1016,8 hPa 0,0 l/m 9,0 km/h S-SW 210 0 min 0,000 mm 0,0 UV-I 0 W/m 12,5 C 13,4 C 21,0 km/h 96,67 %
20.05.2022 21:29 14,8 C 86 % 1016,7 hPa 0,0 l/m 7,8 km/h SW 219 0 min 0,000 mm 0,0 UV-I 0 W/m 12,5 C 14,0 C 11,5 km/h 100,00 %
20.05.2022 21:28 14,9 C 86 % 1016,8 hPa 0,0 l/m 8,5 km/h SW 229 0 min 0,000 mm 0,0 UV-I 0 W/m 12,6 C 13,7 C 13,4 km/h 92,31 %
20.05.2022 21:27 14,8 C 86 % 1016,7 hPa 0,0 l/m 6,2 km/h S-SW 197 0 min 0,000 mm 0,0 UV-I 0 W/m 12,5 C 14,8 C 9,6 km/h 100,00 %
20.05.2022 21:26 14,8 C 86 % 1016,7 hPa 0,0 l/m 13,3 km/h SW 215 0 min 0,000 mm 0,0 UV-I 0 W/m 12,5 C 11,5 C 23,0 km/h 86,67 %
20.05.2022 21:25 14,8 C 86 % 1016,7 hPa 0,0 l/m 7,2 km/h SW 222 0 min 0,000 mm 0,0 UV-I 0 W/m 12,5 C 14,3 C 13,4 km/h 95,83 %
20.05.2022 21:24 14,9 C 86 % 1016,7 hPa 0,0 l/m 10,4 km/h S-SW 208 0 min 0,000 mm 0,0 UV-I 0 W/m 12,6 C 12,8 C 19,1 km/h 96,55 %
20.05.2022 21:23 14,9 C 86 % 1016,6 hPa 0,0 l/m 6,5 km/h SW 227 0 min 0,000 mm 0,0 UV-I 0 W/m 12,6 C 14,9 C 11,5 km/h 100,00 %
20.05.2022 21:22 14,8 C 86 % 1016,6 hPa 0,0 l/m 10,6 km/h S-SW 207 0 min 0,000 mm 0,0 UV-I 0 W/m 12,5 C 12,6 C 23,0 km/h 92,31 %
20.05.2022 21:21 14,8 C 86 % 1016,6 hPa 0,0 l/m 11,3 km/h W-SW 240 0 min 0,000 mm 0,0 UV-I 0 W/m 12,5 C 12,3 C 19,1 km/h 100,00 %
20.05.2022 21:20 14,9 C 86 % 1016,6 hPa 0,0 l/m 8,0 km/h S-SW 207 0 min 0,000 mm 0,0 UV-I 0 W/m 12,6 C 14,0 C 9,6 km/h 72,41 %
20.05.2022 21:19 14,9 C 86 % 1016,6 hPa 0,0 l/m 8,7 km/h SW 217 0 min 0,000 mm 0,0 UV-I 0 W/m 12,6 C 13,6 C 15,3 km/h 88,89 %
20.05.2022 21:18 14,8 C 86 % 1016,6 hPa 0,0 l/m 15,7 km/h S-SW 213 0 min 0,000 mm 0,0 UV-I 0 W/m 12,5 C 10,7 C 24,9 km/h 88,24 %
20.05.2022 21:17 14,8 C 86 % 1016,6 hPa 0,0 l/m 8,6 km/h W-SW 242 0 min 0,000 mm 0,0 UV-I 0 W/m 12,5 C 13,6 C 15,3 km/h 92,59 %
20.05.2022 21:16 14,9 C 86 % 1016,5 hPa 0,0 l/m 8,7 km/h S-SW 206 0 min 0,000 mm 0,0 UV-I 2 W/m 12,6 C 13,6 C 17,2 km/h 91,30 %
20.05.2022 21:15 14,8 C 86 % 1016,5 hPa 0,0 l/m 9,4 km/h W-SW 251 0 min 0,000 mm 0,0 UV-I 5 W/m 12,5 C 13,2 C 19,1 km/h 92,59 %
20.05.2022 21:14 14,8 C 86 % 1016,5 hPa 0,0 l/m 10,9 km/h W-SW 243 0 min 0,000 mm 0,0 UV-I 5 W/m 12,5 C 12,5 C 21,0 km/h 85,71 %
20.05.2022 21:13 14,8 C 86 % 1016,4 hPa 0,0 l/m 12,8 km/h SW 231 0 min 0,000 mm 0,0 UV-I 5 W/m 12,5 C 11,7 C 21,0 km/h 83,33 %
20.05.2022 21:12 14,9 C 86 % 1016,5 hPa 0,0 l/m 20,1 km/h S-SO 163 0 min 0,000 mm 0,0 UV-I 5 W/m 12,6 C 9,6 C 34,4 km/h 100,00 %
20.05.2022 21:11 14,9 C 86 % 1016,4 hPa 0,0 l/m 8,2 km/h SW 232 0 min 0,000 mm 0,0 UV-I 5 W/m 12,6 C 13,9 C 13,4 km/h 75,00 %
20.05.2022 21:10 14,9 C 86 % 1016,4 hPa 0,0 l/m 7,3 km/h SW 236 0 min 0,000 mm 0,0 UV-I 6 W/m 12,6 C 14,4 C 15,3 km/h 87,50 %
20.05.2022 21:09 14,9 C 86 % 1016,4 hPa 0,0 l/m 10,3 km/h W-NW 289 0 min 0,000 mm 0,0 UV-I 7 W/m 12,6 C 12,9 C 17,2 km/h 91,30 %
20.05.2022 21:08 14,9 C 86 % 1016,3 hPa 0,0 l/m 13,2 km/h SW 227 0 min 0,000 mm 0,0 UV-I 7 W/m 12,6 C 11,7 C 21,0 km/h 100,00 %
20.05.2022 21:07 14,9 C 86 % 1016,3 hPa 0,0 l/m 12,8 km/h SW 227 0 min 0,000 mm 0,0 UV-I 7 W/m 12,6 C 11,8 C 23,0 km/h 77,78 %
20.05.2022 21:06 14,9 C 86 % 1016,3 hPa 0,0 l/m 12,3 km/h SW 230 0 min 0,000 mm 0,0 UV-I 7 W/m 12,6 C 12,0 C 21,0 km/h 92,59 %
20.05.2022 21:05 14,9 C 87 % 1016,3 hPa 0,0 l/m 9,2 km/h S 190 0 min 0,000 mm 0,0 UV-I 7 W/m 12,8 C 13,4 C 17,2 km/h 92,31 %
20.05.2022 21:04 14,9 C 86 % 1016,4 hPa 0,0 l/m 7,3 km/h W-SW 242 0 min 0,000 mm 0,0 UV-I 5 W/m 12,6 C 14,4 C 23,0 km/h 100,00 %
20.05.2022 21:03 14,9 C 87 % 1016,3 hPa 0,0 l/m 4,6 km/h N-NW 327 0 min 0,000 mm 0,0 UV-I 3 W/m 12,8 C 14,9 C 17,2 km/h 92,31 %
20.05.2022 21:02 14,9 C 86 % 1016,4 hPa 0,0 l/m 10,3 km/h SW 236 0 min 0,000 mm 0,0 UV-I 0 W/m 12,6 C 12,9 C 24,9 km/h 100,00 %
20.05.2022 21:01 15,0 C 86 % 1016,4 hPa 0,0 l/m 14,0 km/h SW 232 0 min 0,000 mm 0,0 UV-I 0 W/m 12,7 C 11,5 C 28,7 km/h 78,26 %
20.05.2022 21:00 15,0 C 86 % 1016,4 hPa 0,0 l/m 9,2 km/h W-SW 254 0 min 0,025 mm 0,0 UV-I 0 W/m 12,7 C 13,5 C 21,0 km/h 91,67 %
20.05.2022 20:59 15,0 C 86 % 1016,4 hPa 0,0 l/m 9,6 km/h SW 225 0 min 0,000 mm 0,0 UV-I 0 W/m 12,7 C 13,3 C 17,2 km/h 89,66 %
20.05.2022 20:58 15,0 C 86 % 1016,4 hPa 0,0 l/m 8,1 km/h W-SW 247 0 min 0,000 mm 0,0 UV-I 0 W/m 12,7 C 14,0 C 17,2 km/h 100,00 %
20.05.2022 20:57 15,1 C 86 % 1016,4 hPa 0,0 l/m 13,9 km/h W-SW 244 0 min 0,000 mm 0,0 UV-I 0 W/m 12,8 C 11,7 C 23,0 km/h 92,31 %
20.05.2022 20:56 15,1 C 85 % 1016,4 hPa 0,0 l/m 10,7 km/h W-SW 244 0 min 0,000 mm 0,0 UV-I 0 W/m 12,6 C 12,9 C 17,2 km/h 96,97 %
20.05.2022 20:55 15,1 C 86 % 1016,4 hPa 0,0 l/m 16,6 km/h W-SW 255 0 min 0,000 mm 0,0 UV-I 0 W/m 12,8 C 10,8 C 24,9 km/h 100,00 %
20.05.2022 20:54 15,1 C 85 % 1016,4 hPa 0,0 l/m 13,6 km/h S 169 0 min 0,000 mm 0,0 UV-I 0 W/m 12,6 C 11,8 C 28,7 km/h 95,83 %
20.05.2022 20:53 15,1 C 85 % 1016,5 hPa 0,0 l/m 15,5 km/h SW 219 0 min 0,000 mm 0,0 UV-I 0 W/m 12,6 C 11,2 C 21,0 km/h 93,33 %
20.05.2022 20:52 15,2 C 85 % 1016,5 hPa 0,0 l/m 19,1 km/h S-SW 209 0 min 0,000 mm 0,0 UV-I 0 W/m 12,7 C 10,2 C 30,6 km/h 92,59 %
20.05.2022 20:51 15,2 C 85 % 1016,5 hPa 0,0 l/m 11,4 km/h W-SW 243 0 min 0,000 mm 0,0 UV-I 0 W/m 12,7 C 12,7 C 19,1 km/h 92,86 %
20.05.2022 20:50 15,2 C 85 % 1016,5 hPa 0,0 l/m 12,9 km/h SW 217 0 min 0,000 mm 0,0 UV-I 0 W/m 12,7 C 12,2 C 17,2 km/h 93,94 %
20.05.2022 20:45 15,3 C 84 % 1016,4 hPa 0,0 l/m 9,6 km/h SW 225 0 min 0,000 mm 0,0 UV-I 5 W/m 12,6 C 13,6 C 21,0 km/h 100,00 %
20.05.2022 20:41 15,4 C 84 % 1016,4 hPa 0,0 l/m 5,4 km/h W-SW 238 0 min 0,000 mm 0,0 UV-I 3 W/m 12,7 C 15,4 C 13,4 km/h 100,00 %
20.05.2022 20:40 15,4 C 84 % 1016,3 hPa 0,0 l/m 6,5 km/h W-SW 251 0 min 0,000 mm 0,0 UV-I 0 W/m 12,7 C 15,4 C 9,6 km/h 91,30 %
20.05.2022 20:39 15,4 C 84 % 1016,3 hPa 0,0 l/m 10,1 km/h SW 228 0 min 0,000 mm 0,0 UV-I 0 W/m 12,7 C 13,5 C 19,1 km/h 95,83 %
20.05.2022 20:38 15,4 C 84 % 1016,3 hPa 0,0 l/m 9,5 km/h SW 227 0 min 0,000 mm 0,0 UV-I 0 W/m 12,7 C 13,8 C 23,0 km/h 95,65 %
20.05.2022 20:37 15,4 C 84 % 1016,3 hPa 0,0 l/m 3,8 km/h SW 226 0 min 0,000 mm 0,0 UV-I 0 W/m 12,7 C 15,4 C 11,5 km/h 86,67 %
20.05.2022 20:36 15,4 C 84 % 1016,3 hPa 0,0 l/m 6,7 km/h W-SW 237 0 min 0,000 mm 0,0 UV-I 0 W/m 12,7 C 15,2 C 17,2 km/h 96,15 %
20.05.2022 20:35 15,4 C 84 % 1016,4 hPa 0,0 l/m 11,0 km/h SW 221 0 min 0,000 mm 0,0 UV-I 0 W/m 12,7 C 13,1 C 21,0 km/h 96,30 %
20.05.2022 20:34 15,4 C 84 % 1016,4 hPa 0,0 l/m 4,3 km/h SW 232 0 min 0,000 mm 0,0 UV-I 0 W/m 12,7 C 15,4 C 9,6 km/h 100,00 %
20.05.2022 20:33 15,4 C 84 % 1016,3 hPa 0,0 l/m 7,0 km/h W 261 0 min 0,000 mm 0,0 UV-I 0 W/m 12,7 C 15,1 C 19,1 km/h 93,33 %
20.05.2022 20:32 15,4 C 84 % 1016,3 hPa 0,0 l/m 11,1 km/h W-SW 242 0 min 0,000 mm 0,0 UV-I 4 W/m 12,7 C 13,1 C 26,8 km/h 96,15 %
20.05.2022 20:31 15,4 C 84 % 1016,2 hPa 0,0 l/m 17,9 km/h SW 233 0 min 0,000 mm 0,0 UV-I 9 W/m 12,7 C 10,8 C 26,8 km/h 92,59 %
20.05.2022 20:30 15,4 C 84 % 1016,3 hPa 0,0 l/m 20,3 km/h W-SW 253 0 min 0,000 mm 0,0 UV-I 10 W/m 12,7 C 10,2 C 34,4 km/h 100,00 %
20.05.2022 20:29 15,4 C 84 % 1016,2 hPa 0,0 l/m 14,7 km/h W-SW 237 0 min 0,000 mm 0,0 UV-I 11 W/m 12,7 C 11,8 C 28,7 km/h 95,83 %
20.05.2022 20:28 15,4 C 84 % 1016,1 hPa 0,0 l/m 15,1 km/h W-SW 244 0 min 0,000 mm 0,0 UV-I 12 W/m 12,7 C 11,6 C 23,0 km/h 100,00 %
20.05.2022 20:27 15,4 C 84 % 1016,1 hPa 0,0 l/m 10,1 km/h S-SW 211 0 min 0,000 mm 0,0 UV-I 15 W/m 12,7 C 13,5 C 19,1 km/h 91,30 %
20.05.2022 20:26 15,4 C 85 % 1016,1 hPa 0,0 l/m 11,3 km/h S 191 0 min 0,000 mm 0,0 UV-I 18 W/m 12,9 C 13,0 C 23,0 km/h 95,83 %
20.05.2022 20:25 15,4 C 85 % 1016,0 hPa 0,0 l/m 9,2 km/h SW 215 0 min 0,000 mm 0,0 UV-I 21 W/m 12,9 C 13,9 C 17,2 km/h 91,30 %
20.05.2022 20:24 15,4 C 85 % 1015,9 hPa 0,0 l/m 12,7 km/h SW 218 0 min 0,000 mm 0,0 UV-I 24 W/m 12,9 C 12,5 C 19,1 km/h 92,59 %
20.05.2022 20:23 15,4 C 85 % 1015,9 hPa 0,0 l/m 8,0 km/h SW 221 0 min 0,000 mm 0,0 UV-I 26 W/m 12,9 C 14,5 C 15,3 km/h 94,59 %
20.05.2022 20:22 15,4 C 85 % 1015,9 hPa 0,0 l/m 6,8 km/h SW 222 0 min 0,000 mm 0,0 UV-I 25 W/m 12,9 C 15,2 C 11,5 km/h 91,67 %
20.05.2022 20:21 15,4 C 85 % 1016,0 hPa 0,0 l/m 13,5 km/h W-SW 248 0 min 0,000 mm 0,0 UV-I 22 W/m 12,9 C 12,2 C 24,9 km/h 100,00 %
20.05.2022 20:20 15,4 C 85 % 1015,8 hPa 0,0 l/m 17,0 km/h W-SW 239 0 min 0,000 mm 0,0 UV-I 21 W/m 12,9 C 11,1 C 30,6 km/h 93,55 %
20.05.2022 20:19 15,4 C 85 % 1015,8 hPa 0,0 l/m 21,8 km/h SW 233 0 min 0,000 mm 0,0 UV-I 19 W/m 12,9 C 9,8 C 38,3 km/h 90,91 %
20.05.2022 20:18 15,4 C 86 % 1015,8 hPa 0,0 l/m 14,2 km/h SW 217 0 min 0,000 mm 0,0 UV-I 18 W/m 13,1 C 11,9 C 23,0 km/h 91,89 %
20.05.2022 20:17 15,4 C 86 % 1015,7 hPa 0,0 l/m 11,5 km/h SW 221 0 min 0,000 mm 0,0 UV-I 14 W/m 13,1 C 12,9 C 19,1 km/h 100,00 %
20.05.2022 20:16 15,4 C 86 % 1015,8 hPa 0,0 l/m 13,5 km/h W-SW 246 0 min 0,000 mm 0,0 UV-I 12 W/m 13,1 C 12,2 C 24,9 km/h 90,20 %
20.05.2022 20:14 15,5 C 86 % 1015,6 hPa 0,0 l/m 13,6 km/h SW 220 0 min 0,000 mm 0,0 UV-I 11 W/m 13,2 C 12,3 C 38,3 km/h 100,00 %
20.05.2022 20:13 15,5 C 86 % 1015,6 hPa 0,0 l/m 14,2 km/h SW 220 0 min 0,000 mm 0,0 UV-I 7 W/m 13,2 C 12,1 C 19,1 km/h 80,00 %
20.05.2022 20:12 15,5 C 86 % 1015,5 hPa 0,0 l/m 16,3 km/h S-SW 209 0 min 0,000 mm 0,0 UV-I 7 W/m 13,2 C 11,4 C 30,6 km/h 96,15 %
20.05.2022 20:11 15,5 C 86 % 1015,5 hPa 0,0 l/m 15,0 km/h S-SW 209 0 min 0,000 mm 0,0 UV-I 9 W/m 13,2 C 11,8 C 23,0 km/h 92,31 %
20.05.2022 20:10 15,5 C 86 % 1015,4 hPa 0,0 l/m 15,4 km/h W 275 0 min 0,000 mm 0,0 UV-I 11 W/m 13,2 C 11,7 C 36,4 km/h 86,67 %
20.05.2022 20:09 15,6 C 86 % 1015,5 hPa 0,0 l/m 16,8 km/h S-SW 211 0 min 0,000 mm 0,0 UV-I 11 W/m 13,3 C 11,4 C 26,8 km/h 96,00 %
20.05.2022 20:08 15,6 C 86 % 1015,5 hPa 0,0 l/m 16,1 km/h W-SW 248 0 min 0,000 mm 0,0 UV-I 11 W/m 13,3 C 11,6 C 30,6 km/h 86,96 %
20.05.2022 20:07 15,6 C 86 % 1015,5 hPa 0,0 l/m 23,4 km/h SW 221 0 min 0,000 mm 0,0 UV-I 12 W/m 13,3 C 9,7 C 44,0 km/h 96,00 %
20.05.2022 20:06 15,7 C 86 % 1015,5 hPa 0,0 l/m 21,8 km/h SW 221 0 min 0,000 mm 0,0 UV-I 16 W/m 13,4 C 10,2 C 36,4 km/h 96,15 %
20.05.2022 20:05 15,7 C 86 % 1015,4 hPa 0,0 l/m 17,1 km/h W-SW 237 0 min 0,000 mm 0,0 UV-I 19 W/m 13,4 C 11,4 C 36,4 km/h 90,00 %
20.05.2022 20:03 15,8 C 86 % 1015,3 hPa 0,0 l/m 16,0 km/h W-SW 238 0 min 0,000 mm 0,0 UV-I 17 W/m 13,5 C 11,9 C 28,7 km/h 85,19 %
20.05.2022 20:02 15,8 C 86 % 1015,4 hPa 0,0 l/m 15,9 km/h SW 220 0 min 0,077 mm 0,0 UV-I 18 W/m 13,5 C 11,9 C 24,9 km/h 92,73 %
20.05.2022 20:00 15,8 C 86 % 1015,3 hPa 0,0 l/m 18,7 km/h SW 225 0 min 0,000 mm 0,0 UV-I 18 W/m 13,5 C 11,1 C 26,8 km/h 93,75 %
20.05.2022 19:59 15,9 C 85 % 1015,2 hPa 0,0 l/m 21,2 km/h W-SW 240 0 min 0,000 mm 0,0 UV-I 18 W/m 13,4 C 10,6 C 28,7 km/h 92,59 %
20.05.2022 19:58 15,9 C 85 % 1015,2 hPa 0,0 l/m 11,2 km/h SW 217 0 min 0,000 mm 0,0 UV-I 17 W/m 13,4 C 13,6 C 19,1 km/h 100,00 %
20.05.2022 19:57 15,9 C 85 % 1015,2 hPa 0,0 l/m 24,6 km/h SW 219 0 min 0,000 mm 0,0 UV-I 16 W/m 13,4 C 9,9 C 38,3 km/h 87,50 %
20.05.2022 19:56 16,0 C 85 % 1015,2 hPa 0,0 l/m 19,9 km/h W-SW 240 0 min 0,000 mm 0,0 UV-I 16 W/m 13,5 C 11,1 C 28,7 km/h 100,00 %
20.05.2022 19:55 16,1 C 85 % 1015,1 hPa 0,0 l/m 15,3 km/h W-SW 254 0 min 0,000 mm 0,0 UV-I 18 W/m 13,6 C 12,4 C 26,8 km/h 91,67 %
20.05.2022 19:54 16,2 C 85 % 1015,1 hPa 0,0 l/m 12,9 km/h SW 229 0 min 0,000 mm 0,0 UV-I 17 W/m 13,7 C 13,3 C 19,1 km/h 91,30 %
20.05.2022 19:53 16,2 C 85 % 1015,1 hPa 0,0 l/m 17,6 km/h SW 229 0 min 0,000 mm 0,0 UV-I 16 W/m 13,7 C 11,9 C 26,8 km/h 85,19 %
20.05.2022 19:52 16,2 C 85 % 1015,1 hPa 0,0 l/m 23,0 km/h W-SW 241 0 min 0,000 mm 0,0 UV-I 18 W/m 13,7 C 10,6 C 32,5 km/h 100,00 %
20.05.2022 19:51 16,3 C 85 % 1015,0 hPa 0,0 l/m 22,8 km/h SW 236 0 min 0,000 mm 0,0 UV-I 18 W/m 13,8 C 10,8 C 34,4 km/h 96,00 %
20.05.2022 19:50 16,4 C 85 % 1015,0 hPa 0,0 l/m 18,8 km/h W-SW 237 0 min 0,000 mm 0,0 UV-I 19 W/m 13,9 C 11,8 C 26,8 km/h 100,00 %
20.05.2022 19:49 16,4 C 85 % 1014,9 hPa 0,0 l/m 12,2 km/h S-SW 194 0 min 0,000 mm 0,0 UV-I 19 W/m 13,9 C 13,8 C 21,0 km/h 95,83 %
20.05.2022 19:48 16,4 C 85 % 1014,9 hPa 0,0 l/m 12,6 km/h SW 223 0 min 0,000 mm 0,0 UV-I 25 W/m 13,9 C 13,7 C 17,2 km/h 96,67 %
20.05.2022 19:47 16,4 C 86 % 1014,8 hPa 0,0 l/m 8,3 km/h W-SW 240 0 min 0,000 mm 0,0 UV-I 39 W/m 14,1 C 15,4 C 19,1 km/h 100,00 %
20.05.2022 19:46 16,4 C 85 % 1014,8 hPa 0,0 l/m 9,7 km/h W-SW 238 0 min 0,000 mm 0,0 UV-I 48 W/m 13,9 C 14,8 C 15,3 km/h 93,55 %
20.05.2022 19:45 16,5 C 85 % 1014,8 hPa 0,0 l/m 13,7 km/h SW 224 0 min 0,000 mm 0,0 UV-I 49 W/m 14,0 C 13,4 C 30,6 km/h 100,00 %
20.05.2022 19:44 16,5 C 85 % 1014,7 hPa 0,0 l/m 8,1 km/h SW 231 0 min 0,000 mm 0,0 UV-I 57 W/m 14,0 C 15,6 C 15,3 km/h 96,30 %
20.05.2022 19:43 16,6 C 85 % 1014,8 hPa 0,0 l/m 18,4 km/h W-SW 240 0 min 0,000 mm 0,0 UV-I 71 W/m 14,1 C 12,2 C 28,7 km/h 100,00 %
20.05.2022 19:42 16,6 C 85 % 1014,7 hPa 0,0 l/m 17,1 km/h W-SW 248 0 min 0,000 mm 0,0 UV-I 76 W/m 14,1 C 12,5 C 24,9 km/h 96,30 %
20.05.2022 19:41 16,6 C 86 % 1014,7 hPa 0,0 l/m 11,4 km/h W-SW 242 0 min 0,000 mm 0,0 UV-I 78 W/m 14,2 C 14,3 C 23,0 km/h 100,00 %
20.05.2022 19:40 16,6 C 85 % 1014,6 hPa 0,0 l/m 9,0 km/h S 190 0 min 0,000 mm 0,0 UV-I 80 W/m 14,1 C 15,3 C 15,3 km/h 96,43 %
20.05.2022 19:39 16,6 C 85 % 1014,7 hPa 0,0 l/m 11,6 km/h SW 236 0 min 0,000 mm 0,0 UV-I 67 W/m 14,1 C 14,3 C 19,1 km/h 95,65 %
20.05.2022 19:38 16,6 C 84 % 1014,6 hPa 0,0 l/m 14,7 km/h W-SW 250 0 min 0,000 mm 0,0 UV-I 58 W/m 13,9 C 13,2 C 24,9 km/h 95,83 %
20.05.2022 19:37 16,7 C 85 % 1014,6 hPa 0,0 l/m 17,0 km/h S-SW 207 0 min 0,000 mm 0,0 UV-I 39 W/m 14,2 C 12,7 C 30,6 km/h 96,55 %
20.05.2022 19:36 16,7 C 85 % 1014,7 hPa 0,0 l/m 14,5 km/h S-SW 202 0 min 0,000 mm 0,0 UV-I 34 W/m 14,2 C 13,4 C 21,0 km/h 100,00 %
20.05.2022 19:35 16,8 C 85 % 1014,6 hPa 0,0 l/m 15,0 km/h SW 232 0 min 0,000 mm 0,0 UV-I 28 W/m 14,3 C 13,4 C 30,6 km/h 95,83 %
20.05.2022 19:34 16,8 C 85 % 1014,5 hPa 0,0 l/m 15,0 km/h SW 227 0 min 0,000 mm 0,0 UV-I 43 W/m 14,3 C 13,4 C 23,0 km/h 100,00 %
20.05.2022 19:33 16,8 C 85 % 1014,5 hPa 0,0 l/m 13,2 km/h SW 220 0 min 0,000 mm 0,0 UV-I 52 W/m 14,3 C 13,9 C 23,0 km/h 96,15 %
20.05.2022 19:32 16,9 C 85 % 1014,5 hPa 0,0 l/m 12,2 km/h S-SW 213 0 min 0,000 mm 0,0 UV-I 51 W/m 14,4 C 14,4 C 17,2 km/h 96,30 %
20.05.2022 19:31 16,9 C 85 % 1014,4 hPa 0,0 l/m 10,2 km/h S-SW 213 0 min 0,000 mm 0,0 UV-I 56 W/m 14,4 C 15,1 C 17,2 km/h 100,00 %
20.05.2022 19:30 16,9 C 85 % 1014,3 hPa 0,0 l/m 10,5 km/h S-SW 198 0 min 0,000 mm 0,0 UV-I 64 W/m 14,4 C 15,0 C 15,3 km/h 93,10 %
20.05.2022 19:29 16,9 C 84 % 1014,3 hPa 0,0 l/m 15,9 km/h SW 232 0 min 0,000 mm 0,0 UV-I 80 W/m 14,2 C 13,2 C 21,0 km/h 100,00 %
20.05.2022 19:28 17,0 C 84 % 1014,2 hPa 0,0 l/m 15,6 km/h SW 215 0 min 0,000 mm 0,0 UV-I 92 W/m 14,3 C 13,4 C 23,0 km/h 93,75 %
20.05.2022 19:27 17,1 C 84 % 1014,2 hPa 0,0 l/m 17,0 km/h S-SW 209 0 min 0,000 mm 0,0 UV-I 100 W/m 14,4 C 13,2 C 26,8 km/h 96,67 %
20.05.2022 19:26 17,1 C 84 % 1014,2 hPa 0,0 l/m 18,6 km/h S 190 0 min 0,000 mm 0,0 UV-I 97 W/m 14,4 C 12,8 C 28,7 km/h 97,37 %
20.05.2022 19:25 17,2 C 85 % 1014,3 hPa 0,0 l/m 12,2 km/h S 187 0 min 0,000 mm 0,0 UV-I 106 W/m 14,7 C 14,7 C 23,0 km/h 97,53 %
20.05.2022 19:24 17,3 C 85 % 1014,2 hPa 0,0 l/m 20,8 km/h SW 236 0 min 0,000 mm 0,0 UV-I 104 W/m 14,8 C 12,5 C 24,9 km/h 91,30 %
20.05.2022 19:23 17,3 C 85 % 1014,2 hPa 0,0 l/m 11,2 km/h S 170 0 min 0,000 mm 0,0 UV-I 76 W/m 14,8 C 15,2 C 19,1 km/h 95,83 %
20.05.2022 19:22 17,3 C 85 % 1014,2 hPa 0,0 l/m 8,8 km/h SW 233 0 min 0,000 mm 0,0 UV-I 62 W/m 14,8 C 16,2 C 17,2 km/h 96,30 %
20.05.2022 19:21 17,4 C 85 % 1014,1 hPa 0,0 l/m 6,1 km/h SW 224 0 min 0,000 mm 0,0 UV-I 62 W/m 14,8 C 17,4 C 11,5 km/h 97,44 %
20.05.2022 19:20 17,4 C 85 % 1014,1 hPa 0,0 l/m 11,9 km/h SW 223 0 min 0,000 mm 0,0 UV-I 74 W/m 14,8 C 15,1 C 21,0 km/h 100,00 %
20.05.2022 19:19 17,5 C 84 % 1014,1 hPa 0,0 l/m 15,1 km/h SW 230 0 min 0,000 mm 0,0 UV-I 81 W/m 14,8 C 14,2 C 30,6 km/h 96,30 %
20.05.2022 19:18 17,6 C 85 % 1014,0 hPa 0,0 l/m 20,9 km/h SW 220 0 min 0,000 mm 0,0 UV-I 98 W/m 15,0 C 12,9 C 32,5 km/h 100,00 %
20.05.2022 19:17 17,7 C 85 % 1014,0 hPa 0,0 l/m 12,7 km/h SW 226 0 min 0,000 mm 0,0 UV-I 97 W/m 15,1 C 15,2 C 24,9 km/h 97,56 %
20.05.2022 19:16 17,7 C 85 % 1014,0 hPa 0,0 l/m 9,7 km/h SW 221 0 min 0,000 mm 0,0 UV-I 82 W/m 15,1 C 16,2 C 21,0 km/h 92,86 %
20.05.2022 19:15 17,7 C 85 % 1013,9 hPa 0,0 l/m 10,0 km/h W-SW 248 0 min 0,000 mm 0,0 UV-I 85 W/m 15,1 C 16,1 C 19,1 km/h 100,00 %
20.05.2022 19:14 17,7 C 85 % 1013,9 hPa 0,0 l/m 12,2 km/h W-SW 246 0 min 0,000 mm 0,0 UV-I 77 W/m 15,1 C 15,3 C 19,1 km/h 91,67 %
20.05.2022 19:13 17,8 C 85 % 1013,9 hPa 0,0 l/m 9,9 km/h SW 215 0 min 0,000 mm 0,0 UV-I 78 W/m 15,2 C 16,2 C 15,3 km/h 100,00 %
20.05.2022 19:12 17,8 C 84 % 1013,8 hPa 0,0 l/m 9,3 km/h SW 223 0 min 0,000 mm 0,0 UV-I 90 W/m 15,1 C 16,5 C 15,3 km/h 92,31 %
20.05.2022 19:11 17,8 C 84 % 1013,8 hPa 0,0 l/m 9,4 km/h S-SW 213 0 min 0,000 mm 0,5 UV-I 102 W/m 15,1 C 16,4 C 21,0 km/h 96,30 %
20.05.2022 19:10 17,9 C 84 % 1013,8 hPa 0,0 l/m 15,8 km/h SW 226 0 min 0,000 mm 0,5 UV-I 117 W/m 15,2 C 14,5 C 30,6 km/h 93,75 %
20.05.2022 19:09 17,9 C 84 % 1013,7 hPa 0,0 l/m 14,6 km/h W-SW 254 0 min 0,000 mm 0,5 UV-I 111 W/m 15,2 C 14,8 C 23,0 km/h 100,00 %
20.05.2022 19:08 18,1 C 83 % 1013,6 hPa 0,0 l/m 20,6 km/h S-SW 206 0 min 0,000 mm 0,5 UV-I 99 W/m 15,2 C 13,6 C 32,5 km/h 95,83 %
20.05.2022 19:07 18,1 C 83 % 1013,6 hPa 0,0 l/m 24,5 km/h W-SW 254 0 min 0,000 mm 0,6 UV-I 97 W/m 15,2 C 12,9 C 34,4 km/h 96,30 %
20.05.2022 19:06 18,2 C 83 % 1013,5 hPa 0,0 l/m 17,6 km/h SW 227 0 min 0,000 mm 0,6 UV-I 205 W/m 15,3 C 14,4 C 24,9 km/h 100,00 %
20.05.2022 19:05 18,2 C 83 % 1013,4 hPa 0,0 l/m 16,3 km/h S-SW 213 1 min 0,000 mm 0,7 UV-I 304 W/m 15,3 C 14,7 C 28,7 km/h 95,65 %
20.05.2022 19:04 18,2 C 83 % 1013,4 hPa 0,0 l/m 17,0 km/h SW 227 0 min 0,000 mm 0,7 UV-I 249 W/m 15,3 C 14,6 C 36,4 km/h 100,00 %
20.05.2022 19:03 18,3 C 84 % 1013,4 hPa 0,0 l/m 20,9 km/h W-NW 285 0 min 0,000 mm 0,6 UV-I 237 W/m 15,5 C 13,8 C 32,5 km/h 95,65 %
20.05.2022 19:02 18,3 C 84 % 1013,3 hPa 0,0 l/m 16,9 km/h W 267 0 min 0,000 mm 0,6 UV-I 221 W/m 15,5 C 14,7 C 28,7 km/h 100,00 %
20.05.2022 19:01 18,3 C 84 % 1013,3 hPa 0,0 l/m 8,7 km/h S-SW 199 0 min 0,101 mm 0,6 UV-I 158 W/m 15,5 C 17,3 C 11,5 km/h 92,86 %
20.05.2022 19:00 18,4 C 82 % 1013,3 hPa 0,0 l/m 13,7 km/h W-SW 241 0 min 0,000 mm 0,6 UV-I 171 W/m 15,3 C 15,7 C 26,8 km/h 100,00 %
20.05.2022 18:59 18,6 C 83 % 1013,3 hPa 0,0 l/m 21,1 km/h W-SW 241 0 min 0,000 mm 0,6 UV-I 171 W/m 15,7 C 14,2 C 36,4 km/h 96,55 %
20.05.2022 18:58 18,8 C 82 % 1013,4 hPa 0,0 l/m 16,2 km/h SW 233 0 min 0,000 mm 0,6 UV-I 162 W/m 15,7 C 15,5 C 28,7 km/h 100,00 %
20.05.2022 18:57 18,9 C 82 % 1013,2 hPa 0,0 l/m 10,2 km/h SW 225 0 min 0,000 mm 0,6 UV-I 110 W/m 15,8 C 17,4 C 17,2 km/h 92,59 %
20.05.2022 18:56 19,1 C 82 % 1013,2 hPa 0,0 l/m 10,1 km/h W 260 0 min 0,000 mm 0,6 UV-I 106 W/m 16,0 C 17,6 C 17,2 km/h 92,31 %
20.05.2022 18:55 19,2 C 82 % 1013,2 hPa 0,0 l/m 16,8 km/h W-SW 242 0 min 0,000 mm 0,7 UV-I 114 W/m 16,0 C 15,8 C 23,0 km/h 100,00 %
20.05.2022 18:54 19,4 C 82 % 1013,1 hPa 0,0 l/m 6,6 km/h W 275 0 min 0,000 mm 0,7 UV-I 133 W/m 16,2 C 19,3 C 19,1 km/h 95,83 %
20.05.2022 18:53 19,4 C 82 % 1013,1 hPa 0,0 l/m 6,6 km/h SW 229 0 min 0,000 mm 0,7 UV-I 123 W/m 16,2 C 19,3 C 11,5 km/h 91,67 %
20.05.2022 18:52 19,5 C 82 % 1013,0 hPa 0,0 l/m 11,7 km/h SW 220 0 min 0,000 mm 0,7 UV-I 138 W/m 16,3 C 17,5 C 21,0 km/h 87,50 %
20.05.2022 18:51 19,7 C 82 % 1013,0 hPa 0,0 l/m 15,0 km/h SW 231 1 min 0,000 mm 0,7 UV-I 339 W/m 16,5 C 16,9 C 26,8 km/h 95,83 %
20.05.2022 18:50 19,7 C 81 % 1012,9 hPa 0,0 l/m 15,6 km/h SW 236 1 min 0,000 mm 0,8 UV-I 296 W/m 16,3 C 16,7 C 24,9 km/h 100,00 %
20.05.2022 18:49 19,8 C 82 % 1013,0 hPa 0,0 l/m 13,5 km/h SW 223 0 min 0,000 mm 0,8 UV-I 190 W/m 16,6 C 17,4 C 24,9 km/h 100,00 %
20.05.2022 18:48 19,9 C 81 % 1013,0 hPa 0,0 l/m 17,1 km/h W-SW 238 0 min 0,000 mm 0,7 UV-I 189 W/m 16,5 C 16,7 C 36,4 km/h 96,15 %
20.05.2022 18:47 20,1 C 82 % 1012,9 hPa 0,0 l/m 16,7 km/h W-SW 243 0 min 0,000 mm 0,5 UV-I 186 W/m 16,9 C 17,0 C 28,7 km/h 96,67 %
20.05.2022 18:46 20,1 C 82 % 1012,9 hPa 0,0 l/m 7,7 km/h S-SW 209 0 min 0,000 mm 0,5 UV-I 160 W/m 16,9 C 19,6 C 17,2 km/h 96,15 %
20.05.2022 18:45 20,2 C 82 % 1012,7 hPa 0,0 l/m 15,9 km/h SW 233 0 min 0,000 mm 0,5 UV-I 175 W/m 17,0 C 17,3 C 28,7 km/h 83,33 %
20.05.2022 18:44 20,1 C 82 % 1012,7 hPa 0,0 l/m 12,4 km/h W 269 0 min 0,000 mm 0,2 UV-I 159 W/m 16,9 C 18,0 C 17,2 km/h 100,00 %
20.05.2022 18:43 20,1 C 81 % 1012,6 hPa 0,0 l/m 24,4 km/h S-SW 212 0 min 0,000 mm 0,0 UV-I 116 W/m 16,7 C 15,6 C 42,1 km/h 96,30 %
20.05.2022 18:42 20,1 C 81 % 1012,6 hPa 0,0 l/m 17,3 km/h W-SW 240 0 min 0,000 mm 0,0 UV-I 82 W/m 16,7 C 16,9 C 28,7 km/h 88,46 %
20.05.2022 18:41 20,1 C 81 % 1012,5 hPa 0,0 l/m 20,1 km/h SW 225 0 min 0,000 mm 0,0 UV-I 70 W/m 16,7 C 16,3 C 30,6 km/h 100,00 %
20.05.2022 18:40 20,1 C 81 % 1012,5 hPa 0,0 l/m 30,4 km/h S-SW 213 0 min 0,000 mm 0,0 UV-I 72 W/m 16,7 C 14,8 C 47,8 km/h 95,65 %
20.05.2022 18:39 20,1 C 83 % 1012,5 hPa 0,0 l/m 23,5 km/h S 188 0 min 0,000 mm 0,2 UV-I 94 W/m 17,1 C 15,7 C 44,0 km/h 96,30 %
20.05.2022 18:38 20,0 C 84 % 1012,3 hPa 0,0 l/m 24,2 km/h SW 223 0 min 0,000 mm 0,5 UV-I 118 W/m 17,2 C 15,5 C 38,3 km/h 94,44 %
20.05.2022 18:37 20,0 C 86 % 1012,4 hPa 0,0 l/m 17,5 km/h W-SW 239 0 min 0,000 mm 0,6 UV-I 150 W/m 17,6 C 16,7 C 36,4 km/h 100,00 %
20.05.2022 18:36 20,0 C 86 % 1012,4 hPa 0,0 l/m 15,3 km/h W-SW 248 0 min 0,000 mm 0,5 UV-I 136 W/m 17,6 C 17,2 C 23,0 km/h 96,55 %
20.05.2022 18:35 20,0 C 86 % 1012,3 hPa 0,0 l/m 14,1 km/h S-SW 209 0 min 0,000 mm 0,4 UV-I 117 W/m 17,6 C 17,5 C 23,0 km/h 91,67 %
20.05.2022 18:34 20,0 C 86 % 1012,3 hPa 0,0 l/m 14,0 km/h W-SW 238 0 min 0,000 mm 0,0 UV-I 113 W/m 17,6 C 17,5 C 19,1 km/h 95,65 %
20.05.2022 18:33 20,0 C 86 % 1012,3 hPa 0,0 l/m 12,1 km/h S-SW 207 0 min 0,000 mm 0,0 UV-I 104 W/m 17,6 C 18,0 C 21,0 km/h 91,67 %
20.05.2022 18:32 20,0 C 86 % 1012,3 hPa 0,0 l/m 12,9 km/h S-SW 196 0 min 0,000 mm 0,3 UV-I 105 W/m 17,6 C 17,8 C 15,3 km/h 100,00 %
20.05.2022 18:31 20,1 C 86 % 1012,3 hPa 0,0 l/m 20,4 km/h S 169 0 min 0,000 mm 0,5 UV-I 117 W/m 17,7 C 16,3 C 26,8 km/h 94,12 %
20.05.2022 18:30 20,1 C 86 % 1012,2 hPa 0,0 l/m 16,1 km/h S 177 0 min 0,000 mm 0,5 UV-I 122 W/m 17,7 C 17,1 C 23,0 km/h 100,00 %
20.05.2022 18:29 20,1 C 86 % 1012,2 hPa 0,0 l/m 19,2 km/h SW 222 0 min 0,000 mm 0,6 UV-I 109 W/m 17,7 C 16,5 C 30,6 km/h 92,31 %
20.05.2022 18:28 20,0 C 86 % 1012,2 hPa 0,0 l/m 16,6 km/h S-SW 193 0 min 0,000 mm 0,7 UV-I 199 W/m 17,6 C 16,9 C 23,0 km/h 100,00 %
20.05.2022 18:27 19,9 C 86 % 1012,2 hPa 0,0 l/m 16,0 km/h SW 217 0 min 0,000 mm 0,8 UV-I 204 W/m 17,5 C 16,9 C 28,7 km/h 88,46 %
20.05.2022 18:26 19,9 C 86 % 1012,1 hPa 0,0 l/m 17,5 km/h S-SW 192 0 min 0,000 mm 0,9 UV-I 204 W/m 17,5 C 16,6 C 34,4 km/h 92,59 %
20.05.2022 18:25 19,8 C 87 % 1012,2 hPa 0,0 l/m 20,4 km/h SO 145 0 min 0,000 mm 0,7 UV-I 204 W/m 17,6 C 15,9 C 32,5 km/h 91,67 %
20.05.2022 18:24 19,8 C 87 % 1012,2 hPa 0,0 l/m 14,8 km/h SW 214 0 min 0,000 mm 0,7 UV-I 210 W/m 17,6 C 17,1 C 21,0 km/h 94,44 %
20.05.2022 18:23 19,7 C 87 % 1012,2 hPa 0,0 l/m 14,6 km/h SW 216 0 min 0,000 mm 0,7 UV-I 184 W/m 17,5 C 17,0 C 23,0 km/h 96,15 %
20.05.2022 18:22 19,7 C 87 % 1012,3 hPa 0,0 l/m 9,6 km/h SW 221 0 min 0,000 mm 0,3 UV-I 137 W/m 17,5 C 18,4 C 19,1 km/h 96,00 %
20.05.2022 18:21 19,7 C 87 % 1012,2 hPa 0,0 l/m 9,0 km/h S 190 0 min 0,000 mm 0,0 UV-I 105 W/m 17,5 C 18,7 C 19,1 km/h 100,00 %
20.05.2022 18:20 19,7 C 87 % 1012,2 hPa 0,0 l/m 17,1 km/h SW 225 0 min 0,000 mm 0,0 UV-I 102 W/m 17,5 C 16,4 C 34,4 km/h 95,83 %
20.05.2022 18:19 19,7 C 87 % 1012,2 hPa 0,0 l/m 10,8 km/h S 180 0 min 0,000 mm 0,4 UV-I 112 W/m 17,5 C 18,0 C 15,3 km/h 100,00 %
20.05.2022 18:18 19,7 C 87 % 1012,2 hPa 0,0 l/m 17,0 km/h S 169 0 min 0,000 mm 0,0 UV-I 106 W/m 17,5 C 16,4 C 36,4 km/h 95,83 %
20.05.2022 18:17 19,7 C 87 % 1012,2 hPa 0,0 l/m 16,4 km/h S 183 0 min 0,000 mm 0,1 UV-I 108 W/m 17,5 C 16,6 C 30,6 km/h 92,31 %
20.05.2022 18:16 19,7 C 87 % 1012,2 hPa 0,0 l/m 16,7 km/h S-SW 208 0 min 0,000 mm 0,5 UV-I 128 W/m 17,5 C 16,5 C 24,9 km/h 100,00 %
20.05.2022 18:15 19,7 C 87 % 1012,2 hPa 0,0 l/m 14,1 km/h S-SO 147 0 min 0,000 mm 0,5 UV-I 145 W/m 17,5 C 17,1 C 19,1 km/h 96,55 %
20.05.2022 18:14 19,7 C 86 % 1012,3 hPa 0,0 l/m 15,3 km/h S 179 0 min 0,000 mm 0,5 UV-I 126 W/m 17,3 C 16,8 C 26,8 km/h 100,00 %
20.05.2022 18:13 19,7 C 86 % 1012,2 hPa 0,0 l/m 19,2 km/h S-SO 150 0 min 0,000 mm 0,5 UV-I 129 W/m 17,3 C 16,0 C 26,8 km/h 66,67 %
20.05.2022 18:12 19,7 C 86 % 1012,3 hPa 0,0 l/m 14,2 km/h S-SW 209 0 min 0,000 mm 0,0 UV-I 115 W/m 17,3 C 17,1 C 26,8 km/h 89,66 %
20.05.2022 18:11 19,7 C 86 % 1012,3 hPa 0,0 l/m 19,7 km/h S-SW 212 0 min 0,000 mm 0,0 UV-I 101 W/m 17,3 C 15,9 C 38,3 km/h 92,59 %
20.05.2022 18:10 19,7 C 86 % 1012,3 hPa 0,0 l/m 15,7 km/h S-SO 165 0 min 0,000 mm 0,0 UV-I 82 W/m 17,3 C 16,7 C 23,0 km/h 96,15 %
20.05.2022 18:09 19,8 C 86 % 1012,4 hPa 0,0 l/m 10,7 km/h S-SW 200 0 min 0,000 mm 0,0 UV-I 75 W/m 17,4 C 18,2 C 23,0 km/h 93,33 %
20.05.2022 18:08 19,8 C 86 % 1012,4 hPa 0,0 l/m 8,3 km/h S-SO 166 0 min 0,000 mm 0,0 UV-I 83 W/m 17,4 C 19,0 C 11,5 km/h 96,55 %
20.05.2022 18:07 19,8 C 86 % 1012,5 hPa 0,0 l/m 14,0 km/h S-SO 166 0 min 0,000 mm 0,0 UV-I 91 W/m 17,4 C 17,3 C 21,0 km/h 100,00 %
20.05.2022 18:06 19,8 C 86 % 1012,4 hPa 0,0 l/m 10,2 km/h SW 217 0 min 0,000 mm 0,0 UV-I 91 W/m 17,4 C 18,4 C 15,3 km/h 96,15 %
20.05.2022 18:05 19,8 C 86 % 1012,5 hPa 0,0 l/m 15,9 km/h S-SW 209 0 min 0,000 mm 0,0 UV-I 90 W/m 17,4 C 16,8 C 24,9 km/h 100,00 %
20.05.2022 18:04 19,8 C 86 % 1012,4 hPa 0,0 l/m 19,6 km/h S-SO 156 0 min 0,000 mm 0,0 UV-I 89 W/m 17,4 C 16,0 C 40,2 km/h 92,59 %
20.05.2022 18:03 19,9 C 86 % 1012,4 hPa 0,0 l/m 14,3 km/h S 179 0 min 0,000 mm 0,0 UV-I 88 W/m 17,5 C 17,3 C 23,0 km/h 100,00 %
20.05.2022 18:02 19,9 C 85 % 1012,5 hPa 0,0 l/m 10,6 km/h S 186 0 min 0,000 mm 0,0 UV-I 74 W/m 17,3 C 18,3 C 26,8 km/h 85,71 %
20.05.2022 18:01 20,0 C 85 % 1012,5 hPa 0,0 l/m 11,5 km/h S 185 0 min 0,127 mm 0,0 UV-I 63 W/m 17,4 C 18,2 C 21,0 km/h 100,00 %
20.05.2022 18:00 20,1 C 85 % 1012,5 hPa 0,0 l/m 13,4 km/h S-SO 167 0 min 0,000 mm 0,0 UV-I 62 W/m 17,5 C 17,8 C 23,0 km/h 96,15 %
20.05.2022 17:59 20,1 C 84 % 1012,4 hPa 0,0 l/m 12,6 km/h S 174 0 min 0,000 mm 0,0 UV-I 63 W/m 17,3 C 18,0 C 21,0 km/h 100,00 %
20.05.2022 17:58 20,1 C 84 % 1012,5 hPa 0,0 l/m 13,7 km/h S 188 0 min 0,000 mm 0,0 UV-I 64 W/m 17,3 C 17,7 C 23,0 km/h 96,30 %
20.05.2022 17:57 20,2 C 84 % 1012,5 hPa 0,0 l/m 11,7 km/h S 184 0 min 0,000 mm 0,0 UV-I 70 W/m 17,4 C 18,3 C 23,0 km/h 92,31 %
20.05.2022 17:56 20,2 C 84 % 1012,4 hPa 0,0 l/m 12,4 km/h S-SO 157 0 min 0,000 mm 0,0 UV-I 73 W/m 17,4 C 18,1 C 19,1 km/h 96,15 %
20.05.2022 17:55 20,2 C 83 % 1012,4 hPa 0,0 l/m 13,6 km/h S-SO 167 0 min 0,000 mm 0,0 UV-I 79 W/m 17,2 C 17,8 C 21,0 km/h 93,33 %
20.05.2022 17:54 20,3 C 83 % 1012,3 hPa 0,0 l/m 16,4 km/h S 175 0 min 0,000 mm 0,1 UV-I 89 W/m 17,3 C 17,3 C 34,4 km/h 100,00 %
20.05.2022 17:53 20,3 C 83 % 1012,5 hPa 0,0 l/m 22,5 km/h S-SO 168 0 min 0,000 mm 0,5 UV-I 105 W/m 17,3 C 16,2 C 32,5 km/h 96,15 %
20.05.2022 17:52 20,4 C 83 % 1012,4 hPa 0,0 l/m 18,6 km/h S-SO 155 0 min 0,000 mm 0,5 UV-I 118 W/m 17,4 C 17,0 C 38,3 km/h 100,00 %
20.05.2022 17:51 20,4 C 83 % 1012,4 hPa 0,0 l/m 14,4 km/h S 180 0 min 0,000 mm 0,5 UV-I 125 W/m 17,4 C 17,9 C 23,0 km/h 95,65 %
20.05.2022 17:50 20,4 C 83 % 1012,4 hPa 0,0 l/m 16,0 km/h S-SO 163 0 min 0,000 mm 0,5 UV-I 106 W/m 17,4 C 17,5 C 26,8 km/h 96,30 %
20.05.2022 17:49 20,5 C 83 % 1012,3 hPa 0,0 l/m 16,5 km/h S 187 0 min 0,000 mm 0,0 UV-I 91 W/m 17,5 C 17,5 C 26,8 km/h 100,00 %
20.05.2022 17:48 20,6 C 83 % 1012,5 hPa 0,0 l/m 14,0 km/h S-SW 204 0 min 0,000 mm 0,0 UV-I 92 W/m 17,6 C 18,2 C 26,8 km/h 100,00 %
20.05.2022 17:47 20,6 C 82 % 1012,3 hPa 0,0 l/m 12,1 km/h S 189 0 min 0,000 mm 0,5 UV-I 103 W/m 17,4 C 18,7 C 24,9 km/h 96,15 %
20.05.2022 17:46 20,7 C 82 % 1012,4 hPa 0,0 l/m 20,5 km/h S-SO 157 0 min 0,000 mm 0,6 UV-I 130 W/m 17,5 C 17,0 C 30,6 km/h 94,87 %
20.05.2022 17:45 20,7 C 82 % 1012,5 hPa 0,0 l/m 21,6 km/h SW 225 0 min 0,000 mm 0,8 UV-I 165 W/m 17,5 C 16,8 C 34,4 km/h 100,00 %
20.05.2022 17:44 20,8 C 82 % 1012,4 hPa 0,0 l/m 17,3 km/h S-SO 157 0 min 0,000 mm 0,9 UV-I 191 W/m 17,6 C 17,7 C 28,7 km/h 91,67 %
20.05.2022 17:43 20,8 C 82 % 1012,3 hPa 0,0 l/m 19,5 km/h S 182 0 min 0,000 mm 1,0 UV-I 221 W/m 17,6 C 17,3 C 28,7 km/h 97,56 %
20.05.2022 17:42 20,8 C 82 % 1012,4 hPa 0,0 l/m 17,2 km/h S 190 0 min 0,000 mm 1,1 UV-I 237 W/m 17,6 C 17,8 C 24,9 km/h 100,00 %
20.05.2022 17:41 20,8 C 82 % 1012,3 hPa 0,0 l/m 15,5 km/h S 169 0 min 0,000 mm 1,2 UV-I 270 W/m 17,6 C 18,1 C 23,0 km/h 88,46 %
20.05.2022 17:40 20,8 C 82 % 1012,4 hPa 0,0 l/m 19,5 km/h S-SW 196 0 min 0,000 mm 1,2 UV-I 286 W/m 17,6 C 17,3 C 40,2 km/h 100,00 %
20.05.2022 17:39 20,7 C 84 % 1012,3 hPa 0,0 l/m 12,9 km/h SW 232 0 min 0,000 mm 1,3 UV-I 266 W/m 17,9 C 18,6 C 23,0 km/h 96,15 %
20.05.2022 17:38 20,7 C 83 % 1012,4 hPa 0,0 l/m 12,0 km/h SW 221 0 min 0,000 mm 1,4 UV-I 211 W/m 17,7 C 18,8 C 17,2 km/h 100,00 %
20.05.2022 17:37 20,6 C 83 % 1012,3 hPa 0,0 l/m 15,0 km/h S-SO 167 0 min 0,000 mm 0,8 UV-I 211 W/m 17,6 C 18,0 C 24,9 km/h 96,15 %
20.05.2022 17:36 20,6 C 83 % 1012,3 hPa 0,0 l/m 13,9 km/h S-SO 153 0 min 0,000 mm 0,7 UV-I 174 W/m 17,6 C 18,2 C 23,0 km/h 100,00 %
20.05.2022 17:35 20,7 C 83 % 1012,3 hPa 0,0 l/m 16,2 km/h S 178 0 min 0,000 mm 0,6 UV-I 148 W/m 17,7 C 17,8 C 26,8 km/h 94,44 %
20.05.2022 17:34 20,7 C 83 % 1012,2 hPa 0,0 l/m 9,8 km/h S 178 0 min 0,000 mm 0,7 UV-I 144 W/m 17,7 C 19,5 C 13,4 km/h 97,56 %
20.05.2022 17:33 20,6 C 83 % 1012,3 hPa 0,0 l/m 15,5 km/h S 182 0 min 0,000 mm 0,8 UV-I 170 W/m 17,6 C 17,9 C 26,8 km/h 97,74 %
20.05.2022 17:32 20,6 C 84 % 1012,4 hPa 0,0 l/m 12,8 km/h S-SO 167 0 min 0,000 mm 0,8 UV-I 199 W/m 17,8 C 18,5 C 23,0 km/h 95,65 %
20.05.2022 17:31 20,6 C 84 % 1012,4 hPa 0,0 l/m 15,8 km/h S-SW 196 0 min 0,000 mm 0,9 UV-I 199 W/m 17,8 C 17,8 C 23,0 km/h 96,00 %
20.05.2022 17:30 20,6 C 84 % 1012,4 hPa 0,0 l/m 14,9 km/h SW 224 0 min 0,000 mm 1,0 UV-I 221 W/m 17,8 C 18,0 C 23,0 km/h 96,15 %
20.05.2022 17:29 20,6 C 85 % 1012,5 hPa 0,0 l/m 11,0 km/h S-SO 163 0 min 0,000 mm 1,1 UV-I 246 W/m 18,0 C 19,0 C 17,2 km/h 100,00 %
20.05.2022 17:28 20,5 C 85 % 1012,5 hPa 0,0 l/m 9,6 km/h S 174 0 min 0,000 mm 1,2 UV-I 262 W/m 17,9 C 19,3 C 19,1 km/h 91,30 %
20.05.2022 17:27 20,5 C 85 % 1012,6 hPa 0,0 l/m 11,3 km/h S 171 0 min 0,000 mm 1,1 UV-I 261 W/m 17,9 C 18,8 C 21,0 km/h 100,00 %
20.05.2022 17:26 20,4 C 84 % 1012,5 hPa 0,0 l/m 15,8 km/h S 190 0 min 0,000 mm 1,0 UV-I 236 W/m 17,6 C 17,6 C 23,0 km/h 95,65 %
20.05.2022 17:25 20,4 C 84 % 1012,4 hPa 0,0 l/m 13,6 km/h S-SO 163 0 min 0,000 mm 0,9 UV-I 203 W/m 17,6 C 18,1 C 28,7 km/h 100,00 %
20.05.2022 17:24 20,4 C 85 % 1012,5 hPa 0,0 l/m 14,0 km/h S 178 0 min 0,000 mm 0,8 UV-I 179 W/m 17,8 C 18,0 C 30,6 km/h 96,15 %
20.05.2022 17:23 20,4 C 85 % 1012,5 hPa 0,0 l/m 7,4 km/h SW 224 0 min 0,000 mm 0,7 UV-I 158 W/m 17,8 C 20,0 C 15,3 km/h 96,30 %
20.05.2022 17:22 20,4 C 84 % 1012,5 hPa 0,0 l/m 8,7 km/h S-SO 168 0 min 0,000 mm 0,7 UV-I 139 W/m 17,6 C 19,5 C 13,4 km/h 100,00 %
20.05.2022 17:21 20,4 C 84 % 1012,5 hPa 0,0 l/m 13,5 km/h S-SO 168 0 min 0,000 mm 0,5 UV-I 126 W/m 17,6 C 18,1 C 23,0 km/h 95,83 %
20.05.2022 17:20 20,4 C 84 % 1012,5 hPa 0,0 l/m 13,2 km/h O-SO 103 0 min 0,000 mm 0,5 UV-I 115 W/m 17,6 C 18,2 C 19,1 km/h 100,00 %
20.05.2022 17:19 20,4 C 84 % 1012,5 hPa 0,0 l/m 14,6 km/h S-SW 208 0 min 0,000 mm 0,0 UV-I 101 W/m 17,6 C 17,8 C 23,0 km/h 92,31 %
20.05.2022 17:18 20,4 C 84 % 1012,5 hPa 0,0 l/m 7,1 km/h S-SO 161 0 min 0,000 mm 0,0 UV-I 93 W/m 17,6 C 20,1 C 11,5 km/h 100,00 %
20.05.2022 17:17 20,4 C 84 % 1012,4 hPa 0,0 l/m 13,6 km/h S-SW 200 0 min 0,000 mm 0,0 UV-I 91 W/m 17,6 C 18,1 C 23,0 km/h 95,65 %
20.05.2022 17:16 20,4 C 84 % 1012,4 hPa 0,0 l/m 11,2 km/h S 178 0 min 0,000 mm 0,0 UV-I 93 W/m 17,6 C 18,7 C 15,3 km/h 96,30 %
20.05.2022 17:15 20,4 C 84 % 1012,4 hPa 0,0 l/m 6,1 km/h S-SO 159 0 min 0,000 mm 0,0 UV-I 93 W/m 17,6 C 20,4 C 13,4 km/h 97,37 %
20.05.2022 17:14 20,5 C 83 % 1012,3 hPa 0,0 l/m 17,5 km/h SW 217 0 min 0,000 mm 0,4 UV-I 89 W/m 17,5 C 17,3 C 32,5 km/h 94,44 %
20.05.2022 17:13 20,6 C 84 % 1012,3 hPa 0,0 l/m 19,5 km/h S-SO 167 0 min 0,000 mm 0,0 UV-I 86 W/m 17,8 C 17,1 C 30,6 km/h 96,30 %
20.05.2022 17:12 20,6 C 84 % 1012,2 hPa 0,0 l/m 14,9 km/h S-SW 194 0 min 0,000 mm 0,0 UV-I 81 W/m 17,8 C 18,0 C 23,0 km/h 86,67 %
20.05.2022 17:11 20,6 C 85 % 1012,2 hPa 0,0 l/m 5,7 km/h S 169 0 min 0,000 mm 0,0 UV-I 80 W/m 18,0 C 20,6 C 11,5 km/h 100,00 %
20.05.2022 17:10 20,7 C 85 % 1012,3 hPa 0,0 l/m 7,6 km/h S-SO 161 0 min 0,000 mm 0,0 UV-I 80 W/m 18,1 C 20,2 C 17,2 km/h 91,67 %
20.05.2022 17:09 20,7 C 84 % 1012,3 hPa 0,0 l/m 10,2 km/h W-SW 238 0 min 0,000 mm 0,0 UV-I 79 W/m 17,9 C 19,4 C 21,0 km/h 100,00 %
20.05.2022 17:08 20,7 C 83 % 1012,4 hPa 0,0 l/m 16,6 km/h S-SW 205 0 min 0,000 mm 0,0 UV-I 85 W/m 17,7 C 17,8 C 26,8 km/h 96,30 %
20.05.2022 17:07 20,8 C 84 % 1012,4 hPa 0,0 l/m 15,7 km/h S 190 0 min 0,000 mm 0,5 UV-I 99 W/m 18,0 C 18,1 C 26,8 km/h 100,00 %
20.05.2022 17:06 20,8 C 84 % 1012,4 hPa 0,0 l/m 14,4 km/h NW 320 0 min 0,000 mm 0,6 UV-I 117 W/m 18,0 C 18,4 C 23,0 km/h 96,30 %
20.05.2022 17:05 20,8 C 84 % 1012,4 hPa 0,0 l/m 16,1 km/h S-SW 213 0 min 0,000 mm 0,6 UV-I 136 W/m 18,0 C 18,0 C 30,6 km/h 96,15 %
20.05.2022 17:04 20,9 C 85 % 1012,3 hPa 0,0 l/m 17,6 km/h SW 225 0 min 0,000 mm 0,8 UV-I 149 W/m 18,3 C 17,8 C 24,9 km/h 100,00 %
20.05.2022 17:03 20,9 C 86 % 1012,5 hPa 0,0 l/m 16,5 km/h W-SW 251 0 min 0,000 mm 0,8 UV-I 159 W/m 18,5 C 18,0 C 26,8 km/h 96,15 %
20.05.2022 17:02 20,9 C 85 % 1012,5 hPa 0,0 l/m 7,9 km/h S 185 0 min 0,000 mm 0,9 UV-I 164 W/m 18,3 C 20,3 C 13,4 km/h 100,00 %
20.05.2022 17:01 20,9 C 85 % 1012,5 hPa 0,0 l/m 14,7 km/h SW 214 0 min 0,000 mm 0,9 UV-I 170 W/m 18,3 C 18,4 C 21,0 km/h 88,46 %
20.05.2022 17:00 20,9 C 86 % 1012,5 hPa 0,0 l/m 13,3 km/h S-SO 159 0 min 0,102 mm 0,9 UV-I 177 W/m 18,5 C 18,7 C 21,0 km/h 96,30 %
20.05.2022 16:59 20,9 C 85 % 1012,5 hPa 0,0 l/m 12,6 km/h S-SW 205 0 min 0,000 mm 0,9 UV-I 186 W/m 18,3 C 18,9 C 21,0 km/h 100,00 %
20.05.2022 16:58 20,9 C 85 % 1012,5 hPa 0,0 l/m 16,4 km/h S-SO 150 0 min 0,000 mm 1,0 UV-I 194 W/m 18,3 C 18,0 C 24,9 km/h 96,55 %
20.05.2022 16:57 20,9 C 86 % 1012,5 hPa 0,0 l/m 17,0 km/h SW 220 0 min 0,000 mm 1,0 UV-I 195 W/m 18,5 C 17,9 C 24,9 km/h 100,00 %
20.05.2022 16:56 21,0 C 86 % 1012,5 hPa 0,0 l/m 8,9 km/h S 186 0 min 0,000 mm 1,0 UV-I 201 W/m 18,6 C 20,1 C 13,4 km/h 96,15 %
20.05.2022 16:55 21,0 C 85 % 1012,6 hPa 0,0 l/m 19,4 km/h S 175 0 min 0,000 mm 1,0 UV-I 204 W/m 18,4 C 17,6 C 28,7 km/h 100,00 %
20.05.2022 16:54 21,0 C 86 % 1012,7 hPa 0,0 l/m 14,8 km/h SO 138 0 min 0,000 mm 1,1 UV-I 214 W/m 18,6 C 18,5 C 24,9 km/h 92,86 %
20.05.2022 16:53 20,9 C 86 % 1012,7 hPa 0,0 l/m 12,2 km/h S 171 0 min 0,000 mm 1,1 UV-I 219 W/m 18,5 C 19,0 C 19,1 km/h 100,00 %
20.05.2022 16:52 20,9 C 87 % 1012,8 hPa 0,0 l/m 11,4 km/h S-SO 162 0 min 0,000 mm 1,0 UV-I 214 W/m 18,7 C 19,2 C 15,3 km/h 95,83 %
20.05.2022 16:51 20,9 C 87 % 1012,8 hPa 0,0 l/m 12,7 km/h S-SO 164 0 min 0,000 mm 1,0 UV-I 201 W/m 18,7 C 18,9 C 19,1 km/h 100,00 %
20.05.2022 16:50 20,9 C 87 % 1012,8 hPa 0,0 l/m 7,3 km/h S-SO 148 0 min 0,000 mm 0,9 UV-I 186 W/m 18,7 C 20,6 C 15,3 km/h 95,65 %
20.05.2022 16:49 21,0 C 86 % 1012,8 hPa 0,0 l/m 6,3 km/h S-SW 199 0 min 0,000 mm 0,8 UV-I 166 W/m 18,6 C 21,0 C 11,5 km/h 100,00 %
20.05.2022 16:48 20,9 C 85 % 1012,9 hPa 0,0 l/m 14,9 km/h S 172 0 min 0,000 mm 0,7 UV-I 145 W/m 18,3 C 18,4 C 26,8 km/h 95,65 %
20.05.2022 16:47 20,9 C 86 % 1012,8 hPa 0,0 l/m 14,7 km/h S-SW 201 0 min 0,000 mm 0,7 UV-I 132 W/m 18,5 C 18,4 C 23,0 km/h 95,83 %
20.05.2022 16:46 21,0 C 86 % 1012,9 hPa 0,0 l/m 14,0 km/h S-SO 160 0 min 0,000 mm 0,6 UV-I 118 W/m 18,6 C 18,7 C 23,0 km/h 100,00 %
20.05.2022 16:45 21,0 C 86 % 1013,0 hPa 0,0 l/m 8,8 km/h S-SW 193 0 min 0,000 mm 0,5 UV-I 110 W/m 18,6 C 20,1 C 19,1 km/h 95,83 %
20.05.2022 16:44 21,0 C 86 % 1013,0 hPa 0,0 l/m 13,2 km/h SW 229 0 min 0,000 mm 0,5 UV-I 105 W/m 18,6 C 18,9 C 26,8 km/h 97,56 %
20.05.2022 16:43 21,0 C 86 % 1013,0 hPa 0,0 l/m 16,4 km/h S-SW 192 0 min 0,000 mm 0,5 UV-I 104 W/m 18,6 C 18,2 C 26,8 km/h 100,00 %
20.05.2022 16:42 21,1 C 86 % 1013,0 hPa 0,0 l/m 11,6 km/h S-SW 200 0 min 0,000 mm 0,5 UV-I 102 W/m 18,7 C 19,4 C 17,2 km/h 100,00 %
20.05.2022 16:41 21,1 C 86 % 1012,9 hPa 0,0 l/m 13,2 km/h S 180 0 min 0,000 mm 0,5 UV-I 97 W/m 18,7 C 19,0 C 21,0 km/h 97,56 %
20.05.2022 16:40 21,1 C 87 % 1012,9 hPa 0,0 l/m 13,6 km/h S-SO 159 0 min 0,000 mm 0,5 UV-I 89 W/m 18,8 C 18,9 C 23,0 km/h 100,00 %
20.05.2022 16:39 21,1 C 86 % 1012,9 hPa 0,0 l/m 14,4 km/h S 178 0 min 0,000 mm 0,1 UV-I 81 W/m 18,7 C 18,7 C 26,8 km/h 100,00 %
20.05.2022 16:38 21,1 C 87 % 1012,9 hPa 0,2 l/m 15,7 km/h SW 215 0 min 0,000 mm 0,0 UV-I 65 W/m 18,8 C 18,4 C 30,6 km/h 91,67 %
20.05.2022 16:37 21,1 C 88 % 1012,9 hPa 0,0 l/m 9,0 km/h S-SO 154 0 min 0,000 mm 0,0 UV-I 62 W/m 19,0 C 20,2 C 21,0 km/h 92,59 %
20.05.2022 16:36 21,1 C 88 % 1012,8 hPa 0,0 l/m 10,6 km/h SO 144 0 min 0,000 mm 0,0 UV-I 60 W/m 19,0 C 19,7 C 17,2 km/h 93,10 %
20.05.2022 16:35 21,1 C 88 % 1012,7 hPa 0,0 l/m 8,9 km/h S-SO 159 0 min 0,000 mm 0,0 UV-I 62 W/m 19,0 C 20,2 C 13,4 km/h 100,00 %
20.05.2022 16:34 21,0 C 89 % 1012,7 hPa 0,0 l/m 12,7 km/h S-SO 157 0 min 0,000 mm 0,0 UV-I 63 W/m 19,1 C 19,0 C 19,1 km/h 96,30 %
20.05.2022 16:33 21,0 C 89 % 1012,7 hPa 0,0 l/m 10,1 km/h S 182 0 min 0,000 mm 0,0 UV-I 64 W/m 19,1 C 19,7 C 15,3 km/h 100,00 %
20.05.2022 16:32 21,0 C 89 % 1012,7 hPa 0,0 l/m 10,0 km/h S-SO 163 0 min 0,000 mm 0,0 UV-I 68 W/m 19,1 C 19,7 C 15,3 km/h 91,67 %
20.05.2022 16:31 21,1 C 89 % 1012,7 hPa 0,0 l/m 4,3 km/h S-SO 149 0 min 0,000 mm 0,0 UV-I 76 W/m 19,2 C 21,1 C 5,7 km/h 100,00 %
20.05.2022 16:30 21,1 C 89 % 1012,7 hPa 0,0 l/m 4,9 km/h S 179 0 min 0,000 mm 0,2 UV-I 85 W/m 19,2 C 21,1 C 9,6 km/h 95,83 %
20.05.2022 16:29 21,0 C 89 % 1012,7 hPa 0,0 l/m 8,2 km/h S 179 0 min 0,000 mm 0,5 UV-I 93 W/m 19,1 C 20,3 C 17,2 km/h 100,00 %
20.05.2022 16:28 21,1 C 89 % 1012,7 hPa 0,0 l/m 7,7 km/h S 181 0 min 0,000 mm 0,5 UV-I 100 W/m 19,2 C 20,6 C 11,5 km/h 100,00 %
20.05.2022 16:27 21,1 C 89 % 1012,7 hPa 0,0 l/m 5,6 km/h S-SO 158 0 min 0,000 mm 0,6 UV-I 108 W/m 19,2 C 21,1 C 9,6 km/h 100,00 %
20.05.2022 16:26 21,1 C 89 % 1012,7 hPa 0,0 l/m 5,5 km/h S-SO 163 0 min 0,000 mm 0,7 UV-I 119 W/m 19,2 C 21,1 C 7,7 km/h 100,00 %
20.05.2022 16:25 21,1 C 89 % 1012,7 hPa 0,0 l/m 6,1 km/h SO 140 0 min 0,000 mm 0,7 UV-I 132 W/m 19,2 C 21,1 C 13,4 km/h 95,65 %
20.05.2022 16:24 21,0 C 89 % 1012,9 hPa 0,0 l/m 6,6 km/h S 175 0 min 0,000 mm 0,8 UV-I 144 W/m 19,1 C 20,9 C 13,4 km/h 96,30 %
20.05.2022 16:23 21,0 C 89 % 1012,9 hPa 0,0 l/m 10,5 km/h S 182 0 min 0,000 mm 0,9 UV-I 160 W/m 19,1 C 19,6 C 17,2 km/h 100,00 %
20.05.2022 16:22 21,0 C 89 % 1012,9 hPa 0,0 l/m 11,5 km/h S 186 0 min 0,000 mm 0,9 UV-I 165 W/m 19,1 C 19,3 C 15,3 km/h 100,00 %
20.05.2022 16:21 21,1 C 89 % 1013,0 hPa 0,0 l/m 11,4 km/h S 183 0 min 0,000 mm 0,8 UV-I 148 W/m 19,2 C 19,5 C 17,2 km/h 100,00 %
20.05.2022 16:20 21,0 C 89 % 1013,0 hPa 0,0 l/m 9,9 km/h S-SO 161 0 min 0,000 mm 0,7 UV-I 136 W/m 19,1 C 19,8 C 13,4 km/h 100,00 %
20.05.2022 16:19 21,1 C 89 % 1013,0 hPa 0,0 l/m 11,5 km/h S 182 0 min 0,000 mm 0,8 UV-I 142 W/m 19,2 C 19,4 C 15,3 km/h 96,15 %
20.05.2022 16:18 21,1 C 89 % 1013,0 hPa 0,0 l/m 9,3 km/h S 186 0 min 0,000 mm 0,8 UV-I 152 W/m 19,2 C 20,1 C 13,4 km/h 100,00 %
20.05.2022 16:17 21,1 C 89 % 1012,9 hPa 0,0 l/m 12,0 km/h S 170 0 min 0,000 mm 0,9 UV-I 162 W/m 19,2 C 19,3 C 17,2 km/h 100,00 %
20.05.2022 16:16 21,1 C 89 % 1012,9 hPa 0,0 l/m 11,4 km/h S-SO 152 0 min 0,000 mm 0,9 UV-I 167 W/m 19,2 C 19,5 C 19,1 km/h 95,83 %
20.05.2022 16:15 21,1 C 89 % 1012,9 hPa 0,0 l/m 6,5 km/h SO 130 0 min 0,000 mm 0,9 UV-I 166 W/m 19,2 C 21,1 C 11,5 km/h 100,00 %
20.05.2022 16:14 21,1 C 90 % 1012,8 hPa 0,0 l/m 7,7 km/h S-SO 150 0 min 0,000 mm 0,9 UV-I 170 W/m 19,4 C 20,6 C 11,5 km/h 100,00 %
20.05.2022 16:13 21,1 C 89 % 1012,6 hPa 0,0 l/m 4,7 km/h SO 140 0 min 0,000 mm 0,9 UV-I 185 W/m 19,2 C 21,1 C 9,6 km/h 100,00 %
20.05.2022 16:12 21,1 C 90 % 1012,6 hPa 0,0 l/m 6,8 km/h S-SO 160 0 min 0,000 mm 1,0 UV-I 204 W/m 19,4 C 21,0 C 13,4 km/h 97,77 %
20.05.2022 16:11 21,1 C 90 % 1012,5 hPa 0,0 l/m 4,4 km/h S-SO 165 0 min 0,000 mm 1,2 UV-I 218 W/m 19,4 C 21,1 C 7,7 km/h 100,00 %
20.05.2022 16:10 21,1 C 89 % 1012,6 hPa 0,0 l/m 4,4 km/h SO 135 0 min 0,000 mm 1,2 UV-I 233 W/m 19,2 C 21,1 C 9,6 km/h 100,00 %
20.05.2022 16:09 21,1 C 89 % 1012,6 hPa 0,0 l/m 5,1 km/h SO 138 0 min 0,000 mm 1,2 UV-I 237 W/m 19,2 C 21,1 C 9,6 km/h 100,00 %
20.05.2022 16:08 21,1 C 89 % 1012,6 hPa 0,0 l/m 9,4 km/h SO 140 0 min 0,000 mm 1,1 UV-I 223 W/m 19,2 C 20,0 C 13,4 km/h 100,00 %
20.05.2022 16:07 21,1 C 90 % 1012,5 hPa 0,0 l/m 7,6 km/h SO 136 0 min 0,000 mm 0,9 UV-I 188 W/m 19,4 C 20,7 C 15,3 km/h 96,30 %
20.05.2022 16:06 21,1 C 90 % 1012,6 hPa 0,0 l/m 10,6 km/h S-SO 159 0 min 0,000 mm 0,8 UV-I 171 W/m 19,4 C 19,7 C 15,3 km/h 100,00 %
20.05.2022 16:05 21,1 C 90 % 1012,7 hPa 0,0 l/m 5,0 km/h S-SO 160 0 min 0,000 mm 0,8 UV-I 165 W/m 19,4 C 21,1 C 11,5 km/h 100,00 %
20.05.2022 16:04 21,1 C 90 % 1012,7 hPa 0,0 l/m 10,0 km/h S-SO 153 0 min 0,000 mm 0,8 UV-I 157 W/m 19,4 C 19,9 C 15,3 km/h 100,00 %
20.05.2022 16:03 21,1 C 90 % 1012,7 hPa 0,0 l/m 8,0 km/h S 170 0 min 0,000 mm 0,7 UV-I 148 W/m 19,4 C 20,5 C 17,2 km/h 100,00 %
20.05.2022 16:02 21,2 C 90 % 1012,7 hPa 0,0 l/m 8,7 km/h S-SO 157 0 min 0,000 mm 0,7 UV-I 144 W/m 19,5 C 20,4 C 13,4 km/h 100,00 %
20.05.2022 16:01 21,2 C 90 % 1012,6 hPa 0,0 l/m 12,9 km/h O-SO 122 0 min 0,076 mm 0,8 UV-I 150 W/m 19,5 C 19,2 C 19,1 km/h 100,00 %
20.05.2022 16:00 21,2 C 91 % 1012,5 hPa 0,0 l/m 11,6 km/h SO 124 0 min 0,000 mm 0,8 UV-I 161 W/m 19,7 C 19,5 C 17,2 km/h 100,00 %
20.05.2022 15:59 21,1 C 91 % 1012,4 hPa 0,0 l/m 12,4 km/h O-SO 113 0 min 0,000 mm 1,0 UV-I 181 W/m 19,6 C 19,2 C 17,2 km/h 100,00 %
20.05.2022 15:58 21,1 C 91 % 1012,4 hPa 0,0 l/m 16,1 km/h O-SO 113 0 min 0,000 mm 1,2 UV-I 206 W/m 19,6 C 18,4 C 23,0 km/h 95,83 %
20.05.2022 15:57 21,1 C 92 % 1012,4 hPa 0,0 l/m 16,1 km/h O-SO 106 0 min 0,000 mm 1,2 UV-I 228 W/m 19,7 C 18,4 C 26,8 km/h 96,15 %
20.05.2022 15:56 21,1 C 93 % 1012,6 hPa 0,0 l/m 14,1 km/h O 96 0 min 0,000 mm 1,3 UV-I 242 W/m 19,9 C 18,8 C 21,0 km/h 100,00 %
20.05.2022 15:55 21,1 C 93 % 1012,6 hPa 0,0 l/m 10,9 km/h O-SO 105 0 min 0,000 mm 1,3 UV-I 253 W/m 19,9 C 19,6 C 17,2 km/h 100,00 %
20.05.2022 15:54 21,1 C 93 % 1012,5 hPa 0,0 l/m 8,7 km/h O-SO 115 0 min 0,000 mm 1,4 UV-I 260 W/m 19,9 C 20,3 C 13,4 km/h 100,00 %
20.05.2022 15:53 21,0 C 93 % 1012,5 hPa 0,0 l/m 13,9 km/h O-SO 114 0 min 0,000 mm 1,4 UV-I 263 W/m 19,8 C 18,7 C 19,1 km/h 100,00 %
20.05.2022 15:52 21,0 C 93 % 1012,5 hPa 0,0 l/m 10,5 km/h O-SO 104 0 min 0,000 mm 1,4 UV-I 265 W/m 19,8 C 19,6 C 15,3 km/h 100,00 %
20.05.2022 15:51 20,9 C 93 % 1012,6 hPa 0,0 l/m 7,1 km/h SO 130 0 min 0,000 mm 1,5 UV-I 275 W/m 19,7 C 20,6 C 15,3 km/h 100,00 %
20.05.2022 15:50 20,9 C 93 % 1012,5 hPa 0,0 l/m 8,0 km/h O-SO 123 1 min 0,000 mm 1,6 UV-I 297 W/m 19,7 C 20,3 C 13,4 km/h 100,00 %
20.05.2022 15:49 20,8 C 93 % 1012,4 hPa 0,0 l/m 16,5 km/h SO 143 1 min 0,000 mm 1,6 UV-I 317 W/m 19,6 C 17,9 C 24,9 km/h 100,00 %
20.05.2022 15:48 20,8 C 93 % 1012,4 hPa 0,0 l/m 14,3 km/h O-SO 121 1 min 0,000 mm 1,6 UV-I 328 W/m 19,6 C 18,4 C 23,0 km/h 100,00 %
20.05.2022 15:47 20,8 C 93 % 1012,5 hPa 0,0 l/m 8,5 km/h O 94 1 min 0,000 mm 1,5 UV-I 320 W/m 19,6 C 20,0 C 17,2 km/h 100,00 %
20.05.2022 15:46 20,7 C 93 % 1012,6 hPa 0,0 l/m 6,1 km/h SO 127 1 min 0,000 mm 1,4 UV-I 297 W/m 19,5 C 20,7 C 13,4 km/h 100,00 %
20.05.2022 15:45 20,7 C 93 % 1012,6 hPa 0,0 l/m 14,6 km/h SO 136 0 min 0,000 mm 1,2 UV-I 249 W/m 19,5 C 18,2 C 19,1 km/h 100,00 %
20.05.2022 15:44 20,7 C 93 % 1012,6 hPa 0,0 l/m 10,1 km/h O-SO 117 0 min 0,000 mm 1,0 UV-I 203 W/m 19,5 C 19,4 C 17,2 km/h 100,00 %
20.05.2022 15:43 20,7 C 93 % 1012,5 hPa 0,0 l/m 14,0 km/h O-SO 110 0 min 0,000 mm 0,9 UV-I 175 W/m 19,5 C 18,3 C 19,1 km/h 100,00 %
20.05.2022 15:42 20,6 C 93 % 1012,5 hPa 0,0 l/m 11,8 km/h O-SO 105 0 min 0,000 mm 0,8 UV-I 157 W/m 19,4 C 18,8 C 19,1 km/h 100,00 %
20.05.2022 15:41 20,6 C 93 % 1012,4 hPa 0,0 l/m 11,4 km/h O-SO 117 0 min 0,000 mm 0,7 UV-I 145 W/m 19,4 C 18,9 C 19,1 km/h 100,00 %
20.05.2022 15:40 20,6 C 93 % 1012,4 hPa 0,0 l/m 14,9 km/h O-SO 120 0 min 0,000 mm 0,7 UV-I 137 W/m 19,4 C 18,0 C 17,2 km/h 100,00 %
20.05.2022 15:39 20,6 C 93 % 1012,4 hPa 0,0 l/m 9,9 km/h O 99 0 min 0,000 mm 0,7 UV-I 131 W/m 19,4 C 19,3 C 19,1 km/h 100,00 %
20.05.2022 15:38 20,6 C 92 % 1012,4 hPa 0,0 l/m 10,3 km/h O 98 0 min 0,000 mm 0,7 UV-I 124 W/m 19,3 C 19,2 C 13,4 km/h 100,00 %
20.05.2022 15:37 20,6 C 92 % 1012,5 hPa 0,0 l/m 12,0 km/h O 84 0 min 0,000 mm 0,6 UV-I 115 W/m 19,3 C 18,7 C 17,2 km/h 100,00 %
20.05.2022 15:36 20,6 C 92 % 1012,5 hPa 0,0 l/m 7,2 km/h O 94 0 min 0,000 mm 0,6 UV-I 104 W/m 19,3 C 20,3 C 11,5 km/h 100,00 %
20.05.2022 15:35 20,6 C 92 % 1012,5 hPa 0,0 l/m 9,9 km/h O-SO 107 0 min 0,000 mm 0,1 UV-I 89 W/m 19,3 C 19,3 C 15,3 km/h 100,00 %
20.05.2022 15:34 20,6 C 92 % 1012,5 hPa 0,2 l/m 7,6 km/h O 101 0 min 0,000 mm 0,0 UV-I 76 W/m 19,3 C 20,1 C 11,5 km/h 100,00 %
20.05.2022 15:33 20,6 C 92 % 1012,4 hPa 0,0 l/m 8,6 km/h O-SO 105 0 min 0,000 mm 0,0 UV-I 60 W/m 19,3 C 19,8 C 11,5 km/h 100,00 %
20.05.2022 15:32 20,5 C 92 % 1012,5 hPa 0,0 l/m 7,5 km/h O 101 0 min 0,000 mm 0,0 UV-I 48 W/m 19,2 C 20,1 C 11,5 km/h 100,00 %
20.05.2022 15:31 20,5 C 92 % 1012,5 hPa 0,0 l/m 7,5 km/h O-SO 109 0 min 0,000 mm 0,0 UV-I 38 W/m 19,2 C 20,1 C 15,3 km/h 100,00 %
20.05.2022 15:30 20,5 C 92 % 1012,6 hPa 0,0 l/m 7,9 km/h O-SO 119 0 min 0,000 mm 0,0 UV-I 31 W/m 19,2 C 19,9 C 11,5 km/h 100,00 %
20.05.2022 15:29 20,5 C 91 % 1012,7 hPa 0,0 l/m 11,2 km/h O 100 0 min 0,000 mm 0,0 UV-I 25 W/m 19,0 C 18,8 C 15,3 km/h 100,00 %
20.05.2022 15:28 20,5 C 91 % 1012,8 hPa 0,0 l/m 6,4 km/h O 97 0 min 0,000 mm 0,0 UV-I 20 W/m 19,0 C 20,5 C 7,7 km/h 100,00 %
20.05.2022 15:27 20,5 C 91 % 1012,9 hPa 0,0 l/m 5,8 km/h O 90 0 min 0,000 mm 0,0 UV-I 18 W/m 19,0 C 20,5 C 7,7 km/h 100,00 %
20.05.2022 15:26 20,5 C 91 % 1013,0 hPa 0,0 l/m 4,1 km/h O 90 0 min 0,000 mm 0,0 UV-I 14 W/m 19,0 C 20,5 C 7,7 km/h 92,31 %
20.05.2022 15:25 20,5 C 91 % 1013,2 hPa 0,2 l/m 4,7 km/h O-SO 111 0 min 0,000 mm 0,0 UV-I 12 W/m 19,0 C 20,5 C 5,7 km/h 100,00 %
20.05.2022 15:24 20,5 C 91 % 1013,5 hPa 0,0 l/m 5,2 km/h O-SO 113 0 min 0,000 mm 0,0 UV-I 10 W/m 19,0 C 20,5 C 7,7 km/h 100,00 %
20.05.2022 15:23 20,6 C 90 % 1013,6 hPa 0,2 l/m 3,8 km/h S-SW 194 0 min 0,000 mm 0,0 UV-I 9 W/m 18,9 C 20,6 C 5,7 km/h 93,33 %
20.05.2022 15:22 20,6 C 90 % 1013,8 hPa 0,0 l/m 2,6 km/h S-SW 211 0 min 0,000 mm 0,0 UV-I 8 W/m 18,9 C 20,6 C 5,7 km/h 100,00 %
20.05.2022 15:21 20,6 C 90 % 1014,0 hPa 0,0 l/m 5,0 km/h SW 218 0 min 0,000 mm 0,0 UV-I 5 W/m 18,9 C 20,6 C 11,5 km/h 100,00 %
20.05.2022 15:20 20,7 C 90 % 1014,1 hPa 0,2 l/m 9,0 km/h S-SW 209 0 min 0,000 mm 0,0 UV-I 4 W/m 19,0 C 19,7 C 15,3 km/h 100,00 %
20.05.2022 15:19 20,8 C 89 % 1014,1 hPa 0,0 l/m 6,8 km/h SW 216 0 min 0,000 mm 0,0 UV-I 0 W/m 18,9 C 20,7 C 11,5 km/h 100,00 %
20.05.2022 15:18 20,9 C 89 % 1014,2 hPa 0,2 l/m 6,4 km/h W-SW 239 0 min 0,000 mm 0,0 UV-I 0 W/m 19,0 C 20,9 C 9,6 km/h 100,00 %
20.05.2022 15:17 20,9 C 89 % 1014,4 hPa 0,8 l/m 6,8 km/h SW 215 0 min 0,000 mm 0,0 UV-I 0 W/m 19,0 C 20,8 C 11,5 km/h 100,00 %
20.05.2022 15:16 21,0 C 89 % 1014,6 hPa 0,8 l/m 5,2 km/h S-SW 211 0 min 0,000 mm 0,0 UV-I 0 W/m 19,1 C 21,0 C 11,5 km/h 100,00 %
20.05.2022 15:15 21,1 C 88 % 1014,8 hPa 0,4 l/m 3,5 km/h S-SW 212 0 min 0,000 mm 0,0 UV-I 0 W/m 19,0 C 21,1 C 7,7 km/h 100,00 %
20.05.2022 15:14 21,2 C 88 % 1014,8 hPa 0,6 l/m 8,4 km/h SW 227 0 min 0,000 mm 0,0 UV-I 0 W/m 19,1 C 20,5 C 13,4 km/h 100,00 %
20.05.2022 15:13 21,3 C 87 % 1014,7 hPa 0,2 l/m 7,4 km/h S 186 0 min 0,000 mm 0,0 UV-I 0 W/m 19,0 C 20,9 C 11,5 km/h 100,00 %
20.05.2022 15:12 21,4 C 86 % 1014,5 hPa 0,8 l/m 5,7 km/h S-SW 200 0 min 0,000 mm 0,0 UV-I 0 W/m 19,0 C 21,4 C 11,5 km/h 100,00 %
20.05.2022 15:11 21,6 C 86 % 1014,4 hPa 0,2 l/m 5,4 km/h S 186 0 min 0,000 mm 0,0 UV-I 0 W/m 19,2 C 21,6 C 7,7 km/h 100,00 %
20.05.2022 15:10 21,8 C 85 % 1014,3 hPa 0,2 l/m 5,6 km/h S-SW 194 0 min 0,000 mm 0,0 UV-I 0 W/m 19,2 C 21,8 C 7,7 km/h 100,00 %
20.05.2022 15:09 21,9 C 84 % 1014,1 hPa 0,2 l/m 3,6 km/h S 189 0 min 0,000 mm 0,0 UV-I 0 W/m 19,1 C 21,9 C 5,7 km/h 100,00 %
20.05.2022 15:08 22,1 C 84 % 1014,0 hPa 0,2 l/m 1,3 km/h S 189 0 min 0,000 mm 0,0 UV-I 2 W/m 19,3 C 22,1 C 3,8 km/h 100,00 %
20.05.2022 15:07 22,3 C 83 % 1014,0 hPa 0,4 l/m 0,0 km/h S 189 0 min 0,000 mm 0,0 UV-I 5 W/m 19,3 C 22,3 C 0,0 km/h 100,00 %
20.05.2022 15:06 22,4 C 83 % 1014,0 hPa 0,2 l/m 0,6 km/h S 189 0 min 0,000 mm 0,0 UV-I 5 W/m 19,4 C 22,4 C 1,9 km/h 100,00 %
20.05.2022 15:05 22,4 C 82 % 1014,0 hPa 0,6 l/m 3,2 km/h S 189 0 min 0,000 mm 0,0 UV-I 2 W/m 19,2 C 22,4 C 3,8 km/h 100,00 %
20.05.2022 15:04 22,6 C 82 % 1014,0 hPa 0,4 l/m 3,8 km/h S 188 0 min 0,000 mm 0,0 UV-I 0 W/m 19,4 C 22,6 C 5,7 km/h 100,00 %
20.05.2022 15:03 22,7 C 81 % 1014,0 hPa 0,2 l/m 6,1 km/h S 188 0 min 0,000 mm 0,0 UV-I 0 W/m 19,3 C 22,7 C 7,7 km/h 100,00 %
20.05.2022 15:02 22,8 C 80 % 1014,0 hPa 0,2 l/m 7,0 km/h S 186 0 min 0,000 mm 0,0 UV-I 0 W/m 19,2 C 22,6 C 9,6 km/h 100,00 %
20.05.2022 15:01 22,8 C 79 % 1013,7 hPa 0,0 l/m 2,8 km/h O-SO 113 0 min 0,127 mm 0,0 UV-I 0 W/m 19,0 C 22,8 C 3,8 km/h 100,00 %
20.05.2022 15:00 22,8 C 78 % 1013,6 hPa 0,2 l/m 1,0 km/h O-SO 113 0 min 0,000 mm 0,0 UV-I 3 W/m 18,8 C 22,8 C 3,8 km/h 100,00 %
20.05.2022 14:59 22,9 C 77 % 1013,6 hPa 0,0 l/m 0,2 km/h O-SO 113 0 min 0,000 mm 0,0 UV-I 5 W/m 18,6 C 22,9 C 1,9 km/h 100,00 %
20.05.2022 14:58 23,0 C 77 % 1013,7 hPa 0,2 l/m 1,8 km/h O-SO 113 0 min 0,000 mm 0,0 UV-I 5 W/m 18,7 C 23,0 C 3,8 km/h 100,00 %
20.05.2022 14:57 23,1 C 77 % 1013,6 hPa 0,0 l/m 0,0 km/h O-SO 113 0 min 0,000 mm 0,0 UV-I 7 W/m 18,8 C 23,1 C 0,0 km/h 100,00 %
20.05.2022 14:56 23,1 C 77 % 1013,6 hPa 0,2 l/m 1,0 km/h O-SO 113 0 min 0,000 mm 0,0 UV-I 7 W/m 18,8 C 23,1 C 1,9 km/h 100,00 %
20.05.2022 14:55 23,2 C 77 % 1013,7 hPa 0,0 l/m 2,2 km/h O-SO 113 0 min 0,000 mm 0,0 UV-I 9 W/m 18,9 C 23,2 C 5,7 km/h 100,00 %
20.05.2022 14:54 23,3 C 75 % 1013,7 hPa 0,0 l/m 2,6 km/h O-SO 113 0 min 0,000 mm 0,0 UV-I 10 W/m 18,6 C 23,3 C 5,7 km/h 100,00 %
20.05.2022 14:53 23,3 C 74 % 1013,8 hPa 0,0 l/m 2,9 km/h O-SO 113 0 min 0,000 mm 0,0 UV-I 11 W/m 18,4 C 23,3 C 3,8 km/h 100,00 %
20.05.2022 14:52 23,4 C 74 % 1013,8 hPa 0,0 l/m 3,3 km/h O-SO 113 0 min 0,000 mm 0,0 UV-I 12 W/m 18,5 C 23,4 C 5,7 km/h 100,00 %
20.05.2022 14:51 23,6 C 74 % 1013,9 hPa 0,2 l/m 1,2 km/h O-SO 113 0 min 0,000 mm 0,0 UV-I 12 W/m 18,7 C 23,6 C 3,8 km/h 100,00 %
20.05.2022 14:50 23,6 C 73 % 1013,9 hPa 0,0 l/m 1,9 km/h O-SO 113 0 min 0,000 mm 0,0 UV-I 15 W/m 18,5 C 23,6 C 5,7 km/h 100,00 %
20.05.2022 14:49 23,7 C 73 % 1013,8 hPa 0,0 l/m 4,1 km/h O-SO 113 0 min 0,000 mm 0,0 UV-I 17 W/m 18,6 C 23,7 C 5,7 km/h 100,00 %
20.05.2022 14:48 23,8 C 71 % 1013,8 hPa 0,0 l/m 3,7 km/h O-SO 112 0 min 0,000 mm 0,0 UV-I 19 W/m 18,2 C 23,8 C 7,7 km/h 100,00 %
20.05.2022 14:47 23,9 C 71 % 1013,7 hPa 0,0 l/m 6,5 km/h O-SO 112 0 min 0,000 mm 0,0 UV-I 20 W/m 18,3 C 23,9 C 11,5 km/h 100,00 %
20.05.2022 14:46 23,9 C 70 % 1013,7 hPa 0,0 l/m 3,2 km/h O-NO 72 0 min 0,000 mm 0,0 UV-I 23 W/m 18,1 C 23,9 C 5,7 km/h 100,00 %
20.05.2022 14:45 24,0 C 70 % 1013,6 hPa 0,0 l/m 4,2 km/h O-NO 71 0 min 0,000 mm 0,0 UV-I 25 W/m 18,2 C 24,0 C 7,7 km/h 100,00 %
20.05.2022 14:44 24,1 C 68 % 1013,6 hPa 0,0 l/m 7,1 km/h O-NO 71 0 min 0,000 mm 0,0 UV-I 27 W/m 17,8 C 23,9 C 13,4 km/h 100,00 %
20.05.2022 14:43 24,2 C 68 % 1013,5 hPa 0,0 l/m 5,6 km/h O 85 0 min 0,000 mm 0,0 UV-I 29 W/m 17,9 C 24,2 C 9,6 km/h 100,00 %
20.05.2022 14:42 24,2 C 68 % 1013,5 hPa 0,0 l/m 5,1 km/h O 85 0 min 0,000 mm 0,0 UV-I 31 W/m 17,9 C 24,2 C 7,7 km/h 92,31 %
20.05.2022 14:41 24,2 C 67 % 1013,5 hPa 0,0 l/m 1,6 km/h O 92 0 min 0,000 mm 0,0 UV-I 33 W/m 17,7 C 24,2 C 3,8 km/h 100,00 %
20.05.2022 14:40 24,2 C 67 % 1013,5 hPa 0,0 l/m 3,3 km/h O 92 0 min 0,000 mm 0,0 UV-I 35 W/m 17,7 C 24,2 C 7,7 km/h 92,00 %
20.05.2022 14:39 24,2 C 66 % 1013,6 hPa 0,0 l/m 5,5 km/h O 90 0 min 0,000 mm 0,0 UV-I 39 W/m 17,4 C 24,2 C 7,7 km/h 100,00 %
20.05.2022 14:38 24,2 C 66 % 1013,5 hPa 0,0 l/m 6,6 km/h O 80 0 min 0,000 mm 0,0 UV-I 42 W/m 17,4 C 24,2 C 11,5 km/h 100,00 %
20.05.2022 14:37 24,2 C 66 % 1013,6 hPa 0,0 l/m 7,3 km/h O 101 0 min 0,000 mm 0,0 UV-I 45 W/m 17,4 C 23,9 C 13,4 km/h 100,00 %
20.05.2022 14:36 24,2 C 66 % 1013,6 hPa 0,0 l/m 8,1 km/h O-SO 106 0 min 0,000 mm 0,0 UV-I 49 W/m 17,4 C 23,7 C 11,5 km/h 100,00 %
20.05.2022 14:35 24,2 C 66 % 1013,6 hPa 0,0 l/m 3,6 km/h O 80 0 min 0,000 mm 0,0 UV-I 53 W/m 17,4 C 24,2 C 5,7 km/h 100,00 %
20.05.2022 14:34 24,2 C 66 % 1013,5 hPa 0,0 l/m 2,5 km/h O 82 0 min 0,000 mm 0,0 UV-I 58 W/m 17,4 C 24,2 C 5,7 km/h 100,00 %
20.05.2022 14:33 24,2 C 66 % 1013,5 hPa 0,0 l/m 2,6 km/h O 81 0 min 0,000 mm 0,0 UV-I 64 W/m 17,4 C 24,2 C 3,8 km/h 96,30 %
20.05.2022 14:32 24,3 C 66 % 1013,5 hPa 0,0 l/m 3,6 km/h O 81 0 min 0,000 mm 0,0 UV-I 68 W/m 17,5 C 24,3 C 5,7 km/h 100,00 %
20.05.2022 14:31 24,3 C 65 % 1013,5 hPa 0,0 l/m 6,9 km/h O-NO 74 0 min 0,000 mm 0,0 UV-I 73 W/m 17,3 C 24,2 C 13,4 km/h 100,00 %
20.05.2022 14:30 24,4 C 65 % 1013,4 hPa 0,0 l/m 6,1 km/h O 83 0 min 0,000 mm 0,0 UV-I 80 W/m 17,4 C 24,4 C 9,6 km/h 100,00 %
20.05.2022 14:29 24,5 C 64 % 1013,4 hPa 0,0 l/m 11,3 km/h O 97 0 min 0,000 mm 0,5 UV-I 88 W/m 17,2 C 23,3 C 15,3 km/h 100,00 %
20.05.2022 14:28 24,6 C 65 % 1013,4 hPa 0,0 l/m 4,6 km/h O 86 0 min 0,000 mm 0,5 UV-I 96 W/m 17,6 C 24,6 C 13,4 km/h 100,00 %
20.05.2022 14:27 24,6 C 65 % 1013,3 hPa 0,0 l/m 3,2 km/h O 84 0 min 0,000 mm 0,6 UV-I 104 W/m 17,6 C 24,6 C 5,7 km/h 100,00 %
20.05.2022 14:26 24,6 C 64 % 1013,3 hPa 0,0 l/m 2,8 km/h NO 44 0 min 0,000 mm 0,7 UV-I 114 W/m 17,3 C 24,6 C 7,7 km/h 100,00 %
20.05.2022 14:25 24,7 C 64 % 1013,3 hPa 0,0 l/m 4,3 km/h O-NO 57 0 min 0,000 mm 0,7 UV-I 124 W/m 17,4 C 24,7 C 11,5 km/h 95,12 %
20.05.2022 14:24 24,7 C 64 % 1013,4 hPa 0,0 l/m 5,0 km/h NO 44 0 min 0,000 mm 0,8 UV-I 135 W/m 17,4 C 24,7 C 11,5 km/h 91,67 %
20.05.2022 14:23 24,8 C 64 % 1013,4 hPa 0,0 l/m 7,3 km/h O-SO 105 0 min 0,000 mm 0,8 UV-I 144 W/m 17,5 C 24,6 C 15,3 km/h 100,00 %
20.05.2022 14:22 24,9 C 63 % 1013,4 hPa 0,0 l/m 6,6 km/h O-SO 103 0 min 0,000 mm 0,9 UV-I 155 W/m 17,4 C 24,9 C 7,7 km/h 96,30 %
20.05.2022 14:21 24,9 C 63 % 1013,5 hPa 0,0 l/m 7,1 km/h O 101 0 min 0,000 mm 0,9 UV-I 167 W/m 17,4 C 24,7 C 15,3 km/h 95,65 %
20.05.2022 14:20 24,9 C 63 % 1013,5 hPa 0,0 l/m 5,5 km/h O-SO 103 0 min 0,000 mm 1,0 UV-I 182 W/m 17,4 C 24,9 C 11,5 km/h 100,00 %
20.05.2022 14:19 25,1 C 63 % 1013,5 hPa 0,0 l/m 8,5 km/h O 85 0 min 0,000 mm 1,2 UV-I 198 W/m 17,5 C 24,6 C 15,3 km/h 100,00 %
20.05.2022 14:18 25,1 C 63 % 1013,5 hPa 0,0 l/m 1,7 km/h SO 134 0 min 0,000 mm 1,3 UV-I 215 W/m 17,5 C 25,1 C 5,7 km/h 100,00 %
20.05.2022 14:17 25,1 C 63 % 1013,6 hPa 0,0 l/m 3,7 km/h O 86 0 min 0,000 mm 1,4 UV-I 231 W/m 17,5 C 25,1 C 7,7 km/h 100,00 %
20.05.2022 14:16 25,1 C 63 % 1013,6 hPa 0,0 l/m 3,3 km/h NO 34 0 min 0,000 mm 1,4 UV-I 244 W/m 17,5 C 25,1 C 7,7 km/h 100,00 %
20.05.2022 14:15 25,1 C 63 % 1013,6 hPa 0,0 l/m 5,1 km/h O 87 0 min 0,000 mm 1,5 UV-I 258 W/m 17,5 C 25,1 C 11,5 km/h 100,00 %
20.05.2022 14:14 25,1 C 63 % 1013,6 hPa 0,0 l/m 6,7 km/h O 96 0 min 0,000 mm 1,6 UV-I 267 W/m 17,5 C 25,0 C 11,5 km/h 100,00 %
20.05.2022 14:13 25,1 C 62 % 1013,7 hPa 0,0 l/m 6,6 km/h O-SO 117 0 min 0,000 mm 1,7 UV-I 274 W/m 17,3 C 25,1 C 11,5 km/h 100,00 %
20.05.2022 14:12 25,2 C 62 % 1013,7 hPa 0,0 l/m 10,4 km/h O-NO 78 0 min 0,000 mm 1,8 UV-I 281 W/m 17,4 C 24,3 C 17,2 km/h 100,00 %
20.05.2022 14:11 25,2 C 62 % 1013,7 hPa 0,0 l/m 4,8 km/h O 82 0 min 0,000 mm 1,8 UV-I 287 W/m 17,4 C 25,2 C 7,7 km/h 100,00 %
20.05.2022 14:10 25,3 C 62 % 1013,7 hPa 0,0 l/m 11,4 km/h O 97 1 min 0,000 mm 1,9 UV-I 302 W/m 17,5 C 24,2 C 19,1 km/h 96,15 %
20.05.2022 14:09 25,3 C 62 % 1013,8 hPa 0,0 l/m 5,4 km/h O 88 1 min 0,000 mm 2,0 UV-I 318 W/m 17,5 C 25,3 C 7,7 km/h 100,00 %
20.05.2022 14:08 25,3 C 62 % 1013,9 hPa 0,0 l/m 9,5 km/h O 100 1 min 0,000 mm 2,2 UV-I 340 W/m 17,5 C 24,6 C 19,1 km/h 100,00 %
20.05.2022 14:07 25,4 C 62 % 1013,9 hPa 0,0 l/m 12,5 km/h O 79 1 min 0,000 mm 2,4 UV-I 438 W/m 17,6 C 24,2 C 21,0 km/h 97,73 %
20.05.2022 14:06 25,3 C 62 % 1013,9 hPa 0,0 l/m 10,2 km/h O 94 1 min 0,000 mm 2,9 UV-I 527 W/m 17,5 C 24,5 C 15,3 km/h 100,00 %
20.05.2022 14:05 25,3 C 61 % 1013,9 hPa 0,0 l/m 6,8 km/h O-SO 108 1 min 0,000 mm 3,2 UV-I 581 W/m 17,2 C 25,2 C 13,4 km/h 100,00 %
20.05.2022 14:04 25,4 C 61 % 1013,9 hPa 0,0 l/m 11,3 km/h O-SO 103 1 min 0,000 mm 3,5 UV-I 648 W/m 17,3 C 24,4 C 19,1 km/h 100,00 %
20.05.2022 14:03 25,5 C 62 % 1014,0 hPa 0,0 l/m 7,5 km/h O 92 1 min 0,000 mm 3,6 UV-I 772 W/m 17,7 C 25,2 C 15,3 km/h 100,00 %
20.05.2022 14:02 25,4 C 62 % 1013,9 hPa 0,0 l/m 12,8 km/h O-NO 69 1 min 0,000 mm 3,8 UV-I 772 W/m 17,6 C 24,1 C 17,2 km/h 100,00 %
20.05.2022 14:01 25,4 C 62 % 1013,9 hPa 0,0 l/m 10,8 km/h O-SO 111 1 min 0,000 mm 3,9 UV-I 777 W/m 17,6 C 24,5 C 15,3 km/h 100,00 %
20.05.2022 14:00 25,4 C 62 % 1013,9 hPa 0,0 l/m 10,2 km/h O-SO 117 1 min 0,533 mm 4,1 UV-I 815 W/m 17,6 C 24,6 C 19,1 km/h 100,00 %
20.05.2022 13:59 25,4 C 61 % 1013,9 hPa 0,0 l/m 13,0 km/h O 93 1 min 0,000 mm 4,3 UV-I 860 W/m 17,3 C 24,1 C 21,0 km/h 100,00 %
20.05.2022 13:58 25,4 C 62 % 1013,9 hPa 0,0 l/m 14,3 km/h NO 46 1 min 0,000 mm 4,3 UV-I 840 W/m 17,6 C 23,9 C 21,0 km/h 100,00 %
20.05.2022 13:57 25,4 C 62 % 1014,0 hPa 0,0 l/m 16,2 km/h O-SO 117 1 min 0,000 mm 4,3 UV-I 846 W/m 17,6 C 23,6 C 23,0 km/h 95,65 %
20.05.2022 13:56 25,4 C 61 % 1014,0 hPa 0,0 l/m 8,1 km/h O 82 1 min 0,000 mm 4,4 UV-I 848 W/m 17,3 C 25,0 C 13,4 km/h 100,00 %
20.05.2022 13:55 25,4 C 61 % 1014,1 hPa 0,0 l/m 10,6 km/h O 99 1 min 0,000 mm 4,4 UV-I 855 W/m 17,3 C 24,5 C 19,1 km/h 100,00 %
20.05.2022 13:54 25,5 C 61 % 1014,2 hPa 0,0 l/m 8,2 km/h O-NO 57 1 min 0,000 mm 4,3 UV-I 830 W/m 17,4 C 25,1 C 17,2 km/h 100,00 %
20.05.2022 13:53 25,4 C 61 % 1014,2 hPa 0,0 l/m 10,8 km/h O 98 1 min 0,000 mm 4,3 UV-I 844 W/m 17,3 C 24,5 C 17,2 km/h 100,00 %
20.05.2022 13:52 25,4 C 62 % 1014,3 hPa 0,0 l/m 6,6 km/h O-NO 57 1 min 0,000 mm 4,4 UV-I 856 W/m 17,6 C 25,4 C 15,3 km/h 100,00 %
20.05.2022 13:51 25,3 C 62 % 1014,3 hPa 0,0 l/m 3,8 km/h NO 54 1 min 0,000 mm 4,5 UV-I 876 W/m 17,5 C 25,3 C 7,7 km/h 100,00 %
20.05.2022 13:50 25,4 C 61 % 1014,4 hPa 0,0 l/m 12,5 km/h O 80 1 min 0,000 mm 4,6 UV-I 892 W/m 17,3 C 24,2 C 21,0 km/h 100,00 %
20.05.2022 13:49 25,4 C 63 % 1014,4 hPa 0,0 l/m 13,5 km/h O 86 1 min 0,000 mm 4,7 UV-I 898 W/m 17,8 C 24,0 C 19,1 km/h 100,00 %
20.05.2022 13:48 25,3 C 63 % 1014,4 hPa 0,0 l/m 8,1 km/h O-SO 111 1 min 0,000 mm 4,7 UV-I 904 W/m 17,7 C 24,9 C 17,2 km/h 100,00 %
20.05.2022 13:47 25,2 C 62 % 1014,5 hPa 0,0 l/m 4,6 km/h O 89 1 min 0,000 mm 4,7 UV-I 911 W/m 17,4 C 25,2 C 9,6 km/h 100,00 %
20.05.2022 13:46 25,2 C 62 % 1014,5 hPa 0,0 l/m 9,4 km/h SO 127 1 min 0,000 mm 4,7 UV-I 906 W/m 17,4 C 24,5 C 13,4 km/h 100,00 %
20.05.2022 13:45 24,9 C 63 % 1014,6 hPa 0,0 l/m 5,8 km/h O-SO 123 1 min 0,000 mm 4,6 UV-I 908 W/m 17,4 C 24,9 C 7,7 km/h 100,00 %
20.05.2022 13:44 24,8 C 63 % 1014,6 hPa 0,0 l/m 5,1 km/h SO 124 1 min 0,000 mm 4,7 UV-I 932 W/m 17,3 C 24,8 C 11,5 km/h 100,00 %
20.05.2022 13:43 24,7 C 64 % 1014,6 hPa 0,0 l/m 5,0 km/h O 92 1 min 0,000 mm 4,6 UV-I 640 W/m 17,4 C 24,7 C 11,5 km/h 100,00 %
20.05.2022 13:42 24,6 C 64 % 1014,7 hPa 0,0 l/m 5,0 km/h N-NO 32 1 min 0,000 mm 4,4 UV-I 487 W/m 17,3 C 24,6 C 9,6 km/h 100,00 %
20.05.2022 13:41 24,6 C 63 % 1014,8 hPa 0,0 l/m 5,9 km/h N 5 1 min 0,000 mm 3,4 UV-I 545 W/m 17,1 C 24,6 C 9,6 km/h 100,00 %
20.05.2022 13:40 24,6 C 63 % 1014,8 hPa 0,0 l/m 8,6 km/h NO 55 1 min 0,000 mm 3,4 UV-I 953 W/m 17,1 C 24,0 C 15,3 km/h 93,33 %
20.05.2022 13:39 24,6 C 65 % 1014,8 hPa 0,0 l/m 2,2 km/h N-NO 32 1 min 0,000 mm 4,4 UV-I 955 W/m 17,6 C 24,6 C 3,8 km/h 100,00 %
20.05.2022 13:38 24,4 C 65 % 1014,8 hPa 0,0 l/m 7,3 km/h O-SO 105 1 min 0,000 mm 4,5 UV-I 879 W/m 17,4 C 24,2 C 15,3 km/h 100,00 %
20.05.2022 13:37 24,4 C 64 % 1014,8 hPa 0,0 l/m 3,7 km/h SO 136 1 min 0,000 mm 4,2 UV-I 812 W/m 17,1 C 24,4 C 7,7 km/h 100,00 %
20.05.2022 13:36 24,4 C 63 % 1014,9 hPa 0,0 l/m 12,5 km/h SO 140 1 min 0,000 mm 4,4 UV-I 519 W/m 16,9 C 23,0 C 19,1 km/h 100,00 %
20.05.2022 13:35 24,4 C 63 % 1015,0 hPa 0,0 l/m 11,0 km/h O-SO 105 1 min 0,000 mm 3,1 UV-I 449 W/m 16,9 C 23,3 C 17,2 km/h 100,00 %
20.05.2022 13:34 24,4 C 64 % 1015,0 hPa 0,0 l/m 7,7 km/h O-SO 111 1 min 0,000 mm 3,6 UV-I 466 W/m 17,1 C 24,0 C 13,4 km/h 100,00 %
20.05.2022 13:33 24,5 C 64 % 1015,1 hPa 0,0 l/m 10,9 km/h SO 127 1 min 0,000 mm 3,6 UV-I 466 W/m 17,2 C 23,4 C 17,2 km/h 100,00 %
20.05.2022 13:32 24,6 C 62 % 1015,1 hPa 0,0 l/m 14,0 km/h O 98 1 min 0,000 mm 2,9 UV-I 466 W/m 16,8 C 23,0 C 19,1 km/h 100,00 %
20.05.2022 13:31 24,6 C 63 % 1015,2 hPa 0,0 l/m 9,3 km/h O 83 1 min 0,000 mm 2,9 UV-I 480 W/m 17,1 C 23,9 C 17,2 km/h 100,00 %
20.05.2022 13:30 24,7 C 62 % 1015,2 hPa 0,0 l/m 7,4 km/h O-NO 76 1 min 0,000 mm 2,9 UV-I 489 W/m 16,9 C 24,4 C 13,4 km/h 100,00 %
20.05.2022 13:29 24,7 C 62 % 1015,3 hPa 0,0 l/m 7,2 km/h O 101 1 min 0,000 mm 3,0 UV-I 491 W/m 16,9 C 24,5 C 11,5 km/h 100,00 %
20.05.2022 13:28 24,8 C 62 % 1015,3 hPa 0,0 l/m 9,9 km/h O-SO 112 1 min 0,000 mm 3,1 UV-I 636 W/m 17,0 C 24,0 C 13,4 km/h 100,00 %
20.05.2022 13:27 24,8 C 62 % 1015,2 hPa 0,0 l/m 11,3 km/h NO 53 1 min 0,000 mm 3,4 UV-I 921 W/m 17,0 C 23,7 C 21,0 km/h 100,00 %
20.05.2022 13:26 24,8 C 64 % 1015,3 hPa 0,0 l/m 8,5 km/h O-SO 104 1 min 0,000 mm 4,0 UV-I 921 W/m 17,5 C 24,3 C 15,3 km/h 100,00 %
20.05.2022 13:25 24,7 C 63 % 1015,3 hPa 0,0 l/m 12,2 km/h O-SO 111 1 min 0,000 mm 4,6 UV-I 942 W/m 17,2 C 23,4 C 17,2 km/h 100,00 %
20.05.2022 13:24 24,7 C 63 % 1015,2 hPa 0,0 l/m 3,8 km/h N-NO 23 1 min 0,000 mm 4,5 UV-I 893 W/m 17,2 C 24,7 C 7,7 km/h 96,55 %
20.05.2022 13:23 24,7 C 62 % 1015,3 hPa 0,0 l/m 11,0 km/h O-SO 121 1 min 0,000 mm 4,4 UV-I 849 W/m 16,9 C 23,6 C 17,2 km/h 100,00 %
20.05.2022 13:22 24,7 C 63 % 1015,3 hPa 0,0 l/m 18,5 km/h O-NO 74 1 min 0,000 mm 4,3 UV-I 835 W/m 17,2 C 22,5 C 24,9 km/h 100,00 %
20.05.2022 13:21 24,6 C 64 % 1015,3 hPa 0,0 l/m 8,0 km/h O-SO 111 1 min 0,000 mm 4,4 UV-I 842 W/m 17,3 C 24,2 C 17,2 km/h 97,24 %
20.05.2022 13:20 24,4 C 63 % 1015,3 hPa 0,0 l/m 5,0 km/h SO 125 1 min 0,000 mm 4,4 UV-I 855 W/m 16,9 C 24,4 C 9,6 km/h 100,00 %
20.05.2022 13:19 24,3 C 65 % 1015,3 hPa 0,0 l/m 3,7 km/h O-NO 76 1 min 0,000 mm 4,4 UV-I 864 W/m 17,3 C 24,3 C 9,6 km/h 100,00 %
20.05.2022 13:18 24,2 C 65 % 1015,4 hPa 0,0 l/m 3,2 km/h SO 129 1 min 0,000 mm 4,4 UV-I 851 W/m 17,2 C 24,2 C 7,7 km/h 100,00 %
20.05.2022 13:17 24,2 C 64 % 1015,5 hPa 0,0 l/m 8,7 km/h SO 133 1 min 0,000 mm 4,4 UV-I 842 W/m 16,9 C 23,6 C 15,3 km/h 100,00 %
20.05.2022 13:16 24,2 C 65 % 1015,5 hPa 0,0 l/m 9,0 km/h O-SO 118 1 min 0,000 mm 4,3 UV-I 847 W/m 17,2 C 23,5 C 17,2 km/h 100,00 %
20.05.2022 13:15 24,1 C 64 % 1015,5 hPa 0,0 l/m 7,0 km/h O-NO 77 1 min 0,000 mm 4,4 UV-I 854 W/m 16,9 C 23,9 C 15,3 km/h 100,00 %
20.05.2022 13:14 24,0 C 64 % 1015,5 hPa 0,0 l/m 11,1 km/h N 360 1 min 0,000 mm 4,4 UV-I 848 W/m 16,8 C 22,8 C 19,1 km/h 100,00 %
20.05.2022 13:13 24,0 C 64 % 1015,5 hPa 0,0 l/m 7,2 km/h O 93 1 min 0,000 mm 4,3 UV-I 836 W/m 16,8 C 23,8 C 13,4 km/h 100,00 %
20.05.2022 13:12 23,9 C 65 % 1015,6 hPa 0,0 l/m 11,2 km/h O-SO 116 1 min 0,000 mm 4,3 UV-I 830 W/m 16,9 C 22,7 C 17,2 km/h 100,00 %
20.05.2022 13:11 24,0 C 63 % 1015,6 hPa 0,0 l/m 14,0 km/h O-SO 115 1 min 0,000 mm 4,3 UV-I 825 W/m 16,5 C 22,3 C 19,1 km/h 100,00 %
20.05.2022 13:10 24,0 C 64 % 1015,6 hPa 0,0 l/m 12,0 km/h O-SO 105 1 min 0,000 mm 4,3 UV-I 826 W/m 16,8 C 22,6 C 15,3 km/h 100,00 %
20.05.2022 13:09 24,0 C 63 % 1015,6 hPa 0,0 l/m 10,8 km/h O-SO 116 1 min 0,000 mm 4,3 UV-I 818 W/m 16,5 C 22,9 C 15,3 km/h 100,00 %
20.05.2022 13:08 24,1 C 64 % 1015,6 hPa 0,0 l/m 13,7 km/h O-SO 114 1 min 0,000 mm 4,3 UV-I 826 W/m 16,9 C 22,4 C 21,0 km/h 93,33 %
20.05.2022 13:07 24,1 C 63 % 1015,6 hPa 0,0 l/m 9,8 km/h SO 126 1 min 0,000 mm 4,3 UV-I 831 W/m 16,6 C 23,2 C 19,1 km/h 100,00 %
20.05.2022 13:06 24,1 C 63 % 1015,6 hPa 0,0 l/m 10,8 km/h O-SO 118 1 min 0,000 mm 4,4 UV-I 855 W/m 16,6 C 23,0 C 19,1 km/h 100,00 %
20.05.2022 13:05 24,2 C 62 % 1015,6 hPa 0,0 l/m 12,4 km/h NO 36 1 min 0,000 mm 4,5 UV-I 866 W/m 16,4 C 22,8 C 21,0 km/h 100,00 %
20.05.2022 13:04 24,2 C 62 % 1015,7 hPa 0,0 l/m 6,0 km/h N-NO 21 1 min 0,000 mm 4,4 UV-I 858 W/m 16,4 C 24,2 C 11,5 km/h 100,00 %
20.05.2022 13:03 24,3 C 63 % 1015,7 hPa 0,0 l/m 9,7 km/h N-NO 21 1 min 0,000 mm 4,4 UV-I 848 W/m 16,8 C 23,5 C 17,2 km/h 100,00 %
20.05.2022 13:02 24,2 C 63 % 1015,7 hPa 0,0 l/m 7,9 km/h O-SO 108 1 min 0,000 mm 4,3 UV-I 836 W/m 16,7 C 23,8 C 13,4 km/h 100,00 %
20.05.2022 13:01 24,1 C 63 % 1015,7 hPa 0,0 l/m 11,6 km/h O-SO 121 1 min 0,000 mm 4,3 UV-I 824 W/m 16,6 C 22,8 C 15,3 km/h 100,00 %
20.05.2022 13:00 24,1 C 63 % 1015,8 hPa 0,0 l/m 8,8 km/h O 84 1 min 0,508 mm 4,2 UV-I 813 W/m 16,6 C 23,5 C 17,2 km/h 100,00 %
20.05.2022 12:59 24,1 C 62 % 1015,8 hPa 0,0 l/m 11,5 km/h N-NO 22 1 min 0,000 mm 4,3 UV-I 841 W/m 16,4 C 22,9 C 19,1 km/h 100,00 %
20.05.2022 12:58 24,1 C 62 % 1015,8 hPa 0,0 l/m 8,2 km/h N 350 1 min 0,000 mm 4,4 UV-I 849 W/m 16,4 C 23,6 C 17,2 km/h 100,00 %
20.05.2022 12:57 23,9 C 62 % 1015,9 hPa 0,0 l/m 7,5 km/h O-NO 78 1 min 0,000 mm 4,4 UV-I 848 W/m 16,2 C 23,6 C 13,4 km/h 100,00 %
20.05.2022 12:56 23,8 C 62 % 1015,9 hPa 0,0 l/m 4,2 km/h O 90 1 min 0,000 mm 4,5 UV-I 852 W/m 16,1 C 23,8 C 11,5 km/h 100,00 %
20.05.2022 12:55 23,8 C 62 % 1016,0 hPa 0,0 l/m 7,3 km/h N 10 1 min 0,000 mm 4,5 UV-I 856 W/m 16,1 C 23,5 C 11,5 km/h 100,00 %
20.05.2022 12:54 23,8 C 61 % 1016,1 hPa 0,0 l/m 6,0 km/h O 87 1 min 0,000 mm 4,4 UV-I 848 W/m 15,8 C 23,8 C 11,5 km/h 100,00 %
20.05.2022 12:53 23,8 C 62 % 1016,1 hPa 0,0 l/m 5,7 km/h N 360 1 min 0,000 mm 4,4 UV-I 842 W/m 16,1 C 23,8 C 11,5 km/h 100,00 %
20.05.2022 12:52 23,8 C 62 % 1016,1 hPa 0,0 l/m 5,2 km/h N 355 1 min 0,000 mm 4,4 UV-I 835 W/m 16,1 C 23,8 C 9,6 km/h 100,00 %
20.05.2022 12:51 23,8 C 62 % 1016,1 hPa 0,0 l/m 6,7 km/h O 85 1 min 0,000 mm 4,4 UV-I 829 W/m 16,1 C 23,7 C 13,4 km/h 96,30 %
20.05.2022 12:50 23,8 C 62 % 1016,2 hPa 0,0 l/m 6,7 km/h N-NO 31 1 min 0,000 mm 4,4 UV-I 833 W/m 16,1 C 23,7 C 13,4 km/h 95,65 %
20.05.2022 12:49 23,7 C 61 % 1016,2 hPa 0,0 l/m 9,6 km/h O 83 1 min 0,000 mm 4,4 UV-I 826 W/m 15,7 C 22,8 C 17,2 km/h 92,59 %
20.05.2022 12:48 23,8 C 62 % 1016,2 hPa 0,0 l/m 6,5 km/h N 360 1 min 0,000 mm 4,4 UV-I 840 W/m 16,1 C 23,8 C 11,5 km/h 100,00 %
20.05.2022 12:47 23,7 C 62 % 1016,3 hPa 0,0 l/m 4,2 km/h NO 42 1 min 0,000 mm 4,4 UV-I 839 W/m 16,0 C 23,7 C 7,7 km/h 100,00 %
20.05.2022 12:46 23,7 C 62 % 1016,3 hPa 0,0 l/m 5,3 km/h O-NO 61 1 min 0,000 mm 4,4 UV-I 832 W/m 16,0 C 23,7 C 11,5 km/h 100,00 %
20.05.2022 12:45 23,7 C 61 % 1016,4 hPa 0,0 l/m 8,0 km/h N-NO 23 1 min 0,000 mm 4,3 UV-I 833 W/m 15,7 C 23,2 C 13,4 km/h 100,00 %
20.05.2022 12:44 23,6 C 61 % 1016,5 hPa 0,0 l/m 11,0 km/h O-SO 103 1 min 0,000 mm 4,3 UV-I 834 W/m 15,6 C 22,4 C 17,2 km/h 86,67 %
20.05.2022 12:43 23,6 C 62 % 1016,5 hPa 0,0 l/m 7,1 km/h O-NO 66 1 min 0,000 mm 4,4 UV-I 839 W/m 15,9 C 23,4 C 17,2 km/h 100,00 %
20.05.2022 12:42 23,4 C 62 % 1016,6 hPa 0,0 l/m 5,4 km/h N 360 1 min 0,000 mm 4,3 UV-I 840 W/m 15,7 C 23,4 C 9,6 km/h 100,00 %
20.05.2022 12:41 23,4 C 62 % 1016,7 hPa 0,0 l/m 3,0 km/h N 5 1 min 0,000 mm 4,3 UV-I 829 W/m 15,7 C 23,4 C 5,7 km/h 100,00 %
20.05.2022 12:40 23,3 C 62 % 1016,6 hPa 0,0 l/m 5,2 km/h N-NO 25 1 min 0,000 mm 4,3 UV-I 824 W/m 15,6 C 23,3 C 9,6 km/h 100,00 %
20.05.2022 12:39 23,2 C 62 % 1016,7 hPa 0,0 l/m 4,0 km/h O-NO 74 1 min 0,000 mm 4,2 UV-I 820 W/m 15,5 C 23,2 C 7,7 km/h 100,00 %
20.05.2022 12:38 23,1 C 62 % 1016,8 hPa 0,0 l/m 4,5 km/h O-SO 109 1 min 0,000 mm 4,2 UV-I 818 W/m 15,4 C 23,1 C 7,7 km/h 100,00 %
20.05.2022 12:37 23,1 C 61 % 1016,8 hPa 0,0 l/m 11,4 km/h O-NO 70 1 min 0,000 mm 4,3 UV-I 833 W/m 15,2 C 21,7 C 23,0 km/h 100,00 %
20.05.2022 12:36 23,0 C 61 % 1016,8 hPa 0,0 l/m 8,5 km/h O 86 1 min 0,000 mm 4,2 UV-I 833 W/m 15,1 C 22,4 C 19,1 km/h 100,00 %
20.05.2022 12:35 23,0 C 62 % 1016,9 hPa 0,0 l/m 3,0 km/h NO 45 1 min 0,000 mm 4,1 UV-I 787 W/m 15,3 C 23,0 C 5,7 km/h 97,06 %
20.05.2022 12:34 22,9 C 61 % 1016,9 hPa 0,0 l/m 6,2 km/h O 81 1 min 0,000 mm 4,2 UV-I 825 W/m 15,0 C 22,9 C 15,3 km/h 100,00 %
20.05.2022 12:33 22,9 C 59 % 1017,0 hPa 0,0 l/m 9,9 km/h O-NO 61 1 min 0,000 mm 4,3 UV-I 857 W/m 14,5 C 21,9 C 15,3 km/h 100,00 %
20.05.2022 12:32 23,2 C 60 % 1017,0 hPa 0,0 l/m 12,2 km/h N 360 1 min 0,000 mm 4,3 UV-I 867 W/m 15,0 C 21,7 C 19,1 km/h 100,00 %
20.05.2022 12:31 23,2 C 61 % 1017,0 hPa 0,0 l/m 5,2 km/h O-NO 61 1 min 0,000 mm 4,3 UV-I 870 W/m 15,3 C 23,2 C 9,6 km/h 100,00 %
20.05.2022 12:30 23,1 C 61 % 1017,1 hPa 0,0 l/m 2,9 km/h O-NO 67 1 min 0,000 mm 4,2 UV-I 866 W/m 15,2 C 23,1 C 5,7 km/h 100,00 %
20.05.2022 12:29 23,1 C 60 % 1017,2 hPa 0,0 l/m 3,5 km/h NO 51 1 min 0,000 mm 4,1 UV-I 861 W/m 14,9 C 23,1 C 9,6 km/h 100,00 %
20.05.2022 12:28 23,0 C 61 % 1017,2 hPa 0,0 l/m 4,4 km/h O-SO 108 1 min 0,000 mm 4,2 UV-I 900 W/m 15,1 C 23,0 C 7,7 km/h 100,00 %
20.05.2022 12:27 22,9 C 61 % 1017,2 hPa 0,0 l/m 5,8 km/h N-NO 30 1 min 0,000 mm 4,1 UV-I 926 W/m 15,0 C 22,9 C 11,5 km/h 100,00 %
20.05.2022 12:26 22,8 C 61 % 1017,2 hPa 0,0 l/m 5,1 km/h N-NO 23 1 min 0,000 mm 3,9 UV-I 926 W/m 14,9 C 22,8 C 13,4 km/h 100,00 %
20.05.2022 12:25 22,7 C 62 % 1017,3 hPa 0,0 l/m 5,6 km/h O 80 1 min 0,000 mm 3,9 UV-I 926 W/m 15,0 C 22,7 C 13,4 km/h 100,00 %
20.05.2022 12:24 22,6 C 62 % 1017,3 hPa 0,0 l/m 6,5 km/h N-NO 28 1 min 0,000 mm 3,4 UV-I 926 W/m 14,9 C 22,6 C 9,6 km/h 100,00 %
20.05.2022 12:23 22,4 C 62 % 1017,4 hPa 0,0 l/m 4,5 km/h O 85 1 min 0,000 mm 3,7 UV-I 933 W/m 14,8 C 22,4 C 9,6 km/h 100,00 %
20.05.2022 12:22 22,3 C 64 % 1017,4 hPa 0,0 l/m 8,7 km/h NO 36 1 min 0,000 mm 4,3 UV-I 967 W/m 15,2 C 21,6 C 21,0 km/h 96,30 %
20.05.2022 12:21 22,0 C 63 % 1017,5 hPa 0,0 l/m 5,0 km/h N-NO 28 1 min 0,000 mm 4,3 UV-I 651 W/m 14,6 C 22,0 C 9,6 km/h 93,33 %
20.05.2022 12:20 21,9 C 62 % 1017,5 hPa 0,0 l/m 3,4 km/h N 355 1 min 0,000 mm 4,0 UV-I 561 W/m 14,3 C 21,9 C 9,6 km/h 100,00 %
20.05.2022 12:19 21,9 C 62 % 1017,5 hPa 0,0 l/m 5,8 km/h N 360 1 min 0,000 mm 3,3 UV-I 482 W/m 14,3 C 21,9 C 9,6 km/h 96,30 %
20.05.2022 12:18 21,9 C 62 % 1017,6 hPa 0,0 l/m 8,4 km/h N-NO 14 1 min 0,000 mm 3,3 UV-I 482 W/m 14,3 C 21,2 C 13,4 km/h 100,00 %
20.05.2022 12:17 21,9 C 62 % 1017,6 hPa 0,0 l/m 7,7 km/h N 5 1 min 0,000 mm 3,2 UV-I 506 W/m 14,3 C 21,4 C 13,4 km/h 100,00 %
20.05.2022 12:16 21,8 C 61 % 1017,6 hPa 0,0 l/m 4,7 km/h O-NO 65 1 min 0,000 mm 3,0 UV-I 506 W/m 13,9 C 21,8 C 9,6 km/h 96,30 %
20.05.2022 12:15 21,8 C 62 % 1017,6 hPa 0,0 l/m 5,9 km/h O 87 1 min 0,000 mm 3,4 UV-I 452 W/m 14,2 C 21,8 C 11,5 km/h 79,17 %
20.05.2022 12:14 21,8 C 62 % 1017,6 hPa 0,0 l/m 5,3 km/h N 360 1 min 0,000 mm 3,3 UV-I 494 W/m 14,2 C 21,8 C 9,6 km/h 95,65 %
20.05.2022 12:13 21,9 C 61 % 1017,6 hPa 0,0 l/m 6,4 km/h N-NW 346 1 min 0,000 mm 3,8 UV-I 503 W/m 14,0 C 21,9 C 9,6 km/h 100,00 %
20.05.2022 12:12 22,1 C 60 % 1017,6 hPa 0,0 l/m 13,1 km/h N 5 1 min 0,000 mm 3,0 UV-I 490 W/m 14,0 C 20,2 C 19,1 km/h 100,00 %
20.05.2022 12:11 22,2 C 60 % 1017,7 hPa 0,0 l/m 11,0 km/h N 355 1 min 0,000 mm 2,9 UV-I 453 W/m 14,1 C 20,8 C 15,3 km/h 100,00 %
20.05.2022 12:10 22,4 C 60 % 1017,7 hPa 0,0 l/m 14,5 km/h N 5 1 min 0,000 mm 3,3 UV-I 671 W/m 14,2 C 20,3 C 19,1 km/h 93,75 %
20.05.2022 12:09 22,5 C 60 % 1017,8 hPa 0,0 l/m 4,4 km/h O-NO 72 1 min 0,000 mm 3,8 UV-I 946 W/m 14,3 C 22,5 C 7,7 km/h 100,00 %
20.05.2022 12:08 22,6 C 60 % 1017,8 hPa 0,0 l/m 7,7 km/h O-NO 60 1 min 0,000 mm 3,7 UV-I 946 W/m 14,4 C 22,2 C 15,3 km/h 100,00 %
20.05.2022 12:07 22,6 C 60 % 1017,9 hPa 0,0 l/m 9,2 km/h NO 50 1 min 0,000 mm 4,1 UV-I 948 W/m 14,4 C 21,7 C 21,0 km/h 100,00 %
20.05.2022 12:06 22,6 C 60 % 1017,8 hPa 0,0 l/m 4,0 km/h N-NO 21 1 min 0,000 mm 4,2 UV-I 942 W/m 14,4 C 22,6 C 7,7 km/h 100,00 %
20.05.2022 12:05 22,5 C 61 % 1017,8 hPa 0,0 l/m 4,9 km/h N 5 1 min 0,000 mm 4,2 UV-I 918 W/m 14,6 C 22,5 C 11,5 km/h 100,00 %
20.05.2022 12:04 22,4 C 61 % 1017,8 hPa 0,0 l/m 2,4 km/h O-SO 103 1 min 0,000 mm 4,1 UV-I 913 W/m 14,5 C 22,4 C 7,7 km/h 100,00 %
20.05.2022 12:03 22,3 C 61 % 1017,8 hPa 0,0 l/m 5,2 km/h O-SO 111 1 min 0,000 mm 4,0 UV-I 815 W/m 14,4 C 22,3 C 7,7 km/h 100,00 %
20.05.2022 12:02 22,2 C 61 % 1017,8 hPa 0,0 l/m 4,4 km/h O-SO 104 1 min 0,000 mm 3,7 UV-I 788 W/m 14,3 C 22,2 C 7,7 km/h 96,30 %
20.05.2022 12:01 22,1 C 63 % 1017,8 hPa 0,0 l/m 3,9 km/h O-SO 116 1 min 0,000 mm 3,6 UV-I 788 W/m 14,7 C 22,1 C 11,5 km/h 95,65 %
20.05.2022 12:00 22,0 C 62 % 1017,7 hPa 0,0 l/m 3,3 km/h O 96 1 min 0,356 mm 3,2 UV-I 788 W/m 14,4 C 22,0 C 7,7 km/h 100,00 %
20.05.2022 11:59 21,9 C 62 % 1017,8 hPa 0,0 l/m 5,0 km/h N-NO 32 1 min 0,000 mm 3,1 UV-I 788 W/m 14,3 C 21,9 C 9,6 km/h 100,00 %
20.05.2022 11:58 21,8 C 62 % 1017,8 hPa 0,0 l/m 3,8 km/h N 360 1 min 0,000 mm 3,6 UV-I 788 W/m 14,2 C 21,8 C 5,7 km/h 100,00 %
20.05.2022 11:57 21,7 C 63 % 1017,9 hPa 0,0 l/m 4,3 km/h O 81 1 min 0,000 mm 3,6 UV-I 788 W/m 14,3 C 21,7 C 9,6 km/h 100,00 %
20.05.2022 11:56 21,6 C 63 % 1017,8 hPa 0,0 l/m 8,2 km/h NO 34 1 min 0,000 mm 3,8 UV-I 790 W/m 14,2 C 21,0 C 15,3 km/h 100,00 %
20.05.2022 11:55 21,4 C 63 % 1017,9 hPa 0,0 l/m 11,8 km/h O-NO 75 1 min 0,000 mm 3,9 UV-I 834 W/m 14,1 C 19,7 C 19,1 km/h 100,00 %
20.05.2022 11:54 21,3 C 64 % 1017,9 hPa 0,0 l/m 2,6 km/h O-SO 103 1 min 0,000 mm 3,9 UV-I 820 W/m 14,2 C 21,3 C 7,7 km/h 100,00 %
20.05.2022 11:53 21,2 C 63 % 1017,9 hPa 0,0 l/m 8,8 km/h N 5 1 min 0,000 mm 4,0 UV-I 817 W/m 13,9 C 20,3 C 15,3 km/h 100,00 %
20.05.2022 11:52 21,3 C 62 % 1017,9 hPa 0,0 l/m 6,2 km/h N 355 1 min 0,000 mm 4,0 UV-I 829 W/m 13,7 C 21,3 C 11,5 km/h 100,00 %
20.05.2022 11:51 21,3 C 62 % 1017,9 hPa 0,0 l/m 6,2 km/h N-NO 15 1 min 0,000 mm 4,0 UV-I 842 W/m 13,7 C 21,3 C 9,6 km/h 100,00 %
20.05.2022 11:50 21,5 C 61 % 1018,0 hPa 0,0 l/m 11,0 km/h N 360 1 min 0,000 mm 4,0 UV-I 832 W/m 13,7 C 20,0 C 17,2 km/h 100,00 %
20.05.2022 11:49 21,7 C 62 % 1018,1 hPa 0,0 l/m 10,0 km/h N 355 1 min 0,000 mm 3,9 UV-I 810 W/m 14,1 C 20,5 C 17,2 km/h 100,00 %
20.05.2022 11:48 21,7 C 61 % 1018,0 hPa 0,0 l/m 1,4 km/h N 360 1 min 0,000 mm 3,7 UV-I 758 W/m 13,8 C 21,7 C 3,8 km/h 100,00 %
20.05.2022 11:47 21,6 C 62 % 1018,1 hPa 0,0 l/m 8,0 km/h N 360 1 min 0,000 mm 3,8 UV-I 784 W/m 14,0 C 21,0 C 11,5 km/h 95,83 %
20.05.2022 11:46 21,6 C 62 % 1018,1 hPa 0,0 l/m 6,6 km/h N 5 1 min 0,000 mm 3,9 UV-I 472 W/m 14,0 C 21,5 C 13,4 km/h 96,15 %
20.05.2022 11:45 21,6 C 62 % 1018,1 hPa 0,0 l/m 4,5 km/h N 355 0 min 0,000 mm 3,8 UV-I 258 W/m 14,0 C 21,6 C 15,3 km/h 92,59 %
20.05.2022 11:44 21,6 C 62 % 1018,2 hPa 0,0 l/m 2,0 km/h N 355 0 min 0,000 mm 2,7 UV-I 258 W/m 14,0 C 21,6 C 3,8 km/h 95,65 %
20.05.2022 11:43 21,5 C 62 % 1018,2 hPa 0,0 l/m 3,4 km/h N-NW 333 0 min 0,000 mm 2,5 UV-I 265 W/m 13,9 C 21,5 C 7,7 km/h 100,00 %
20.05.2022 11:42 21,4 C 62 % 1018,3 hPa 0,0 l/m 5,2 km/h O 92 1 min 0,000 mm 2,6 UV-I 462 W/m 13,8 C 21,4 C 7,7 km/h 100,00 %
20.05.2022 11:41 21,3 C 63 % 1018,3 hPa 0,0 l/m 6,8 km/h O 80 1 min 0,000 mm 3,3 UV-I 784 W/m 14,0 C 21,2 C 13,4 km/h 100,00 %
20.05.2022 11:40 21,2 C 63 % 1018,3 hPa 0,0 l/m 3,7 km/h NO 53 1 min 0,000 mm 3,3 UV-I 740 W/m 13,9 C 21,2 C 9,6 km/h 100,00 %
20.05.2022 11:39 21,1 C 63 % 1018,3 hPa 0,0 l/m 0,5 km/h N 360 1 min 0,000 mm 3,5 UV-I 710 W/m 13,8 C 21,1 C 1,9 km/h 100,00 %
20.05.2022 11:38 21,1 C 63 % 1018,4 hPa 0,0 l/m 5,2 km/h N 360 1 min 0,000 mm 3,4 UV-I 697 W/m 13,8 C 21,1 C 9,6 km/h 100,00 %
20.05.2022 11:37 21,0 C 62 % 1018,4 hPa 0,0 l/m 3,1 km/h O-NO 63 1 min 0,000 mm 3,2 UV-I 410 W/m 13,4 C 21,0 C 5,7 km/h 100,00 %
20.05.2022 11:36 20,9 C 63 % 1018,4 hPa 0,0 l/m 5,8 km/h O-NO 73 1 min 0,000 mm 3,1 UV-I 410 W/m 13,6 C 20,9 C 11,5 km/h 100,00 %
20.05.2022 11:35 20,9 C 63 % 1018,4 hPa 0,0 l/m 4,8 km/h O-NO 65 1 min 0,000 mm 2,7 UV-I 410 W/m 13,6 C 20,9 C 9,6 km/h 100,00 %
20.05.2022 11:34 20,9 C 62 % 1018,4 hPa 0,0 l/m 6,2 km/h N-NO 13 1 min 0,000 mm 2,4 UV-I 375 W/m 13,3 C 20,9 C 9,6 km/h 92,59 %
20.05.2022 11:33 20,9 C 63 % 1018,5 hPa 0,0 l/m 9,8 km/h O 100 1 min 0,000 mm 2,4 UV-I 375 W/m 13,6 C 19,7 C 17,2 km/h 100,00 %
20.05.2022 11:32 20,8 C 64 % 1018,5 hPa 0,0 l/m 8,0 km/h O 84 1 min 0,000 mm 2,6 UV-I 475 W/m 13,7 C 20,2 C 15,3 km/h 96,55 %
20.05.2022 11:31 20,7 C 65 % 1018,5 hPa 0,0 l/m 5,1 km/h O 89 1 min 0,000 mm 2,7 UV-I 549 W/m 13,9 C 20,7 C 11,5 km/h 100,00 %
20.05.2022 11:30 20,6 C 64 % 1018,5 hPa 0,0 l/m 6,3 km/h N 9 1 min 0,000 mm 2,8 UV-I 542 W/m 13,5 C 20,6 C 11,5 km/h 100,00 %
20.05.2022 11:29 20,6 C 65 % 1018,5 hPa 0,0 l/m 2,8 km/h N 360 1 min 0,000 mm 2,7 UV-I 461 W/m 13,8 C 20,6 C 7,7 km/h 96,82 %
20.05.2022 11:28 20,5 C 65 % 1018,5 hPa 0,0 l/m 1,2 km/h O-NO 71 1 min 0,000 mm 2,7 UV-I 431 W/m 13,7 C 20,5 C 3,8 km/h 100,00 %
20.05.2022 11:27 20,4 C 64 % 1018,6 hPa 0,0 l/m 6,1 km/h O-NO 63 1 min 0,000 mm 2,5 UV-I 443 W/m 13,4 C 20,4 C 13,4 km/h 100,00 %
20.05.2022 11:26 20,4 C 64 % 1018,6 hPa 0,0 l/m 7,4 km/h N-NO 13 1 min 0,000 mm 2,3 UV-I 430 W/m 13,4 C 20,0 C 13,4 km/h 100,00 %
20.05.2022 11:25 20,4 C 64 % 1018,6 hPa 0,0 l/m 5,5 km/h O-NO 58 1 min 0,000 mm 2,3 UV-I 513 W/m 13,4 C 20,4 C 7,7 km/h 100,00 %
20.05.2022 11:24 20,5 C 64 % 1018,6 hPa 0,0 l/m 6,0 km/h N 360 1 min 0,000 mm 2,5 UV-I 551 W/m 13,5 C 20,5 C 11,5 km/h 96,78 %
20.05.2022 11:23 20,4 C 65 % 1018,6 hPa 0,0 l/m 4,1 km/h N 5 1 min 0,000 mm 2,6 UV-I 606 W/m 13,6 C 20,4 C 9,6 km/h 92,86 %
20.05.2022 11:22 20,3 C 66 % 1018,6 hPa 0,0 l/m 5,5 km/h N 355 1 min 0,000 mm 2,9 UV-I 632 W/m 13,7 C 20,3 C 11,5 km/h 100,00 %
20.05.2022 11:21 20,2 C 67 % 1018,6 hPa 0,0 l/m 3,0 km/h N 355 1 min 0,000 mm 2,9 UV-I 630 W/m 13,9 C 20,2 C 11,5 km/h 95,65 %
20.05.2022 11:20 20,1 C 66 % 1018,7 hPa 0,0 l/m 0,6 km/h N-NO 17 1 min 0,000 mm 2,6 UV-I 558 W/m 13,5 C 20,1 C 1,9 km/h 100,00 %
20.05.2022 11:19 20,1 C 65 % 1018,6 hPa 0,0 l/m 7,0 km/h N-NO 17 1 min 0,000 mm 2,4 UV-I 474 W/m 13,3 C 19,9 C 9,6 km/h 100,00 %
20.05.2022 11:18 20,0 C 65 % 1018,6 hPa 0,0 l/m 6,9 km/h O 86 1 min 0,000 mm 2,2 UV-I 434 W/m 13,2 C 19,8 C 15,3 km/h 96,30 %
20.05.2022 11:17 20,1 C 65 % 1018,6 hPa 0,0 l/m 12,1 km/h N 360 1 min 0,000 mm 2,3 UV-I 440 W/m 13,3 C 18,1 C 19,1 km/h 100,00 %
20.05.2022 11:16 20,1 C 65 % 1018,6 hPa 0,0 l/m 10,0 km/h N-NO 19 1 min 0,000 mm 2,2 UV-I 422 W/m 13,3 C 18,8 C 15,3 km/h 100,00 %
20.05.2022 11:15 20,2 C 64 % 1018,6 hPa 0,0 l/m 10,3 km/h N-NO 18 1 min 0,000 mm 2,1 UV-I 390 W/m 13,2 C 18,8 C 17,2 km/h 100,00 %
20.05.2022 11:14 20,2 C 64 % 1018,6 hPa 0,0 l/m 7,9 km/h N-NO 12 1 min 0,000 mm 2,0 UV-I 368 W/m 13,2 C 19,6 C 13,4 km/h 95,83 %
20.05.2022 11:13 20,3 C 65 % 1018,6 hPa 0,0 l/m 7,1 km/h N 5 1 min 0,000 mm 2,0 UV-I 360 W/m 13,5 C 20,0 C 15,3 km/h 100,00 %
20.05.2022 11:12 20,2 C 65 % 1018,7 hPa 0,0 l/m 4,0 km/h N-NO 16 1 min 0,000 mm 1,9 UV-I 346 W/m 13,4 C 20,2 C 5,7 km/h 100,00 %
20.05.2022 11:11 20,2 C 67 % 1018,7 hPa 0,0 l/m 2,9 km/h N 355 1 min 0,000 mm 1,9 UV-I 334 W/m 13,9 C 20,2 C 7,7 km/h 100,00 %
20.05.2022 11:10 20,1 C 66 % 1018,7 hPa 0,0 l/m 1,9 km/h O-NO 78 1 min 0,000 mm 1,9 UV-I 339 W/m 13,5 C 20,1 C 3,8 km/h 100,00 %
20.05.2022 11:09 20,1 C 66 % 1018,7 hPa 0,0 l/m 3,6 km/h N 355 1 min 0,000 mm 1,9 UV-I 331 W/m 13,5 C 20,1 C 7,7 km/h 95,83 %
20.05.2022 11:08 20,0 C 66 % 1018,7 hPa 0,0 l/m 6,3 km/h N 5 1 min 0,000 mm 1,9 UV-I 336 W/m 13,4 C 20,0 C 11,5 km/h 100,00 %
20.05.2022 11:07 20,0 C 65 % 1018,7 hPa 0,0 l/m 6,6 km/h N 9 1 min 0,000 mm 2,1 UV-I 368 W/m 13,2 C 19,9 C 15,3 km/h 100,00 %
20.05.2022 11:06 20,1 C 64 % 1018,8 hPa 0,0 l/m 11,2 km/h N-NO 14 1 min 0,000 mm 2,1 UV-I 362 W/m 13,1 C 18,4 C 19,1 km/h 95,65 %
20.05.2022 11:05 20,3 C 64 % 1018,8 hPa 0,0 l/m 9,9 km/h N-NO 12 1 min 0,000 mm 2,0 UV-I 436 W/m 13,3 C 19,0 C 15,3 km/h 100,00 %
20.05.2022 11:04 20,4 C 63 % 1018,8 hPa 0,0 l/m 9,7 km/h N 5 1 min 0,000 mm 2,3 UV-I 497 W/m 13,1 C 19,2 C 13,4 km/h 100,00 %
20.05.2022 11:03 20,6 C 63 % 1018,8 hPa 0,0 l/m 9,5 km/h N 360 1 min 0,000 mm 2,4 UV-I 525 W/m 13,3 C 19,5 C 11,5 km/h 100,00 %
20.05.2022 11:02 20,6 C 63 % 1018,9 hPa 0,0 l/m 2,6 km/h N 360 1 min 0,000 mm 2,3 UV-I 470 W/m 13,3 C 20,6 C 7,7 km/h 96,15 %
20.05.2022 11:01 20,6 C 63 % 1018,9 hPa 0,0 l/m 5,3 km/h N 5 1 min 0,330 mm 2,2 UV-I 437 W/m 13,3 C 20,6 C 9,6 km/h 100,00 %
20.05.2022 11:00 20,7 C 64 % 1018,8 hPa 0,0 l/m 7,3 km/h N 350 1 min 0,000 mm 2,0 UV-I 443 W/m 13,6 C 20,4 C 15,3 km/h 100,00 %
20.05.2022 10:59 20,6 C 63 % 1018,8 hPa 0,0 l/m 5,7 km/h N-NO 26 1 min 0,000 mm 2,1 UV-I 459 W/m 13,3 C 20,6 C 9,6 km/h 100,00 %
20.05.2022 10:58 20,6 C 64 % 1018,9 hPa 0,0 l/m 5,0 km/h N 349 1 min 0,000 mm 2,3 UV-I 495 W/m 13,5 C 20,6 C 13,4 km/h 95,45 %
20.05.2022 10:57 20,4 C 64 % 1019,0 hPa 0,0 l/m 9,8 km/h O 82 1 min 0,000 mm 2,4 UV-I 518 W/m 13,4 C 19,1 C 17,2 km/h 96,67 %
20.05.2022 10:56 20,4 C 65 % 1019,0 hPa 0,0 l/m 4,4 km/h O 92 1 min 0,000 mm 2,4 UV-I 513 W/m 13,6 C 20,4 C 11,5 km/h 100,00 %
20.05.2022 10:55 20,3 C 64 % 1019,0 hPa 0,0 l/m 3,0 km/h O 88 1 min 0,000 mm 2,4 UV-I 501 W/m 13,3 C 20,3 C 5,7 km/h 100,00 %
20.05.2022 10:54 20,2 C 64 % 1019,0 hPa 0,0 l/m 7,1 km/h O 88 1 min 0,000 mm 2,5 UV-I 553 W/m 13,2 C 19,9 C 11,5 km/h 92,86 %
20.05.2022 10:53 20,1 C 63 % 1019,1 hPa 0,0 l/m 5,5 km/h O 101 1 min 0,000 mm 2,5 UV-I 552 W/m 12,8 C 20,1 C 13,4 km/h 91,67 %
20.05.2022 10:52 20,1 C 63 % 1019,1 hPa 0,0 l/m 7,8 km/h N 355 1 min 0,000 mm 2,6 UV-I 563 W/m 12,8 C 19,5 C 9,6 km/h 96,55 %
20.05.2022 10:51 20,2 C 63 % 1019,1 hPa 0,0 l/m 8,2 km/h N 360 1 min 0,000 mm 2,5 UV-I 558 W/m 12,9 C 19,5 C 11,5 km/h 95,83 %
20.05.2022 10:50 20,3 C 62 % 1019,1 hPa 0,0 l/m 8,9 km/h N 5 1 min 0,000 mm 2,5 UV-I 554 W/m 12,8 C 19,3 C 17,2 km/h 97,37 %
20.05.2022 10:49 20,4 C 61 % 1019,1 hPa 0,0 l/m 10,0 km/h N 9 1 min 0,000 mm 2,4 UV-I 534 W/m 12,6 C 19,1 C 15,3 km/h 100,00 %
20.05.2022 10:48 20,6 C 61 % 1019,2 hPa 0,0 l/m 1,9 km/h N 360 1 min 0,000 mm 2,3 UV-I 485 W/m 12,8 C 20,6 C 5,7 km/h 100,00 %
20.05.2022 10:47 20,7 C 59 % 1019,1 hPa 0,0 l/m 10,8 km/h N-NO 14 1 min 0,000 mm 2,4 UV-I 504 W/m 12,4 C 19,2 C 15,3 km/h 96,15 %
20.05.2022 10:46 20,9 C 60 % 1019,1 hPa 0,0 l/m 10,4 km/h N 5 1 min 0,000 mm 2,4 UV-I 504 W/m 12,8 C 19,5 C 15,3 km/h 100,00 %
20.05.2022 10:45 21,1 C 60 % 1019,2 hPa 0,0 l/m 6,4 km/h N 5 1 min 0,000 mm 2,4 UV-I 506 W/m 13,0 C 21,1 C 15,3 km/h 100,00 %
20.05.2022 10:44 21,0 C 61 % 1019,2 hPa 0,0 l/m 2,1 km/h N-NO 32 1 min 0,000 mm 2,3 UV-I 451 W/m 13,2 C 21,0 C 5,7 km/h 96,30 %
20.05.2022 10:43 21,0 C 61 % 1019,2 hPa 0,0 l/m 5,6 km/h N 5 1 min 0,000 mm 2,3 UV-I 532 W/m 13,2 C 21,0 C 9,6 km/h 100,00 %
20.05.2022 10:42 20,9 C 61 % 1019,2 hPa 0,0 l/m 4,0 km/h N-NO 22 1 min 0,000 mm 2,6 UV-I 661 W/m 13,1 C 20,9 C 7,7 km/h 100,00 %
20.05.2022 10:41 20,9 C 61 % 1019,2 hPa 0,0 l/m 2,8 km/h SO 136 1 min 0,000 mm 2,9 UV-I 701 W/m 13,1 C 20,9 C 7,7 km/h 95,65 %
20.05.2022 10:40 20,8 C 61 % 1019,2 hPa 0,0 l/m 6,3 km/h O-NO 72 1 min 0,000 mm 2,9 UV-I 701 W/m 13,0 C 20,8 C 17,2 km/h 95,83 %
20.05.2022 10:39 20,8 C 61 % 1019,2 hPa 0,0 l/m 5,0 km/h N-NO 16 1 min 0,000 mm 2,9 UV-I 682 W/m 13,0 C 20,8 C 5,7 km/h 100,00 %
20.05.2022 10:38 20,7 C 61 % 1019,1 hPa 0,0 l/m 1,0 km/h N-NO 23 1 min 0,000 mm 2,8 UV-I 614 W/m 12,9 C 20,7 C 3,8 km/h 100,00 %
20.05.2022 10:37 20,7 C 62 % 1019,2 hPa 0,0 l/m 2,2 km/h N-NO 25 1 min 0,000 mm 2,7 UV-I 624 W/m 13,2 C 20,7 C 7,7 km/h 96,15 %
20.05.2022 10:36 20,6 C 61 % 1019,2 hPa 0,0 l/m 0,5 km/h O-NO 69 1 min 0,000 mm 2,6 UV-I 601 W/m 12,8 C 20,6 C 1,9 km/h 100,00 %
20.05.2022 10:35 20,6 C 61 % 1019,2 hPa 0,0 l/m 2,7 km/h O-NO 70 1 min 0,000 mm 2,6 UV-I 590 W/m 12,8 C 20,6 C 5,7 km/h 96,15 %
20.05.2022 10:34 20,6 C 61 % 1019,2 hPa 0,0 l/m 4,1 km/h NO 34 1 min 0,000 mm 2,5 UV-I 546 W/m 12,8 C 20,6 C 5,7 km/h 100,00 %
20.05.2022 10:33 20,6 C 62 % 1019,2 hPa 0,0 l/m 7,3 km/h O 96 1 min 0,000 mm 2,4 UV-I 520 W/m 13,1 C 20,2 C 13,4 km/h 100,00 %
20.05.2022 10:32 20,5 C 62 % 1019,2 hPa 0,0 l/m 4,2 km/h O-SO 110 1 min 0,000 mm 2,4 UV-I 531 W/m 13,0 C 20,5 C 13,4 km/h 96,15 %
20.05.2022 10:31 20,4 C 62 % 1019,2 hPa 0,0 l/m 4,7 km/h O 82 1 min 0,000 mm 2,3 UV-I 508 W/m 12,9 C 20,4 C 9,6 km/h 76,00 %
20.05.2022 10:30 20,3 C 63 % 1019,3 hPa 0,0 l/m 3,1 km/h O 82 1 min 0,000 mm 2,3 UV-I 509 W/m 13,0 C 20,3 C 11,5 km/h 73,08 %
20.05.2022 10:29 20,2 C 63 % 1019,3 hPa 0,0 l/m 4,3 km/h NO 45 1 min 0,000 mm 2,3 UV-I 496 W/m 12,9 C 20,2 C 5,7 km/h 96,30 %
20.05.2022 10:28 20,2 C 63 % 1019,3 hPa 0,0 l/m 6,9 km/h N 355 1 min 0,000 mm 2,3 UV-I 488 W/m 12,9 C 20,0 C 13,4 km/h 95,65 %
20.05.2022 10:27 20,1 C 63 % 1019,3 hPa 0,0 l/m 1,5 km/h O 93 1 min 0,000 mm 2,4 UV-I 548 W/m 12,8 C 20,1 C 3,8 km/h 95,83 %
20.05.2022 10:26 20,0 C 63 % 1019,3 hPa 0,0 l/m 2,2 km/h O 84 1 min 0,000 mm 2,5 UV-I 570 W/m 12,7 C 20,0 C 5,7 km/h 96,15 %
20.05.2022 10:25 19,9 C 64 % 1019,3 hPa 0,0 l/m 1,9 km/h O 96 1 min 0,000 mm 2,4 UV-I 525 W/m 12,9 C 19,9 C 5,7 km/h 100,00 %
20.05.2022 10:24 19,8 C 63 % 1019,3 hPa 0,0 l/m 1,9 km/h N-NW 346 1 min 0,000 mm 2,4 UV-I 543 W/m 12,5 C 19,8 C 5,7 km/h 97,56 %
20.05.2022 10:23 19,8 C 63 % 1019,3 hPa 0,0 l/m 6,6 km/h N-NO 13 1 min 0,000 mm 2,4 UV-I 561 W/m 12,5 C 19,7 C 9,6 km/h 93,33 %
20.05.2022 10:22 19,8 C 63 % 1019,3 hPa 0,0 l/m 3,2 km/h N-NO 22 1 min 0,000 mm 2,3 UV-I 386 W/m 12,5 C 19,8 C 5,7 km/h 90,91 %
20.05.2022 10:21 19,8 C 63 % 1019,4 hPa 0,0 l/m 6,5 km/h N-NO 29 1 min 0,000 mm 2,2 UV-I 377 W/m 12,5 C 19,8 C 11,5 km/h 95,83 %
20.05.2022 10:20 19,8 C 63 % 1019,4 hPa 0,0 l/m 4,8 km/h N 11 1 min 0,000 mm 2,1 UV-I 408 W/m 12,5 C 19,8 C 11,5 km/h 86,96 %
20.05.2022 10:19 19,8 C 62 % 1019,5 hPa 0,0 l/m 4,1 km/h N-NO 32 1 min 0,000 mm 2,0 UV-I 377 W/m 12,3 C 19,8 C 15,3 km/h 96,67 %
20.05.2022 10:18 19,8 C 61 % 1019,5 hPa 0,0 l/m 7,9 km/h N 360 1 min 0,000 mm 1,9 UV-I 348 W/m 12,1 C 19,2 C 15,3 km/h 96,15 %
20.05.2022 10:17 19,9 C 61 % 1019,5 hPa 0,0 l/m 10,3 km/h N-NO 30 1 min 0,000 mm 1,9 UV-I 354 W/m 12,2 C 18,4 C 17,2 km/h 100,00 %
20.05.2022 10:16 19,9 C 61 % 1019,5 hPa 0,0 l/m 5,7 km/h O-NO 61 1 min 0,000 mm 2,1 UV-I 395 W/m 12,2 C 19,9 C 13,4 km/h 100,00 %
20.05.2022 10:15 19,9 C 62 % 1019,5 hPa 0,0 l/m 4,7 km/h N-NO 19 1 min 0,000 mm 2,3 UV-I 459 W/m 12,4 C 19,9 C 13,4 km/h 96,15 %
20.05.2022 10:14 19,8 C 64 % 1019,5 hPa 0,0 l/m 1,1 km/h O-SO 110 1 min 0,000 mm 2,2 UV-I 534 W/m 12,8 C 19,8 C 3,8 km/h 96,15 %
20.05.2022 10:13 19,7 C 64 % 1019,5 hPa 0,0 l/m 3,8 km/h O 90 1 min 0,000 mm 2,4 UV-I 566 W/m 12,7 C 19,7 C 5,7 km/h 96,30 %
20.05.2022 10:12 19,6 C 65 % 1019,5 hPa 0,0 l/m 4,4 km/h O-NO 72 1 min 0,000 mm 2,4 UV-I 497 W/m 12,8 C 19,6 C 7,7 km/h 100,00 %
20.05.2022 10:11 19,4 C 66 % 1019,5 hPa 0,0 l/m 3,8 km/h N-NO 16 1 min 0,000 mm 2,2 UV-I 626 W/m 12,9 C 19,4 C 9,6 km/h 100,00 %
20.05.2022 10:10 19,3 C 66 % 1019,5 hPa 0,0 l/m 3,0 km/h N-NO 14 1 min 0,000 mm 2,5 UV-I 657 W/m 12,8 C 19,3 C 7,7 km/h 95,65 %
20.05.2022 10:09 19,2 C 65 % 1019,5 hPa 0,0 l/m 2,6 km/h NO 42 1 min 0,000 mm 2,6 UV-I 663 W/m 12,5 C 19,2 C 5,7 km/h 95,83 %
20.05.2022 10:08 19,2 C 65 % 1019,5 hPa 0,0 l/m 4,9 km/h NO 45 1 min 0,000 mm 2,5 UV-I 649 W/m 12,5 C 19,2 C 9,6 km/h 100,00 %
20.05.2022 10:07 19,1 C 65 % 1019,5 hPa 0,0 l/m 4,2 km/h N 360 1 min 0,000 mm 2,5 UV-I 640 W/m 12,4 C 19,1 C 7,7 km/h 100,00 %
20.05.2022 10:06 19,2 C 63 % 1019,5 hPa 0,0 l/m 13,7 km/h N 5 1 min 0,000 mm 2,5 UV-I 636 W/m 12,0 C 16,6 C 21,0 km/h 100,00 %
20.05.2022 10:05 19,4 C 63 % 1019,5 hPa 0,0 l/m 17,2 km/h N 360 1 min 0,000 mm 2,4 UV-I 593 W/m 12,2 C 16,0 C 21,0 km/h 95,65 %
20.05.2022 10:04 19,6 C 64 % 1019,5 hPa 0,0 l/m 10,6 km/h N 5 1 min 0,000 mm 2,4 UV-I 608 W/m 12,6 C 18,0 C 15,3 km/h 100,00 %
20.05.2022 10:03 19,6 C 66 % 1019,5 hPa 0,0 l/m 4,3 km/h N 9 1 min 0,000 mm 2,4 UV-I 602 W/m 13,1 C 19,6 C 7,7 km/h 100,00 %
20.05.2022 10:02 19,5 C 65 % 1019,6 hPa 0,0 l/m 2,6 km/h O-NO 60 1 min 0,000 mm 2,4 UV-I 596 W/m 12,7 C 19,5 C 11,5 km/h 100,00 %
20.05.2022 10:01 19,4 C 66 % 1019,5 hPa 0,0 l/m 7,7 km/h O 99 1 min 0,000 mm 2,4 UV-I 584 W/m 12,9 C 18,8 C 17,2 km/h 92,31 %
20.05.2022 10:00 19,3 C 66 % 1019,5 hPa 0,0 l/m 3,0 km/h O-SO 114 1 min 0,280 mm 2,3 UV-I 582 W/m 12,8 C 19,3 C 3,8 km/h 96,00 %
20.05.2022 09:59 19,3 C 65 % 1019,6 hPa 0,0 l/m 3,6 km/h SO 125 1 min 0,000 mm 2,3 UV-I 577 W/m 12,6 C 19,3 C 5,7 km/h 100,00 %
20.05.2022 09:58 19,2 C 65 % 1019,6 hPa 0,0 l/m 3,6 km/h NO 48 1 min 0,000 mm 2,4 UV-I 597 W/m 12,5 C 19,2 C 5,7 km/h 100,00 %
20.05.2022 09:57 19,1 C 68 % 1019,6 hPa 0,0 l/m 6,0 km/h O-NO 67 1 min 0,000 mm 2,4 UV-I 610 W/m 13,1 C 19,1 C 11,5 km/h 96,55 %
20.05.2022 09:56 19,0 C 70 % 1019,6 hPa 0,0 l/m 3,7 km/h NO 40 1 min 0,000 mm 2,3 UV-I 607 W/m 13,4 C 19,0 C 5,7 km/h 96,67 %
20.05.2022 09:55 18,9 C 71 % 1019,6 hPa 0,0 l/m 3,8 km/h O-NO 72 1 min 0,000 mm 2,3 UV-I 602 W/m 13,5 C 18,9 C 11,5 km/h 100,00 %
20.05.2022 09:54 18,8 C 71 % 1019,6 hPa 0,0 l/m 5,4 km/h O-NO 71 1 min 0,000 mm 2,3 UV-I 595 W/m 13,4 C 18,8 C 7,7 km/h 100,00 %
20.05.2022 09:53 18,8 C 71 % 1019,6 hPa 0,0 l/m 11,4 km/h O-NO 76 1 min 0,000 mm 2,3 UV-I 594 W/m 13,4 C 16,8 C 17,2 km/h 100,00 %
20.05.2022 09:52 18,8 C 70 % 1019,6 hPa 0,0 l/m 10,2 km/h N 5 1 min 0,000 mm 2,3 UV-I 587 W/m 13,2 C 17,2 C 15,3 km/h 83,33 %
20.05.2022 09:51 18,7 C 72 % 1019,6 hPa 0,0 l/m 5,7 km/h N 10 1 min 0,000 mm 2,2 UV-I 572 W/m 13,5 C 18,7 C 15,3 km/h 100,00 %
20.05.2022 09:50 18,6 C 72 % 1019,6 hPa 0,0 l/m 3,7 km/h O 96 1 min 0,000 mm 2,2 UV-I 562 W/m 13,4 C 18,6 C 7,7 km/h 96,30 %
20.05.2022 09:49 18,4 C 72 % 1019,6 hPa 0,0 l/m 6,2 km/h N 9 1 min 0,000 mm 2,2 UV-I 557 W/m 13,3 C 18,4 C 9,6 km/h 100,00 %
20.05.2022 09:48 18,4 C 73 % 1019,7 hPa 0,0 l/m 9,8 km/h N 5 1 min 0,000 mm 2,1 UV-I 543 W/m 13,5 C 16,9 C 13,4 km/h 100,00 %
20.05.2022 09:47 18,3 C 73 % 1019,7 hPa 0,0 l/m 8,8 km/h N-NO 12 1 min 0,000 mm 2,1 UV-I 521 W/m 13,4 C 17,2 C 15,3 km/h 100,00 %
20.05.2022 09:46 18,3 C 73 % 1019,7 hPa 0,0 l/m 9,0 km/h N 355 1 min 0,000 mm 2,1 UV-I 529 W/m 13,4 C 17,1 C 15,3 km/h 100,00 %
20.05.2022 09:45 18,3 C 73 % 1019,7 hPa 0,0 l/m 4,7 km/h N 355 1 min 0,000 mm 2,1 UV-I 529 W/m 13,4 C 18,3 C 9,6 km/h 96,30 %
20.05.2022 09:44 18,2 C 73 % 1019,7 hPa 0,0 l/m 6,4 km/h NO 51 1 min 0,000 mm 2,0 UV-I 528 W/m 13,3 C 18,2 C 15,3 km/h 90,91 %
20.05.2022 09:43 18,2 C 73 % 1019,7 hPa 0,0 l/m 4,4 km/h O-NO 67 1 min 0,000 mm 2,0 UV-I 525 W/m 13,3 C 18,2 C 11,5 km/h 93,55 %
20.05.2022 09:42 18,2 C 72 % 1019,8 hPa 0,0 l/m 12,0 km/h N 5 1 min 0,000 mm 2,0 UV-I 527 W/m 13,1 C 16,0 C 17,2 km/h 100,00 %
20.05.2022 09:41 18,2 C 73 % 1019,8 hPa 0,0 l/m 12,2 km/h N 360 1 min 0,000 mm 2,0 UV-I 526 W/m 13,3 C 15,9 C 17,2 km/h 100,00 %
20.05.2022 09:40 18,2 C 73 % 1019,8 hPa 0,0 l/m 9,3 km/h N 5 1 min 0,000 mm 2,0 UV-I 511 W/m 13,3 C 16,9 C 15,3 km/h 100,00 %
20.05.2022 09:39 18,3 C 74 % 1019,9 hPa 0,0 l/m 6,7 km/h N-NW 342 1 min 0,000 mm 1,9 UV-I 507 W/m 13,6 C 18,2 C 15,3 km/h 100,00 %
20.05.2022 09:38 18,2 C 73 % 1019,9 hPa 0,0 l/m 4,8 km/h NW 314 1 min 0,000 mm 1,9 UV-I 489 W/m 13,3 C 18,2 C 13,4 km/h 86,96 %
20.05.2022 09:37 18,2 C 73 % 1019,9 hPa 0,0 l/m 10,0 km/h N 5 1 min 0,000 mm 1,9 UV-I 482 W/m 13,3 C 16,7 C 19,1 km/h 87,50 %
20.05.2022 09:36 18,2 C 75 % 1019,9 hPa 0,0 l/m 5,7 km/h N 360 1 min 0,000 mm 1,9 UV-I 488 W/m 13,7 C 18,2 C 11,5 km/h 94,74 %
20.05.2022 09:35 18,1 C 74 % 1019,9 hPa 0,0 l/m 3,4 km/h N-NO 31 1 min 0,000 mm 1,9 UV-I 499 W/m 13,4 C 18,1 C 5,7 km/h 100,00 %
20.05.2022 09:34 18,0 C 74 % 1020,0 hPa 0,0 l/m 5,6 km/h N 9 1 min 0,000 mm 1,9 UV-I 486 W/m 13,3 C 18,0 C 9,6 km/h 92,00 %
20.05.2022 09:33 17,9 C 73 % 1020,0 hPa 0,0 l/m 4,9 km/h N-NO 17 1 min 0,000 mm 1,9 UV-I 481 W/m 13,0 C 17,9 C 9,6 km/h 100,00 %
20.05.2022 09:32 17,9 C 76 % 1020,0 hPa 0,0 l/m 5,5 km/h N-NW 346 1 min 0,000 mm 1,8 UV-I 486 W/m 13,6 C 17,9 C 9,6 km/h 100,00 %
20.05.2022 09:31 17,8 C 76 % 1020,0 hPa 0,0 l/m 3,8 km/h N-NO 18 1 min 0,000 mm 1,8 UV-I 490 W/m 13,5 C 17,8 C 7,7 km/h 100,00 %
20.05.2022 09:30 17,8 C 77 % 1020,1 hPa 0,0 l/m 3,0 km/h O-SO 102 1 min 0,000 mm 1,8 UV-I 452 W/m 13,7 C 17,8 C 7,7 km/h 96,30 %
20.05.2022 09:29 17,8 C 77 % 1020,1 hPa 0,0 l/m 6,1 km/h N-NO 31 1 min 0,000 mm 1,8 UV-I 448 W/m 13,7 C 17,8 C 9,6 km/h 100,00 %
20.05.2022 09:28 17,8 C 77 % 1020,1 hPa 0,0 l/m 9,3 km/h N 360 1 min 0,000 mm 1,8 UV-I 492 W/m 13,7 C 16,5 C 13,4 km/h 96,00 %
20.05.2022 09:27 17,9 C 78 % 1020,1 hPa 0,0 l/m 7,2 km/h N 5 1 min 0,000 mm 1,8 UV-I 488 W/m 14,0 C 17,5 C 11,5 km/h 100,00 %
20.05.2022 09:26 17,8 C 79 % 1020,1 hPa 0,0 l/m 6,0 km/h N 350 1 min 0,000 mm 1,7 UV-I 474 W/m 14,1 C 17,8 C 9,6 km/h 92,59 %
20.05.2022 09:25 17,8 C 78 % 1020,1 hPa 0,0 l/m 0,8 km/h N 355 1 min 0,000 mm 1,7 UV-I 470 W/m 13,9 C 17,8 C 1,9 km/h 96,15 %
20.05.2022 09:24 17,8 C 78 % 1020,1 hPa 0,0 l/m 3,6 km/h N 351 1 min 0,000 mm 1,7 UV-I 464 W/m 13,9 C 17,8 C 7,7 km/h 100,00 %
20.05.2022 09:23 17,8 C 80 % 1020,2 hPa 0,0 l/m 7,2 km/h N 350 1 min 0,000 mm 1,7 UV-I 469 W/m 14,3 C 17,4 C 9,6 km/h 92,86 %
20.05.2022 09:22 17,7 C 80 % 1020,1 hPa 0,0 l/m 5,0 km/h N-NW 348 1 min 0,000 mm 1,7 UV-I 456 W/m 14,2 C 17,7 C 7,7 km/h 93,33 %
20.05.2022 09:21 17,7 C 80 % 1020,2 hPa 0,0 l/m 4,6 km/h N-NW 340 1 min 0,000 mm 1,7 UV-I 450 W/m 14,2 C 17,7 C 7,7 km/h 92,86 %
20.05.2022 09:20 17,7 C 80 % 1020,2 hPa 0,0 l/m 0,4 km/h NO 40 1 min 0,000 mm 1,7 UV-I 457 W/m 14,2 C 17,7 C 1,9 km/h 100,00 %
20.05.2022 09:19 17,7 C 79 % 1020,2 hPa 0,0 l/m 5,3 km/h O 79 1 min 0,000 mm 1,7 UV-I 455 W/m 14,0 C 17,7 C 11,5 km/h 100,00 %
20.05.2022 09:18 17,7 C 80 % 1020,2 hPa 0,0 l/m 3,1 km/h N 349 1 min 0,000 mm 1,6 UV-I 452 W/m 14,2 C 17,7 C 9,6 km/h 87,50 %
20.05.2022 09:17 17,7 C 81 % 1020,1 hPa 0,0 l/m 6,3 km/h N-NW 340 1 min 0,000 mm 1,6 UV-I 438 W/m 14,4 C 17,7 C 9,6 km/h 87,50 %
20.05.2022 09:16 17,7 C 81 % 1020,2 hPa 0,0 l/m 4,0 km/h N-NO 15 1 min 0,000 mm 1,6 UV-I 429 W/m 14,4 C 17,7 C 7,7 km/h 83,33 %
20.05.2022 09:15 17,6 C 81 % 1020,2 hPa 0,0 l/m 2,3 km/h NO 51 1 min 0,000 mm 1,5 UV-I 355 W/m 14,3 C 17,6 C 5,7 km/h 100,00 %
20.05.2022 09:14 17,6 C 80 % 1020,2 hPa 0,0 l/m 0,4 km/h N 11 1 min 0,000 mm 1,4 UV-I 295 W/m 14,1 C 17,6 C 1,9 km/h 100,00 %
20.05.2022 09:13 17,6 C 80 % 1020,2 hPa 0,0 l/m 6,8 km/h N 11 1 min 0,000 mm 1,4 UV-I 336 W/m 14,1 C 17,4 C 15,3 km/h 100,00 %
20.05.2022 09:12 17,7 C 80 % 1020,2 hPa 0,0 l/m 12,1 km/h N 355 1 min 0,000 mm 1,4 UV-I 350 W/m 14,2 C 15,3 C 15,3 km/h 100,00 %
20.05.2022 09:11 17,7 C 81 % 1020,2 hPa 0,0 l/m 6,3 km/h N 5 1 min 0,000 mm 1,5 UV-I 425 W/m 14,4 C 17,7 C 11,5 km/h 100,00 %
20.05.2022 09:10 17,6 C 82 % 1020,1 hPa 0,0 l/m 1,4 km/h N-NO 22 1 min 0,000 mm 1,5 UV-I 441 W/m 14,5 C 17,6 C 3,8 km/h 100,00 %
20.05.2022 09:09 17,4 C 82 % 1020,1 hPa 0,0 l/m 1,0 km/h N 11 1 min 0,000 mm 1,5 UV-I 436 W/m 14,3 C 17,4 C 1,9 km/h 96,30 %
20.05.2022 09:08 17,3 C 82 % 1020,1 hPa 0,0 l/m 3,5 km/h N 9 1 min 0,000 mm 1,5 UV-I 425 W/m 14,2 C 17,3 C 5,7 km/h 96,55 %
20.05.2022 09:07 17,2 C 83 % 1020,2 hPa 0,0 l/m 3,8 km/h O-NO 78 1 min 0,000 mm 1,4 UV-I 407 W/m 14,3 C 17,2 C 7,7 km/h 100,00 %
20.05.2022 09:06 17,1 C 83 % 1020,2 hPa 0,0 l/m 3,3 km/h O 99 1 min 0,000 mm 1,4 UV-I 405 W/m 14,2 C 17,1 C 5,7 km/h 100,00 %
20.05.2022 09:05 16,9 C 83 % 1020,1 hPa 0,0 l/m 2,4 km/h NO 49 1 min 0,000 mm 1,4 UV-I 397 W/m 14,0 C 16,9 C 7,7 km/h 100,00 %
20.05.2022 09:04 16,9 C 84 % 1020,1 hPa 0,0 l/m 3,1 km/h NO 54 1 min 0,000 mm 1,4 UV-I 397 W/m 14,2 C 16,9 C 7,7 km/h 100,00 %
20.05.2022 09:03 16,8 C 83 % 1020,2 hPa 0,0 l/m 4,6 km/h N-NO 16 1 min 0,000 mm 1,4 UV-I 400 W/m 13,9 C 16,8 C 7,7 km/h 100,00 %
20.05.2022 09:02 16,8 C 83 % 1020,2 hPa 0,0 l/m 7,0 km/h N 9 1 min 0,000 mm 1,3 UV-I 394 W/m 13,9 C 16,5 C 9,6 km/h 100,00 %
20.05.2022 09:01 16,8 C 83 % 1020,3 hPa 0,0 l/m 8,6 km/h N 9 1 min 0,177 mm 1,4 UV-I 406 W/m 13,9 C 15,7 C 11,5 km/h 100,00 %
20.05.2022 09:00 16,8 C 83 % 1020,3 hPa 0,0 l/m 5,1 km/h N-NO 15 1 min 0,000 mm 1,4 UV-I 417 W/m 13,9 C 16,8 C 9,6 km/h 100,00 %
20.05.2022 08:59 16,8 C 83 % 1020,3 hPa 0,0 l/m 5,9 km/h N-NO 28 1 min 0,000 mm 1,4 UV-I 405 W/m 13,9 C 16,8 C 13,4 km/h 100,00 %
20.05.2022 08:58 16,7 C 83 % 1020,4 hPa 0,0 l/m 10,7 km/h N-NO 15 1 min 0,000 mm 1,3 UV-I 390 W/m 13,8 C 14,7 C 15,3 km/h 91,67 %
20.05.2022 08:57 16,8 C 83 % 1020,4 hPa 0,0 l/m 11,5 km/h N 355 1 min 0,000 mm 1,4 UV-I 388 W/m 13,9 C 14,5 C 15,3 km/h 81,48 %
20.05.2022 08:56 16,8 C 83 % 1020,4 hPa 0,0 l/m 7,6 km/h N 5 1 min 0,000 mm 1,3 UV-I 401 W/m 13,9 C 16,2 C 11,5 km/h 80,00 %
20.05.2022 08:55 16,8 C 83 % 1020,4 hPa 0,0 l/m 3,7 km/h N 5 1 min 0,000 mm 1,3 UV-I 403 W/m 13,9 C 16,8 C 7,7 km/h 65,22 %
20.05.2022 08:54 16,8 C 83 % 1020,5 hPa 0,0 l/m 8,6 km/h N 5 1 min 0,000 mm 1,3 UV-I 390 W/m 13,9 C 15,7 C 11,5 km/h 75,00 %
20.05.2022 08:53 16,7 C 84 % 1020,5 hPa 0,0 l/m 5,0 km/h N 355 1 min 0,000 mm 1,3 UV-I 388 W/m 14,0 C 16,7 C 9,6 km/h 84,62 %
20.05.2022 08:52 16,7 C 84 % 1020,5 hPa 0,0 l/m 4,2 km/h N 5 1 min 0,000 mm 1,3 UV-I 383 W/m 14,0 C 16,7 C 13,4 km/h 95,83 %
20.05.2022 08:51 16,6 C 84 % 1020,5 hPa 0,0 l/m 1,1 km/h N 11 1 min 0,000 mm 1,3 UV-I 376 W/m 13,9 C 16,6 C 5,7 km/h 100,00 %
20.05.2022 08:50 16,6 C 84 % 1020,6 hPa 0,0 l/m 0,5 km/h N-NO 13 1 min 0,000 mm 1,3 UV-I 375 W/m 13,9 C 16,6 C 1,9 km/h 100,00 %
20.05.2022 08:49 16,5 C 84 % 1020,6 hPa 0,0 l/m 6,5 km/h N 5 1 min 0,000 mm 1,2 UV-I 375 W/m 13,8 C 16,5 C 9,6 km/h 100,00 %
20.05.2022 08:48 16,6 C 83 % 1020,5 hPa 0,0 l/m 6,7 km/h N 5 1 min 0,000 mm 1,2 UV-I 379 W/m 13,7 C 16,5 C 9,6 km/h 100,00 %
20.05.2022 08:47 16,6 C 83 % 1020,6 hPa 0,0 l/m 6,8 km/h N 360 1 min 0,000 mm 1,2 UV-I 376 W/m 13,7 C 16,4 C 9,6 km/h 100,00 %
20.05.2022 08:46 16,6 C 84 % 1020,5 hPa 0,0 l/m 6,5 km/h N-NO 26 1 min 0,000 mm 1,2 UV-I 374 W/m 13,9 C 16,6 C 11,5 km/h 96,43 %
20.05.2022 08:45 16,6 C 84 % 1020,5 hPa 0,0 l/m 0,2 km/h N 5 1 min 0,000 mm 1,2 UV-I 372 W/m 13,9 C 16,6 C 3,8 km/h 100,00 %
20.05.2022 08:44 16,6 C 85 % 1020,6 hPa 0,0 l/m 5,4 km/h N 5 1 min 0,000 mm 1,2 UV-I 369 W/m 14,1 C 16,6 C 9,6 km/h 96,30 %
20.05.2022 08:43 16,6 C 85 % 1020,6 hPa 0,0 l/m 3,8 km/h N-NO 22 1 min 0,000 mm 1,1 UV-I 367 W/m 14,1 C 16,6 C 9,6 km/h 78,57 %
20.05.2022 08:42 16,4 C 85 % 1020,6 hPa 0,0 l/m 0,7 km/h O-NO 76 1 min 0,000 mm 1,1 UV-I 353 W/m 13,9 C 16,4 C 5,7 km/h 55,56 %
20.05.2022 08:41 16,3 C 86 % 1020,6 hPa 0,0 l/m 3,3 km/h O 84 1 min 0,000 mm 1,1 UV-I 351 W/m 14,0 C 16,3 C 5,7 km/h 50,00 %
20.05.2022 08:40 16,3 C 86 % 1020,6 hPa 0,0 l/m 0,6 km/h N 360 1 min 0,000 mm 1,1 UV-I 346 W/m 14,0 C 16,3 C 1,9 km/h 67,86 %
20.05.2022 08:39 16,2 C 86 % 1020,6 hPa 0,0 l/m 6,9 km/h N 360 1 min 0,000 mm 1,1 UV-I 345 W/m 13,9 C 15,9 C 9,6 km/h 95,65 %
20.05.2022 08:38 16,2 C 86 % 1020,6 hPa 0,0 l/m 4,5 km/h N-NW 341 1 min 0,000 mm 1,1 UV-I 342 W/m 13,9 C 16,2 C 7,7 km/h 100,00 %
20.05.2022 08:37 16,1 C 87 % 1020,5 hPa 0,0 l/m 4,8 km/h N-NW 339 1 min 0,000 mm 1,1 UV-I 341 W/m 13,9 C 16,1 C 7,7 km/h 86,96 %
20.05.2022 08:36 16,1 C 87 % 1020,6 hPa 0,0 l/m 2,7 km/h N-NW 339 1 min 0,000 mm 1,1 UV-I 344 W/m 13,9 C 16,1 C 7,7 km/h 70,83 %
20.05.2022 08:35 15,9 C 87 % 1020,6 hPa 0,0 l/m 4,3 km/h N-NW 339 1 min 0,000 mm 1,0 UV-I 340 W/m 13,7 C 15,9 C 7,7 km/h 96,15 %
20.05.2022 08:34 15,9 C 87 % 1020,5 hPa 0,0 l/m 4,6 km/h N-NW 338 1 min 0,000 mm 1,0 UV-I 338 W/m 13,7 C 15,9 C 7,7 km/h 100,00 %
20.05.2022 08:33 15,8 C 87 % 1020,5 hPa 0,0 l/m 6,7 km/h N-NW 338 1 min 0,000 mm 1,0 UV-I 333 W/m 13,6 C 15,6 C 7,7 km/h 100,00 %
20.05.2022 08:32 15,8 C 87 % 1020,5 hPa 0,0 l/m 6,1 km/h N 355 1 min 0,000 mm 1,0 UV-I 325 W/m 13,6 C 15,8 C 7,7 km/h 100,00 %
20.05.2022 08:31 15,8 C 87 % 1020,5 hPa 0,0 l/m 8,9 km/h N 355 1 min 0,000 mm 1,0 UV-I 322 W/m 13,6 C 14,5 C 13,4 km/h 92,59 %
20.05.2022 08:30 15,8 C 87 % 1020,6 hPa 0,0 l/m 6,3 km/h N 11 1 min 0,000 mm 1,0 UV-I 329 W/m 13,6 C 15,8 C 9,6 km/h 100,00 %
20.05.2022 08:29 15,7 C 87 % 1020,5 hPa 0,0 l/m 8,5 km/h N 360 1 min 0,000 mm 1,0 UV-I 320 W/m 13,5 C 14,6 C 11,5 km/h 100,00 %
20.05.2022 08:28 15,7 C 88 % 1020,6 hPa 0,0 l/m 7,3 km/h N 355 1 min 0,000 mm 0,9 UV-I 312 W/m 13,7 C 15,2 C 9,6 km/h 100,00 %
20.05.2022 08:27 15,7 C 88 % 1020,6 hPa 0,0 l/m 7,1 km/h NW 323 1 min 0,000 mm 0,9 UV-I 302 W/m 13,7 C 15,3 C 11,5 km/h 100,00 %
20.05.2022 08:26 15,6 C 88 % 1020,6 hPa 0,0 l/m 6,7 km/h N-NW 344 1 min 0,000 mm 0,9 UV-I 302 W/m 13,6 C 15,4 C 9,6 km/h 92,31 %
20.05.2022 08:25 15,6 C 87 % 1020,6 hPa 0,0 l/m 6,0 km/h N-NW 340 0 min 0,000 mm 0,9 UV-I 283 W/m 13,4 C 15,6 C 9,6 km/h 100,00 %
20.05.2022 08:24 15,6 C 88 % 1020,6 hPa 0,0 l/m 10,7 km/h N 355 1 min 0,000 mm 0,9 UV-I 298 W/m 13,6 C 13,5 C 15,3 km/h 100,00 %
20.05.2022 08:23 15,6 C 87 % 1020,6 hPa 0,0 l/m 9,2 km/h N-NO 12 1 min 0,000 mm 0,9 UV-I 297 W/m 13,4 C 14,1 C 15,3 km/h 97,37 %
20.05.2022 08:22 15,7 C 89 % 1020,6 hPa 0,0 l/m 11,6 km/h N 9 1 min 0,000 mm 0,9 UV-I 304 W/m 13,9 C 13,2 C 17,2 km/h 97,43 %
20.05.2022 08:21 15,7 C 89 % 1020,6 hPa 0,0 l/m 6,7 km/h N 355 1 min 0,000 mm 0,9 UV-I 300 W/m 13,9 C 15,5 C 9,6 km/h 100,00 %
20.05.2022 08:20 15,7 C 89 % 1020,6 hPa 0,0 l/m 7,0 km/h N 355 1 min 0,000 mm 0,9 UV-I 295 W/m 13,9 C 15,4 C 9,6 km/h 97,37 %
20.05.2022 08:19 15,6 C 89 % 1020,6 hPa 0,0 l/m 5,5 km/h N-NW 344 1 min 0,000 mm 0,8 UV-I 294 W/m 13,8 C 15,6 C 11,5 km/h 100,00 %
20.05.2022 08:18 15,6 C 90 % 1020,6 hPa 0,0 l/m 5,7 km/h N-NW 344 1 min 0,000 mm 0,8 UV-I 292 W/m 14,0 C 15,6 C 7,7 km/h 100,00 %
20.05.2022 08:17 15,6 C 90 % 1020,6 hPa 0,0 l/m 4,8 km/h N-NW 333 1 min 0,000 mm 0,8 UV-I 289 W/m 14,0 C 15,6 C 7,7 km/h 100,00 %
20.05.2022 08:16 15,5 C 90 % 1020,6 hPa 0,0 l/m 6,4 km/h N 11 0 min 0,000 mm 0,8 UV-I 283 W/m 13,9 C 15,5 C 7,7 km/h 100,00 %
20.05.2022 08:15 15,4 C 90 % 1020,6 hPa 0,0 l/m 4,0 km/h N 9 0 min 0,000 mm 0,8 UV-I 284 W/m 13,8 C 15,4 C 7,7 km/h 100,00 %
20.05.2022 08:14 15,4 C 90 % 1020,6 hPa 0,0 l/m 6,2 km/h N-NO 32 0 min 0,000 mm 0,8 UV-I 279 W/m 13,8 C 15,4 C 13,4 km/h 100,00 %
20.05.2022 08:13 15,4 C 91 % 1020,6 hPa 0,0 l/m 7,1 km/h N 9 0 min 0,000 mm 0,8 UV-I 278 W/m 13,9 C 15,0 C 7,7 km/h 100,00 %
20.05.2022 08:12 15,4 C 91 % 1020,5 hPa 0,0 l/m 8,7 km/h N-NW 337 0 min 0,000 mm 0,7 UV-I 268 W/m 13,9 C 14,2 C 15,3 km/h 100,00 %
20.05.2022 08:11 15,3 C 91 % 1020,5 hPa 0,0 l/m 5,5 km/h N 5 0 min 0,000 mm 0,7 UV-I 260 W/m 13,8 C 15,3 C 11,5 km/h 100,00 %
20.05.2022 08:10 15,3 C 91 % 1020,5 hPa 0,0 l/m 5,5 km/h N-NW 345 0 min 0,000 mm 0,7 UV-I 261 W/m 13,8 C 15,3 C 9,6 km/h 100,00 %
20.05.2022 08:09 15,3 C 92 % 1020,5 hPa 0,0 l/m 8,5 km/h N-NW 344 0 min 0,000 mm 0,7 UV-I 257 W/m 14,0 C 14,2 C 11,5 km/h 96,30 %
20.05.2022 08:08 15,2 C 92 % 1020,4 hPa 0,0 l/m 6,6 km/h N 5 0 min 0,000 mm 0,7 UV-I 255 W/m 13,9 C 15,1 C 9,6 km/h 96,30 %
20.05.2022 08:07 15,2 C 92 % 1020,4 hPa 0,0 l/m 3,3 km/h N-NW 348 0 min 0,000 mm 0,7 UV-I 255 W/m 13,9 C 15,2 C 7,7 km/h 80,77 %
20.05.2022 08:06 15,2 C 93 % 1020,5 hPa 0,0 l/m 2,3 km/h N-NW 347 0 min 0,000 mm 0,7 UV-I 255 W/m 14,1 C 15,2 C 3,8 km/h 83,33 %
20.05.2022 08:05 15,1 C 93 % 1020,5 hPa 0,0 l/m 5,5 km/h N 9 0 min 0,000 mm 0,7 UV-I 256 W/m 14,0 C 15,1 C 11,5 km/h 82,61 %
20.05.2022 08:04 15,1 C 93 % 1020,5 hPa 0,0 l/m 7,1 km/h N 355 0 min 0,000 mm 0,7 UV-I 255 W/m 14,0 C 14,7 C 9,6 km/h 92,11 %
20.05.2022 08:03 15,0 C 93 % 1020,5 hPa 0,0 l/m 7,6 km/h N 360 0 min 0,000 mm 0,6 UV-I 248 W/m 13,9 C 14,3 C 11,5 km/h 97,56 %
20.05.2022 08:02 14,9 C 93 % 1020,6 hPa 0,0 l/m 10,0 km/h N-NW 328 0 min 0,001 mm 0,6 UV-I 244 W/m 13,8 C 13,0 C 15,3 km/h 83,33 %
20.05.2022 08:01 15,0 C 93 % 1020,6 hPa 0,0 l/m 9,3 km/h N 9 0 min 0,076 mm 0,6 UV-I 244 W/m 13,9 C 13,4 C 13,4 km/h 81,48 %
20.05.2022 08:00 14,9 C 94 % 1020,6 hPa 0,0 l/m 10,4 km/h N 355 0 min 0,000 mm 0,6 UV-I 243 W/m 13,9 C 12,8 C 17,2 km/h 86,67 %
20.05.2022 07:59 14,9 C 94 % 1020,6 hPa 0,0 l/m 10,2 km/h N 5 0 min 0,000 mm 0,6 UV-I 242 W/m 13,9 C 12,9 C 17,2 km/h 91,67 %
20.05.2022 07:58 14,9 C 95 % 1020,6 hPa 0,0 l/m 8,5 km/h N-NO 13 0 min 0,000 mm 0,6 UV-I 238 W/m 14,1 C 13,7 C 13,4 km/h 91,30 %
20.05.2022 07:57 14,9 C 95 % 1020,6 hPa 0,0 l/m 6,9 km/h N 360 0 min 0,000 mm 0,6 UV-I 236 W/m 14,1 C 14,6 C 9,6 km/h 100,00 %
20.05.2022 07:56 14,8 C 95 % 1020,5 hPa 0,0 l/m 3,0 km/h N 355 0 min 0,000 mm 0,6 UV-I 236 W/m 14,0 C 14,8 C 5,7 km/h 100,00 %
20.05.2022 07:55 14,8 C 95 % 1020,6 hPa 0,0 l/m 5,5 km/h N 355 0 min 0,000 mm 0,6 UV-I 229 W/m 14,0 C 14,8 C 7,7 km/h 96,30 %
20.05.2022 07:54 14,7 C 95 % 1020,6 hPa 0,0 l/m 8,0 km/h N 350 0 min 0,000 mm 0,6 UV-I 226 W/m 13,9 C 13,8 C 9,6 km/h 100,00 %
20.05.2022 07:53 14,7 C 95 % 1020,7 hPa 0,0 l/m 5,6 km/h N-NW 333 0 min 0,000 mm 0,6 UV-I 222 W/m 13,9 C 14,7 C 9,6 km/h 100,00 %
20.05.2022 07:52 14,7 C 95 % 1020,7 hPa 0,0 l/m 7,3 km/h N-NW 343 0 min 0,000 mm 0,6 UV-I 216 W/m 13,9 C 14,2 C 7,7 km/h 100,00 %
20.05.2022 07:51 14,6 C 95 % 1020,7 hPa 0,0 l/m 5,6 km/h N-NW 348 0 min 0,000 mm 0,5 UV-I 217 W/m 13,8 C 14,6 C 7,7 km/h 95,83 %
20.05.2022 07:50 14,6 C 95 % 1020,7 hPa 0,0 l/m 6,7 km/h N-NW 341 0 min 0,000 mm 0,5 UV-I 214 W/m 13,8 C 14,4 C 7,7 km/h 95,65 %
20.05.2022 07:49 14,6 C 95 % 1020,7 hPa 0,0 l/m 7,5 km/h N 360 0 min 0,000 mm 0,5 UV-I 210 W/m 13,8 C 14,0 C 9,6 km/h 100,00 %
20.05.2022 07:48 14,5 C 95 % 1020,7 hPa 0,0 l/m 7,7 km/h N 360 0 min 0,000 mm 0,5 UV-I 193 W/m 13,7 C 13,7 C 11,5 km/h 100,00 %
20.05.2022 07:47 14,5 C 96 % 1020,7 hPa 0,0 l/m 8,2 km/h N-NW 348 0 min 0,000 mm 0,5 UV-I 187 W/m 13,9 C 13,5 C 15,3 km/h 100,00 %
20.05.2022 07:46 14,4 C 96 % 1020,7 hPa 0,0 l/m 5,2 km/h N 355 0 min 0,000 mm 0,5 UV-I 193 W/m 13,8 C 14,4 C 7,7 km/h 100,00 %
20.05.2022 07:45 14,3 C 96 % 1020,8 hPa 0,0 l/m 4,0 km/h N 355 0 min 0,000 mm 0,5 UV-I 198 W/m 13,7 C 14,3 C 5,7 km/h 100,00 %
20.05.2022 07:44 14,3 C 96 % 1020,8 hPa 0,0 l/m 6,1 km/h N 355 0 min 0,000 mm 0,5 UV-I 193 W/m 13,7 C 14,3 C 7,7 km/h 100,00 %
20.05.2022 07:43 14,3 C 96 % 1020,8 hPa 0,0 l/m 5,6 km/h N 355 0 min 0,000 mm 0,5 UV-I 196 W/m 13,7 C 14,3 C 9,6 km/h 96,30 %
20.05.2022 07:42 14,3 C 96 % 1020,8 hPa 0,0 l/m 5,9 km/h N 355 0 min 0,000 mm 0,5 UV-I 192 W/m 13,7 C 14,3 C 7,7 km/h 100,00 %
20.05.2022 07:41 14,3 C 96 % 1020,8 hPa 0,0 l/m 5,4 km/h N 355 0 min 0,000 mm 0,5 UV-I 190 W/m 13,7 C 14,3 C 7,7 km/h 100,00 %
20.05.2022 07:40 14,3 C 96 % 1020,8 hPa 0,0 l/m 6,5 km/h N 349 0 min 0,000 mm 0,5 UV-I 188 W/m 13,7 C 14,3 C 7,7 km/h 100,00 %
20.05.2022 07:39 14,3 C 96 % 1020,9 hPa 0,0 l/m 5,9 km/h N-NW 341 0 min 0,000 mm 0,4 UV-I 188 W/m 13,7 C 14,3 C 9,6 km/h 100,00 %
20.05.2022 07:38 14,3 C 96 % 1020,9 hPa 0,0 l/m 4,2 km/h N-NW 332 0 min 0,000 mm 0,0 UV-I 189 W/m 13,7 C 14,3 C 5,7 km/h 100,00 %
20.05.2022 07:37 14,2 C 96 % 1020,9 hPa 0,0 l/m 2,3 km/h N-NW 332 0 min 0,000 mm 0,0 UV-I 182 W/m 13,6 C 14,2 C 5,7 km/h 100,00 %
20.05.2022 07:36 14,2 C 96 % 1020,9 hPa 0,0 l/m 3,8 km/h N-NW 332 0 min 0,000 mm 0,0 UV-I 178 W/m 13,6 C 14,2 C 5,7 km/h 100,00 %
20.05.2022 07:35 14,2 C 96 % 1021,0 hPa 0,0 l/m 5,4 km/h N-NW 331 0 min 0,000 mm 0,0 UV-I 177 W/m 13,6 C 14,2 C 7,7 km/h 100,00 %
20.05.2022 07:34 14,2 C 97 % 1021,0 hPa 0,0 l/m 4,9 km/h N-NW 327 0 min 0,000 mm 0,0 UV-I 181 W/m 13,7 C 14,2 C 7,7 km/h 96,30 %
20.05.2022 07:33 14,2 C 97 % 1021,0 hPa 0,0 l/m 3,0 km/h SW 235 0 min 0,000 mm 0,0 UV-I 174 W/m 13,7 C 14,2 C 5,7 km/h 100,00 %
20.05.2022 07:32 14,2 C 97 % 1021,0 hPa 0,0 l/m 2,6 km/h SW 235 0 min 0,000 mm 0,0 UV-I 168 W/m 13,7 C 14,2 C 5,7 km/h 100,00 %
20.05.2022 07:31 14,2 C 97 % 1021,0 hPa 0,0 l/m 2,8 km/h SW 234 0 min 0,000 mm 0,0 UV-I 175 W/m 13,7 C 14,2 C 3,8 km/h 100,00 %
20.05.2022 07:30 14,1 C 97 % 1021,0 hPa 0,0 l/m 1,9 km/h SW 234 0 min 0,000 mm 0,0 UV-I 166 W/m 13,6 C 14,1 C 1,9 km/h 100,00 %
20.05.2022 07:29 14,1 C 97 % 1021,0 hPa 0,0 l/m 2,6 km/h SW 234 0 min 0,000 mm 0,0 UV-I 162 W/m 13,6 C 14,1 C 3,8 km/h 100,00 %
20.05.2022 07:28 14,1 C 97 % 1021,0 hPa 0,0 l/m 3,0 km/h SW 234 0 min 0,000 mm 0,0 UV-I 147 W/m 13,6 C 14,1 C 3,8 km/h 96,30 %
20.05.2022 07:27 14,0 C 97 % 1021,0 hPa 0,0 l/m 2,2 km/h SW 234 0 min 0,000 mm 0,0 UV-I 148 W/m 13,5 C 14,0 C 3,8 km/h 100,00 %
20.05.2022 07:26 14,0 C 97 % 1021,1 hPa 0,0 l/m 0,2 km/h SW 234 0 min 0,000 mm 0,0 UV-I 126 W/m 13,5 C 14,0 C 1,9 km/h 100,00 %
20.05.2022 07:25 13,9 C 97 % 1021,0 hPa 0,0 l/m 1,0 km/h SW 234 0 min 0,000 mm 0,0 UV-I 121 W/m 13,4 C 13,9 C 1,9 km/h 100,00 %
20.05.2022 07:24 13,9 C 97 % 1021,1 hPa 0,0 l/m 1,6 km/h SW 234 0 min 0,000 mm 0,0 UV-I 106 W/m 13,4 C 13,9 C 3,8 km/h 100,00 %
20.05.2022 07:23 13,9 C 97 % 1021,1 hPa 0,0 l/m 2,4 km/h SW 234 0 min 0,000 mm 0,0 UV-I 100 W/m 13,4 C 13,9 C 3,8 km/h 100,00 %
20.05.2022 07:22 13,8 C 97 % 1021,1 hPa 0,0 l/m 1,0 km/h SW 234 0 min 0,000 mm 0,0 UV-I 89 W/m 13,3 C 13,8 C 3,8 km/h 100,00 %
20.05.2022 07:21 13,8 C 97 % 1021,0 hPa 0,0 l/m 0,1 km/h SW 234 0 min 0,000 mm 0,0 UV-I 86 W/m 13,3 C 13,8 C 1,9 km/h 100,00 %
20.05.2022 07:20 13,7 C 97 % 1021,0 hPa 0,0 l/m 0,1 km/h SW 234 0 min 0,000 mm 0,0 UV-I 95 W/m 13,2 C 13,7 C 1,9 km/h 100,00 %
20.05.2022 07:19 13,7 C 97 % 1021,1 hPa 0,0 l/m 0,2 km/h SW 234 0 min 0,000 mm 0,0 UV-I 92 W/m 13,2 C 13,7 C 1,9 km/h 95,83 %
20.05.2022 07:18 13,7 C 97 % 1021,1 hPa 0,0 l/m 0,0 km/h SW 234 0 min 0,000 mm 0,0 UV-I 84 W/m 13,2 C 13,7 C 0,0 km/h 100,00 %
20.05.2022 07:17 13,7 C 97 % 1021,1 hPa 0,0 l/m 0,1 km/h SW 234 0 min 0,000 mm 0,0 UV-I 88 W/m 13,2 C 13,7 C 1,9 km/h 100,00 %
20.05.2022 07:16 13,6 C 97 % 1021,1 hPa 0,0 l/m 0,6 km/h SW 234 0 min 0,000 mm 0,0 UV-I 90 W/m 13,1 C 13,6 C 1,9 km/h 100,00 %
20.05.2022 07:15 13,6 C 97 % 1021,1 hPa 0,0 l/m 2,4 km/h SW 234 0 min 0,000 mm 0,0 UV-I 66 W/m 13,1 C 13,6 C 5,7 km/h 100,00 %
20.05.2022 07:14 13,6 C 97 % 1021,2 hPa 0,0 l/m 0,9 km/h SW 234 0 min 0,000 mm 0,0 UV-I 70 W/m 13,1 C 13,6 C 5,7 km/h 100,00 %
20.05.2022 07:13 13,6 C 97 % 1021,1 hPa 0,0 l/m 0,0 km/h SW 234 0 min 0,000 mm 0,0 UV-I 79 W/m 13,1 C 13,6 C 0,0 km/h 95,83 %
20.05.2022 07:12 13,6 C 97 % 1021,2 hPa 0,0 l/m 0,0 km/h SW 234 0 min 0,000 mm 0,0 UV-I 78 W/m 13,1 C 13,6 C 0,0 km/h 100,00 %
20.05.2022 07:11 13,5 C 97 % 1021,1 hPa 0,0 l/m 0,0 km/h SW 234 0 min 0,000 mm 0,0 UV-I 68 W/m 13,0 C 13,5 C 0,0 km/h 100,00 %
20.05.2022 07:10 13,4 C 97 % 1021,1 hPa 0,0 l/m 0,0 km/h SW 234 0 min 0,000 mm 0,0 UV-I 67 W/m 12,9 C 13,4 C 0,0 km/h 91,67 %
20.05.2022 07:09 13,4 C 97 % 1021,2 hPa 0,0 l/m 0,0 km/h SW 234 0 min 0,000 mm 0,0 UV-I 69 W/m 12,9 C 13,4 C 0,0 km/h 100,00 %
20.05.2022 07:08 13,4 C 97 % 1021,1 hPa 0,0 l/m 0,1 km/h SW 234 0 min 0,000 mm 0,0 UV-I 70 W/m 12,9 C 13,4 C 1,9 km/h 100,00 %
20.05.2022 07:07 13,3 C 97 % 1021,2 hPa 0,0 l/m 0,0 km/h SW 234 0 min 0,000 mm 0,0 UV-I 64 W/m 12,8 C 13,3 C 0,0 km/h 79,17 %
20.05.2022 07:06 13,3 C 97 % 1021,2 hPa 0,0 l/m 1,2 km/h SW 234 0 min 0,000 mm 0,0 UV-I 54 W/m 12,8 C 13,3 C 1,9 km/h 78,57 %
20.05.2022 07:05 13,3 C 97 % 1021,2 hPa 0,0 l/m 0,1 km/h SW 234 0 min 0,000 mm 0,0 UV-I 55 W/m 12,8 C 13,3 C 1,9 km/h 100,00 %
20.05.2022 07:04 13,2 C 97 % 1021,2 hPa 0,0 l/m 0,1 km/h SW 234 0 min 0,000 mm 0,0 UV-I 50 W/m 12,7 C 13,2 C 1,9 km/h 92,31 %
20.05.2022 07:03 13,2 C 97 % 1021,3 hPa 0,0 l/m 0,0 km/h SW 234 0 min 0,000 mm 0,0 UV-I 61 W/m 12,7 C 13,2 C 0,0 km/h 95,65 %
20.05.2022 07:02 13,2 C 97 % 1021,3 hPa 0,0 l/m 0,0 km/h SW 234 0 min 0,000 mm 0,0 UV-I 74 W/m 12,7 C 13,2 C 0,0 km/h 87,50 %
20.05.2022 07:01 13,1 C 97 % 1021,3 hPa 0,0 l/m 0,2 km/h SW 234 0 min 0,000 mm 0,0 UV-I 76 W/m 12,6 C 13,1 C 1,9 km/h 95,65 %
20.05.2022 07:00 13,1 C 97 % 1021,2 hPa 0,0 l/m 0,0 km/h SW 234 0 min 0,025 mm 0,0 UV-I 78 W/m 12,6 C 13,1 C 0,0 km/h 100,00 %
20.05.2022 06:59 13,1 C 97 % 1021,3 hPa 0,0 l/m 0,0 km/h SW 234 0 min 0,000 mm 0,0 UV-I 83 W/m 12,6 C 13,1 C 0,0 km/h 96,15 %
20.05.2022 06:58 13,0 C 97 % 1021,3 hPa 0,0 l/m 0,0 km/h SW 234 0 min 0,000 mm 0,0 UV-I 89 W/m 12,5 C 13,0 C 0,0 km/h 100,00 %
20.05.2022 06:57 12,9 C 97 % 1021,3 hPa 0,0 l/m 0,0 km/h SW 234 0 min 0,000 mm 0,0 UV-I 90 W/m 12,4 C 12,9 C 0,0 km/h 100,00 %
20.05.2022 06:56 12,9 C 97 % 1021,3 hPa 0,0 l/m 0,1 km/h SW 234 0 min 0,000 mm 0,0 UV-I 91 W/m 12,4 C 12,9 C 1,9 km/h 95,83 %
20.05.2022 06:55 12,8 C 97 % 1021,3 hPa 0,0 l/m 0,0 km/h SW 234 0 min 0,000 mm 0,0 UV-I 91 W/m 12,3 C 12,8 C 0,0 km/h 100,00 %
20.05.2022 06:54 12,8 C 96 % 1021,3 hPa 0,0 l/m 0,0 km/h SW 234 0 min 0,000 mm 0,0 UV-I 86 W/m 12,2 C 12,8 C 0,0 km/h 100,00 %
20.05.2022 06:53 12,8 C 96 % 1021,3 hPa 0,0 l/m 0,0 km/h SW 234 0 min 0,000 mm 0,0 UV-I 79 W/m 12,2 C 12,8 C 0,0 km/h 100,00 %
20.05.2022 06:52 12,7 C 96 % 1021,3 hPa 0,0 l/m 0,2 km/h SW 234 0 min 0,000 mm 0,0 UV-I 70 W/m 12,1 C 12,7 C 1,9 km/h 100,00 %
20.05.2022 06:51 12,7 C 96 % 1021,3 hPa 0,0 l/m 0,0 km/h SW 234 0 min 0,000 mm 0,0 UV-I 63 W/m 12,1 C 12,7 C 0,0 km/h 100,00 %
20.05.2022 06:50 12,7 C 96 % 1021,2 hPa 0,0 l/m 0,0 km/h SW 234 0 min 0,000 mm 0,0 UV-I 60 W/m 12,1 C 12,7 C 0,0 km/h 100,00 %
20.05.2022 06:49 12,7 C 96 % 1021,2 hPa 0,0 l/m 0,0 km/h SW 234 0 min 0,000 mm 0,0 UV-I 55 W/m 12,1 C 12,7 C 0,0 km/h 100,00 %
20.05.2022 06:48 12,7 C 96 % 1021,3 hPa 0,0 l/m 0,4 km/h SW 234 0 min 0,000 mm 0,0 UV-I 51 W/m 12,1 C 12,7 C 1,9 km/h 100,00 %
20.05.2022 06:47 12,6 C 96 % 1021,3 hPa 0,0 l/m 0,0 km/h SW 234 0 min 0,000 mm 0,0 UV-I 52 W/m 12,0 C 12,6 C 0,0 km/h 96,15 %
20.05.2022 06:46 12,6 C 96 % 1021,3 hPa 0,0 l/m 0,0 km/h SW 234 0 min 0,000 mm 0,0 UV-I 51 W/m 12,0 C 12,6 C 0,0 km/h 100,00 %
20.05.2022 06:45 12,6 C 96 % 1021,2 hPa 0,0 l/m 0,0 km/h SW 234 0 min 0,000 mm 0,0 UV-I 49 W/m 12,0 C 12,6 C 0,0 km/h 100,00 %
20.05.2022 06:44 12,6 C 96 % 1021,3 hPa 0,0 l/m 0,0 km/h SW 234 0 min 0,000 mm 0,0 UV-I 50 W/m 12,0 C 12,6 C 0,0 km/h 95,83 %
20.05.2022 06:43 12,5 C 96 % 1021,3 hPa 0,0 l/m 0,0 km/h SW 234 0 min 0,000 mm 0,0 UV-I 50 W/m 11,9 C 12,5 C 0,0 km/h 100,00 %
20.05.2022 06:42 12,4 C 96 % 1021,3 hPa 0,0 l/m 0,0 km/h SW 234 0 min 0,000 mm 0,0 UV-I 48 W/m 11,8 C 12,4 C 0,0 km/h 95,83 %
20.05.2022 06:41 12,4 C 96 % 1021,3 hPa 0,0 l/m 0,0 km/h SW 234 0 min 0,000 mm 0,0 UV-I 46 W/m 11,8 C 12,4 C 0,0 km/h 95,65 %
20.05.2022 06:40 12,3 C 96 % 1021,3 hPa 0,0 l/m 0,0 km/h SW 234 0 min 0,000 mm 0,0 UV-I 46 W/m 11,7 C 12,3 C 0,0 km/h 100,00 %
20.05.2022 06:39 12,3 C 96 % 1021,4 hPa 0,0 l/m 0,0 km/h SW 234 0 min 0,000 mm 0,0 UV-I 46 W/m 11,7 C 12,3 C 0,0 km/h 95,65 %
20.05.2022 06:38 12,2 C 96 % 1021,4 hPa 0,0 l/m 0,0 km/h SW 234 0 min 0,000 mm 0,0 UV-I 45 W/m 11,6 C 12,2 C 0,0 km/h 100,00 %
20.05.2022 06:37 12,2 C 95 % 1021,4 hPa 0,0 l/m 0,0 km/h SW 234 0 min 0,000 mm 0,0 UV-I 45 W/m 11,4 C 12,2 C 0,0 km/h 91,67 %
20.05.2022 06:36 12,2 C 95 % 1021,3 hPa 0,0 l/m 0,0 km/h SW 234 0 min 0,000 mm 0,0 UV-I 43 W/m 11,4 C 12,2 C 0,0 km/h 100,00 %
20.05.2022 06:35 12,1 C 95 % 1021,3 hPa 0,0 l/m 0,0 km/h SW 234 0 min 0,000 mm 0,0 UV-I 40 W/m 11,3 C 12,1 C 0,0 km/h 95,83 %
20.05.2022 06:34 12,1 C 95 % 1021,3 hPa 0,0 l/m 0,0 km/h SW 234 0 min 0,000 mm 0,0 UV-I 36 W/m 11,3 C 12,1 C 0,0 km/h 92,86 %
20.05.2022 06:33 12,1 C 95 % 1021,3 hPa 0,0 l/m 0,0 km/h SW 234 0 min 0,000 mm 0,0 UV-I 33 W/m 11,3 C 12,1 C 0,0 km/h 95,83 %
20.05.2022 06:32 12,0 C 95 % 1021,3 hPa 0,0 l/m 0,0 km/h SW 234 0 min 0,000 mm 0,0 UV-I 35 W/m 11,2 C 12,0 C 0,0 km/h 100,00 %
20.05.2022 06:31 12,1 C 95 % 1021,3 hPa 0,0 l/m 0,0 km/h SW 234 0 min 0,000 mm 0,0 UV-I 36 W/m 11,3 C 12,1 C 0,0 km/h 95,83 %
20.05.2022 06:30 12,0 C 94 % 1021,3 hPa 0,0 l/m 0,0 km/h SW 234 0 min 0,000 mm 0,0 UV-I 37 W/m 11,1 C 12,0 C 0,0 km/h 100,00 %
20.05.2022 06:29 12,0 C 94 % 1021,3 hPa 0,0 l/m 0,0 km/h SW 234 0 min 0,000 mm 0,0 UV-I 36 W/m 11,1 C 12,0 C 0,0 km/h 95,83 %
20.05.2022 06:28 12,0 C 94 % 1021,4 hPa 0,0 l/m 0,0 km/h SW 234 0 min 0,000 mm 0,0 UV-I 35 W/m 11,1 C 12,0 C 0,0 km/h 95,65 %
20.05.2022 06:27 12,0 C 94 % 1021,3 hPa 0,0 l/m 0,0 km/h SW 234 0 min 0,000 mm 0,0 UV-I 35 W/m 11,1 C 12,0 C 0,0 km/h 100,00 %
20.05.2022 06:26 12,1 C 94 % 1021,3 hPa 0,0 l/m 0,0 km/h SW 234 0 min 0,000 mm 0,0 UV-I 33 W/m 11,2 C 12,1 C 0,0 km/h 95,65 %
20.05.2022 06:25 12,1 C 94 % 1021,3 hPa 0,0 l/m 0,0 km/h SW 234 0 min 0,000 mm 0,0 UV-I 34 W/m 11,2 C 12,1 C 0,0 km/h 100,00 %
20.05.2022 06:24 12,1 C 94 % 1021,3 hPa 0,0 l/m 0,0 km/h SW 234 0 min 0,000 mm 0,0 UV-I 35 W/m 11,2 C 12,1 C 0,0 km/h 91,30 %
20.05.2022 06:23 12,2 C 94 % 1021,3 hPa 0,0 l/m 0,0 km/h SW 234 0 min 0,000 mm 0,0 UV-I 34 W/m 11,3 C 12,2 C 0,0 km/h 95,83 %
20.05.2022 06:22 12,1 C 94 % 1021,3 hPa 0,0 l/m 0,0 km/h SW 234 0 min 0,000 mm 0,0 UV-I 33 W/m 11,2 C 12,1 C 0,0 km/h 95,65 %
20.05.2022 06:21 12,2 C 94 % 1021,4 hPa 0,0 l/m 0,0 km/h SW 234 0 min 0,000 mm 0,0 UV-I 32 W/m 11,3 C 12,2 C 0,0 km/h 96,30 %
20.05.2022 06:20 12,2 C 94 % 1021,3 hPa 0,0 l/m 0,0 km/h SW 234 0 min 0,000 mm 0,0 UV-I 28 W/m 11,3 C 12,2 C 0,0 km/h 96,15 %
20.05.2022 06:19 12,2 C 95 % 1021,3 hPa 0,0 l/m 0,0 km/h SW 234 0 min 0,000 mm 0,0 UV-I 28 W/m 11,4 C 12,2 C 0,0 km/h 95,83 %
20.05.2022 06:18 12,2 C 95 % 1021,3 hPa 0,0 l/m 0,0 km/h SW 234 0 min 0,000 mm 0,0 UV-I 28 W/m 11,4 C 12,2 C 0,0 km/h 100,00 %
20.05.2022 06:17 12,2 C 94 % 1021,3 hPa 0,0 l/m 0,0 km/h SW 234 0 min 0,000 mm 0,0 UV-I 26 W/m 11,3 C 12,2 C 0,0 km/h 91,30 %
20.05.2022 06:16 12,2 C 94 % 1021,3 hPa 0,0 l/m 0,0 km/h SW 234 0 min 0,000 mm 0,0 UV-I 26 W/m 11,3 C 12,2 C 0,0 km/h 100,00 %
20.05.2022 06:15 12,1 C 94 % 1021,3 hPa 0,0 l/m 0,0 km/h SW 234 0 min 0,000 mm 0,0 UV-I 25 W/m 11,2 C 12,1 C 0,0 km/h 91,30 %
20.05.2022 06:14 12,2 C 94 % 1021,2 hPa 0,0 l/m 0,0 km/h SW 234 0 min 0,000 mm 0,0 UV-I 25 W/m 11,3 C 12,2 C 0,0 km/h 100,00 %
20.05.2022 06:13 12,2 C 94 % 1021,3 hPa 0,0 l/m 0,0 km/h SW 234 0 min 0,000 mm 0,0 UV-I 24 W/m 11,3 C 12,2 C 0,0 km/h 91,67 %
20.05.2022 06:12 12,2 C 94 % 1021,2 hPa 0,0 l/m 0,0 km/h SW 234 0 min 0,000 mm 0,0 UV-I 23 W/m 11,3 C 12,2 C 0,0 km/h 95,83 %
20.05.2022 06:11 12,2 C 94 % 1021,2 hPa 0,0 l/m 0,0 km/h SW 234 0 min 0,000 mm 0,0 UV-I 21 W/m 11,3 C 12,2 C 0,0 km/h 100,00 %
20.05.2022 06:10 12,2 C 94 % 1021,2 hPa 0,0 l/m 0,0 km/h SW 234 0 min 0,000 mm 0,0 UV-I 21 W/m 11,3 C 12,2 C 0,0 km/h 96,00 %
20.05.2022 06:09 12,2 C 94 % 1021,2 hPa 0,0 l/m 0,0 km/h SW 234 0 min 0,000 mm 0,0 UV-I 21 W/m 11,3 C 12,2 C 0,0 km/h 100,00 %
20.05.2022 06:08 12,2 C 94 % 1021,1 hPa 0,0 l/m 0,0 km/h SW 234 0 min 0,000 mm 0,0 UV-I 20 W/m 11,3 C 12,2 C 0,0 km/h 96,30 %
20.05.2022 06:07 12,2 C 94 % 1021,1 hPa 0,0 l/m 0,0 km/h SW 234 0 min 0,000 mm 0,0 UV-I 19 W/m 11,3 C 12,2 C 0,0 km/h 100,00 %
20.05.2022 06:06 12,2 C 94 % 1021,1 hPa 0,0 l/m 0,0 km/h SW 234 0 min 0,000 mm 0,0 UV-I 19 W/m 11,3 C 12,2 C 0,0 km/h 93,33 %
20.05.2022 06:05 12,2 C 94 % 1021,2 hPa 0,0 l/m 0,0 km/h SW 234 0 min 0,000 mm 0,0 UV-I 19 W/m 11,3 C 12,2 C 0,0 km/h 100,00 %
20.05.2022 06:04 12,2 C 94 % 1021,1 hPa 0,0 l/m 0,0 km/h SW 234 0 min 0,000 mm 0,0 UV-I 19 W/m 11,3 C 12,2 C 0,0 km/h 96,00 %
20.05.2022 06:03 12,2 C 94 % 1021,2 hPa 0,0 l/m 0,0 km/h SW 234 0 min 0,000 mm 0,0 UV-I 19 W/m 11,3 C 12,2 C 0,0 km/h 92,31 %
20.05.2022 06:02 12,1 C 94 % 1021,2 hPa 0,0 l/m 0,0 km/h SW 234 0 min 0,000 mm 0,0 UV-I 18 W/m 11,2 C 12,1 C 0,0 km/h 100,00 %
20.05.2022 06:01 12,2 C 94 % 1021,2 hPa 0,0 l/m 0,0 km/h SW 234 0 min 0,000 mm 0,0 UV-I 18 W/m 11,3 C 12,2 C 0,0 km/h 91,30 %
20.05.2022 06:00 12,1 C 95 % 1021,2 hPa 0,0 l/m 0,0 km/h SW 234 0 min 0,000 mm 0,0 UV-I 18 W/m 11,3 C 12,1 C 0,0 km/h 100,00 %
20.05.2022 05:59 12,1 C 95 % 1021,1 hPa 0,0 l/m 0,0 km/h SW 234 0 min 0,000 mm 0,0 UV-I 18 W/m 11,3 C 12,1 C 0,0 km/h 95,65 %
20.05.2022 05:58 12,1 C 95 % 1021,2 hPa 0,0 l/m 0,0 km/h SW 234 0 min 0,000 mm 0,0 UV-I 18 W/m 11,3 C 12,1 C 0,0 km/h 100,00 %
20.05.2022 05:57 11,9 C 94 % 1021,2 hPa 0,0 l/m 0,0 km/h SW 234 0 min 0,000 mm 0,0 UV-I 16 W/m 11,0 C 11,9 C 0,0 km/h 95,83 %
20.05.2022 05:56 11,9 C 94 % 1021,2 hPa 0,0 l/m 0,0 km/h SW 234 0 min 0,000 mm 0,0 UV-I 16 W/m 11,0 C 11,9 C 0,0 km/h 95,65 %
20.05.2022 05:55 11,9 C 94 % 1021,2 hPa 0,0 l/m 0,0 km/h SW 234 0 min 0,000 mm 0,0 UV-I 15 W/m 11,0 C 11,9 C 0,0 km/h 100,00 %
20.05.2022 05:54 11,9 C 93 % 1021,2 hPa 0,0 l/m 0,0 km/h SW 234 0 min 0,000 mm 0,0 UV-I 14 W/m 10,8 C 11,9 C 0,0 km/h 96,15 %
20.05.2022 05:53 11,9 C 93 % 1021,2 hPa 0,0 l/m 0,0 km/h SW 234 0 min 0,000 mm 0,0 UV-I 14 W/m 10,8 C 11,9 C 0,0 km/h 100,00 %
20.05.2022 05:52 11,9 C 93 % 1021,3 hPa 0,0 l/m 0,0 km/h SW 234 0 min 0,000 mm 0,0 UV-I 12 W/m 10,8 C 11,9 C 0,0 km/h 95,65 %
20.05.2022 05:51 11,9 C 93 % 1021,2 hPa 0,0 l/m 0,0 km/h SW 234 0 min 0,000 mm 0,0 UV-I 12 W/m 10,8 C 11,9 C 0,0 km/h 100,00 %
20.05.2022 05:50 12,1 C 93 % 1021,2 hPa 0,0 l/m 0,0 km/h SW 234 0 min 0,000 mm 0,0 UV-I 11 W/m 11,0 C 12,1 C 0,0 km/h 95,65 %
20.05.2022 05:49 12,1 C 93 % 1021,2 hPa 0,0 l/m 0,0 km/h SW 234 0 min 0,000 mm 0,0 UV-I 11 W/m 11,0 C 12,1 C 0,0 km/h 100,00 %
20.05.2022 05:48 12,2 C 93 % 1021,2 hPa 0,0 l/m 0,0 km/h SW 234 0 min 0,000 mm 0,0 UV-I 11 W/m 11,1 C 12,2 C 0,0 km/h 86,96 %
20.05.2022 05:47 12,2 C 93 % 1021,2 hPa 0,0 l/m 0,0 km/h SW 234 0 min 0,000 mm 0,0 UV-I 11 W/m 11,1 C 12,2 C 0,0 km/h 95,83 %
20.05.2022 05:46 12,2 C 92 % 1021,2 hPa 0,0 l/m 0,0 km/h SW 234 0 min 0,000 mm 0,0 UV-I 9 W/m 10,9 C 12,2 C 0,0 km/h 100,00 %
20.05.2022 05:45 12,3 C 92 % 1021,2 hPa 0,0 l/m 0,0 km/h SW 234 0 min 0,000 mm 0,0 UV-I 9 W/m 11,0 C 12,3 C 0,0 km/h 95,83 %
20.05.2022 05:44 12,4 C 93 % 1021,1 hPa 0,0 l/m 0,0 km/h SW 234 0 min 0,000 mm 0,0 UV-I 8 W/m 11,3 C 12,4 C 0,0 km/h 100,00 %
20.05.2022 05:43 12,4 C 93 % 1021,2 hPa 0,0 l/m 0,0 km/h SW 234 0 min 0,000 mm 0,0 UV-I 7 W/m 11,3 C 12,4 C 0,0 km/h 91,67 %
20.05.2022 05:42 12,4 C 93 % 1021,2 hPa 0,0 l/m 0,0 km/h SW 234 0 min 0,000 mm 0,0 UV-I 7 W/m 11,3 C 12,4 C 0,0 km/h 100,00 %
20.05.2022 05:41 12,5 C 93 % 1021,2 hPa 0,0 l/m 0,0 km/h SW 234 0 min 0,000 mm 0,0 UV-I 7 W/m 11,4 C 12,5 C 0,0 km/h 95,65 %
20.05.2022 05:40 12,6 C 93 % 1021,2 hPa 0,0 l/m 0,0 km/h SW 234 0 min 0,000 mm 0,0 UV-I 5 W/m 11,5 C 12,6 C 0,0 km/h 100,00 %
20.05.2022 05:39 12,6 C 94 % 1021,1 hPa 0,0 l/m 0,0 km/h SW 234 0 min 0,000 mm 0,0 UV-I 5 W/m 11,7 C 12,6 C 0,0 km/h 95,65 %
20.05.2022 05:38 12,6 C 94 % 1021,2 hPa 0,0 l/m 0,0 km/h SW 234 0 min 0,000 mm 0,0 UV-I 5 W/m 11,7 C 12,6 C 0,0 km/h 100,00 %
20.05.2022 05:37 12,7 C 93 % 1021,2 hPa 0,0 l/m 0,0 km/h SW 234 0 min 0,000 mm 0,0 UV-I 5 W/m 11,6 C 12,7 C 0,0 km/h 95,83 %
20.05.2022 05:36 12,7 C 93 % 1021,2 hPa 0,0 l/m 0,0 km/h SW 234 0 min 0,000 mm 0,0 UV-I 5 W/m 11,6 C 12,7 C 0,0 km/h 96,67 %
20.05.2022 05:35 12,7 C 93 % 1021,2 hPa 0,0 l/m 0,0 km/h SW 234 0 min 0,000 mm 0,0 UV-I 5 W/m 11,6 C 12,7 C 0,0 km/h 100,00 %
20.05.2022 05:34 12,7 C 94 % 1021,2 hPa 0,0 l/m 0,0 km/h SW 234 0 min 0,000 mm 0,0 UV-I 0 W/m 11,8 C 12,7 C 0,0 km/h 95,83 %
20.05.2022 05:33 12,8 C 94 % 1021,2 hPa 0,0 l/m 0,0 km/h SW 234 0 min 0,000 mm 0,0 UV-I 0 W/m 11,9 C 12,8 C 0,0 km/h 100,00 %
20.05.2022 05:32 12,8 C 94 % 1021,2 hPa 0,0 l/m 0,0 km/h SW 234 0 min 0,000 mm 0,0 UV-I 0 W/m 11,9 C 12,8 C 0,0 km/h 95,83 %
20.05.2022 05:31 12,7 C 95 % 1021,2 hPa 0,0 l/m 0,0 km/h SW 234 0 min 0,000 mm 0,0 UV-I 0 W/m 11,9 C 12,7 C 0,0 km/h 95,65 %
20.05.2022 05:30 12,7 C 95 % 1021,1 hPa 0,0 l/m 0,0 km/h SW 234 0 min 0,000 mm 0,0 UV-I 0 W/m 11,9 C 12,7 C 0,0 km/h 95,83 %
20.05.2022 05:29 12,7 C 94 % 1021,1 hPa 0,0 l/m 0,0 km/h SW 234 0 min 0,000 mm 0,0 UV-I 0 W/m 11,8 C 12,7 C 0,0 km/h 100,00 %
20.05.2022 05:28 12,6 C 94 % 1021,2 hPa 0,0 l/m 0,0 km/h SW 234 0 min 0,000 mm 0,0 UV-I 0 W/m 11,7 C 12,6 C 0,0 km/h 96,00 %
20.05.2022 05:27 12,6 C 94 % 1021,2 hPa 0,0 l/m 0,0 km/h SW 234 0 min 0,000 mm 0,0 UV-I 0 W/m 11,7 C 12,6 C 0,0 km/h 95,83 %
20.05.2022 05:26 12,6 C 94 % 1021,2 hPa 0,0 l/m 0,0 km/h SW 234 0 min 0,000 mm 0,0 UV-I 0 W/m 11,7 C 12,6 C 0,0 km/h 100,00 %
20.05.2022 05:25 12,5 C 94 % 1021,1 hPa 0,0 l/m 0,0 km/h SW 234 0 min 0,000 mm 0,0 UV-I 0 W/m 11,6 C 12,5 C 0,0 km/h 96,15 %
20.05.2022 05:24 12,5 C 94 % 1021,1 hPa 0,0 l/m 0,0 km/h SW 234 0 min 0,000 mm 0,0 UV-I 0 W/m 11,6 C 12,5 C 0,0 km/h 100,00 %
20.05.2022 05:23 12,5 C 94 % 1021,1 hPa 0,0 l/m 0,0 km/h SW 234 0 min 0,000 mm 0,0 UV-I 0 W/m 11,6 C 12,5 C 0,0 km/h 93,33 %
20.05.2022 05:22 12,5 C 94 % 1021,1 hPa 0,0 l/m 0,0 km/h SW 234 0 min 0,000 mm 0,0 UV-I 0 W/m 11,6 C 12,5 C 0,0 km/h 100,00 %
20.05.2022 05:21 12,6 C 94 % 1021,2 hPa 0,0 l/m 0,0 km/h SW 234 0 min 0,000 mm 0,0 UV-I 0 W/m 11,7 C 12,6 C 0,0 km/h 95,83 %
20.05.2022 05:20 12,6 C 95 % 1021,2 hPa 0,0 l/m 0,0 km/h SW 234 0 min 0,000 mm 0,0 UV-I 0 W/m 11,8 C 12,6 C 0,0 km/h 96,15 %
20.05.2022 05:19 12,6 C 95 % 1021,2 hPa 0,0 l/m 0,0 km/h SW 234 0 min 0,000 mm 0,0 UV-I 0 W/m 11,8 C 12,6 C 0,0 km/h 100,00 %
20.05.2022 05:18 12,5 C 95 % 1021,2 hPa 0,0 l/m 0,0 km/h SW 234 0 min 0,000 mm 0,0 UV-I 0 W/m 11,7 C 12,5 C 0,0 km/h 95,65 %
20.05.2022 05:17 12,5 C 95 % 1021,2 hPa 0,0 l/m 0,0 km/h SW 234 0 min 0,000 mm 0,0 UV-I 0 W/m 11,7 C 12,5 C 0,0 km/h 100,00 %
20.05.2022 05:16 12,4 C 94 % 1021,2 hPa 0,0 l/m 0,0 km/h SW 234 0 min 0,000 mm 0,0 UV-I 0 W/m 11,5 C 12,4 C 0,0 km/h 95,65 %
20.05.2022 05:15 12,4 C 94 % 1021,1 hPa 0,0 l/m 0,0 km/h SW 234 0 min 0,000 mm 0,0 UV-I 0 W/m 11,5 C 12,4 C 0,0 km/h 100,00 %
20.05.2022 05:14 12,4 C 94 % 1021,1 hPa 0,0 l/m 0,0 km/h SW 234 0 min 0,000 mm 0,0 UV-I 0 W/m 11,5 C 12,4 C 0,0 km/h 95,65 %
20.05.2022 05:13 12,4 C 94 % 1021,1 hPa 0,0 l/m 0,0 km/h SW 234 0 min 0,000 mm 0,0 UV-I 0 W/m 11,5 C 12,4 C 0,0 km/h 95,83 %
20.05.2022 05:12 12,4 C 94 % 1021,1 hPa 0,0 l/m 0,0 km/h SW 234 0 min 0,000 mm 0,0 UV-I 0 W/m 11,5 C 12,4 C 0,0 km/h 100,00 %
20.05.2022 05:11 12,4 C 94 % 1021,1 hPa 0,0 l/m 0,0 km/h SW 234 0 min 0,000 mm 0,0 UV-I 0 W/m 11,5 C 12,4 C 0,0 km/h 92,59 %
20.05.2022 05:10 12,4 C 94 % 1021,1 hPa 0,0 l/m 0,0 km/h SW 234 0 min 0,000 mm 0,0 UV-I 0 W/m 11,5 C 12,4 C 0,0 km/h 100,00 %
20.05.2022 05:09 12,4 C 94 % 1021,1 hPa 0,0 l/m 0,0 km/h SW 234 0 min 0,000 mm 0,0 UV-I 0 W/m 11,5 C 12,4 C 0,0 km/h 95,83 %
20.05.2022 05:08 12,4 C 94 % 1021,1 hPa 0,0 l/m 0,0 km/h SW 234 0 min 0,000 mm 0,0 UV-I 0 W/m 11,5 C 12,4 C 0,0 km/h 100,00 %
20.05.2022 05:07 12,4 C 94 % 1021,1 hPa 0,0 l/m 0,0 km/h SW 234 0 min 0,000 mm 0,0 UV-I 0 W/m 11,5 C 12,4 C 0,0 km/h 92,00 %
20.05.2022 05:06 12,4 C 94 % 1021,1 hPa 0,0 l/m 0,0 km/h SW 234 0 min 0,000 mm 0,0 UV-I 0 W/m 11,5 C 12,4 C 0,0 km/h 100,00 %
20.05.2022 05:05 12,4 C 94 % 1021,1 hPa 0,0 l/m 0,0 km/h SW 234 0 min 0,000 mm 0,0 UV-I 0 W/m 11,5 C 12,4 C 0,0 km/h 96,67 %
20.05.2022 05:04 12,4 C 94 % 1021,2 hPa 0,0 l/m 0,0 km/h SW 234 0 min 0,000 mm 0,0 UV-I 0 W/m 11,5 C 12,4 C 0,0 km/h 96,15 %
20.05.2022 05:03 12,4 C 94 % 1021,2 hPa 0,0 l/m 0,0 km/h SW 234 0 min 0,000 mm 0,0 UV-I 0 W/m 11,5 C 12,4 C 0,0 km/h 100,00 %
20.05.2022 05:02 12,4 C 94 % 1021,3 hPa 0,0 l/m 0,0 km/h SW 234 0 min 0,000 mm 0,0 UV-I 0 W/m 11,5 C 12,4 C 0,0 km/h 100,00 %
20.05.2022 05:01 12,3 C 94 % 1021,3 hPa 0,0 l/m 0,0 km/h SW 234 0 min 0,000 mm 0,0 UV-I 0 W/m 11,4 C 12,3 C 0,0 km/h 92,31 %
20.05.2022 05:00 12,4 C 93 % 1021,4 hPa 0,0 l/m 0,0 km/h SW 234 0 min 0,000 mm 0,0 UV-I 0 W/m 11,3 C 12,4 C 0,0 km/h 95,83 %
20.05.2022 04:59 12,4 C 93 % 1021,4 hPa 0,0 l/m 0,0 km/h SW 234 0 min 0,000 mm 0,0 UV-I 0 W/m 11,3 C 12,4 C 0,0 km/h 100,00 %
20.05.2022 04:58 12,4 C 93 % 1021,4 hPa 0,0 l/m 0,0 km/h SW 234 0 min 0,000 mm 0,0 UV-I 0 W/m 11,3 C 12,4 C 0,0 km/h 95,83 %
20.05.2022 04:57 12,5 C 94 % 1021,3 hPa 0,0 l/m 0,0 km/h SW 234 0 min 0,000 mm 0,0 UV-I 0 W/m 11,6 C 12,5 C 0,0 km/h 100,00 %
20.05.2022 04:56 12,6 C 94 % 1021,2 hPa 0,0 l/m 0,0 km/h SW 234 0 min 0,000 mm 0,0 UV-I 0 W/m 11,7 C 12,6 C 0,0 km/h 95,83 %
20.05.2022 04:55 12,6 C 94 % 1021,2 hPa 0,0 l/m 0,0 km/h SW 234 0 min 0,000 mm 0,0 UV-I 0 W/m 11,7 C 12,6 C 0,0 km/h 100,00 %
20.05.2022 04:54 12,6 C 95 % 1021,3 hPa 0,0 l/m 0,0 km/h SW 234 0 min 0,000 mm 0,0 UV-I 0 W/m 11,8 C 12,6 C 0,0 km/h 95,83 %
20.05.2022 04:53 12,6 C 95 % 1021,2 hPa 0,0 l/m 0,0 km/h SW 234 0 min 0,000 mm 0,0 UV-I 0 W/m 11,8 C 12,6 C 0,0 km/h 100,00 %
20.05.2022 04:52 12,5 C 94 % 1021,3 hPa 0,0 l/m 0,0 km/h SW 234 0 min 0,000 mm 0,0 UV-I 0 W/m 11,6 C 12,5 C 0,0 km/h 96,77 %
20.05.2022 04:51 12,5 C 94 % 1021,2 hPa 0,0 l/m 0,0 km/h SW 234 0 min 0,000 mm 0,0 UV-I 0 W/m 11,6 C 12,5 C 0,0 km/h 95,65 %
20.05.2022 04:50 12,4 C 94 % 1021,2 hPa 0,0 l/m 0,0 km/h SW 234 0 min 0,000 mm 0,0 UV-I 0 W/m 11,5 C 12,4 C 0,0 km/h 100,00 %
20.05.2022 04:49 12,5 C 94 % 1021,2 hPa 0,0 l/m 0,0 km/h SW 234 0 min 0,000 mm 0,0 UV-I 0 W/m 11,6 C 12,5 C 0,0 km/h 96,00 %
20.05.2022 04:48 12,4 C 94 % 1021,2 hPa 0,0 l/m 0,0 km/h SW 234 0 min 0,000 mm 0,0 UV-I 0 W/m 11,5 C 12,4 C 0,0 km/h 100,00 %
20.05.2022 04:47 12,5 C 94 % 1021,2 hPa 0,0 l/m 0,0 km/h SW 234 0 min 0,000 mm 0,0 UV-I 0 W/m 11,6 C 12,5 C 0,0 km/h 95,65 %
20.05.2022 04:46 12,4 C 94 % 1021,2 hPa 0,0 l/m 0,0 km/h SW 234 0 min 0,000 mm 0,0 UV-I 0 W/m 11,5 C 12,4 C 0,0 km/h 95,83 %
20.05.2022 04:45 12,4 C 94 % 1021,1 hPa 0,0 l/m 0,0 km/h SW 234 0 min 0,000 mm 0,0 UV-I 0 W/m 11,5 C 12,4 C 0,0 km/h 95,65 %
20.05.2022 04:44 12,4 C 94 % 1021,2 hPa 0,0 l/m 0,0 km/h SW 234 0 min 0,000 mm 0,0 UV-I 0 W/m 11,5 C 12,4 C 0,0 km/h 100,00 %
20.05.2022 04:43 12,4 C 94 % 1021,1 hPa 0,0 l/m 0,0 km/h SW 234 0 min 0,000 mm 0,0 UV-I 0 W/m 11,5 C 12,4 C 0,0 km/h 100,00 %
20.05.2022 04:42 12,4 C 94 % 1021,2 hPa 0,0 l/m 0,0 km/h SW 234 0 min 0,000 mm 0,0 UV-I 0 W/m 11,5 C 12,4 C 0,0 km/h 100,00 %
20.05.2022 04:41 12,4 C 93 % 1021,2 hPa 0,0 l/m 0,0 km/h SW 234 0 min 0,000 mm 0,0 UV-I 0 W/m 11,3 C 12,4 C 0,0 km/h 100,00 %
20.05.2022 04:40 12,4 C 93 % 1021,2 hPa 0,0 l/m 0,0 km/h SW 234 0 min 0,000 mm 0,0 UV-I 0 W/m 11,3 C 12,4 C 0,0 km/h 100,00 %
20.05.2022 04:39 12,4 C 93 % 1021,2 hPa 0,0 l/m 0,0 km/h SW 234 0 min 0,000 mm 0,0 UV-I 0 W/m 11,3 C 12,4 C 0,0 km/h 100,00 %
20.05.2022 04:38 12,4 C 93 % 1021,2 hPa 0,0 l/m 0,0 km/h SW 234 0 min 0,000 mm 0,0 UV-I 0 W/m 11,3 C 12,4 C 0,0 km/h 95,65 %
20.05.2022 04:37 12,6 C 94 % 1021,2 hPa 0,0 l/m 0,0 km/h SW 234 0 min 0,000 mm 0,0 UV-I 0 W/m 11,7 C 12,6 C 0,0 km/h 100,00 %
20.05.2022 04:36 12,6 C 94 % 1021,2 hPa 0,0 l/m 0,0 km/h SW 234 0 min 0,000 mm 0,0 UV-I 0 W/m 11,7 C 12,6 C 0,0 km/h 95,65 %
20.05.2022 04:35 12,6 C 94 % 1021,1 hPa 0,0 l/m 0,0 km/h SW 234 0 min 0,000 mm 0,0 UV-I 0 W/m 11,7 C 12,6 C 0,0 km/h 100,00 %
20.05.2022 04:34 12,6 C 94 % 1021,2 hPa 0,0 l/m 0,0 km/h SW 234 0 min 0,000 mm 0,0 UV-I 0 W/m 11,7 C 12,6 C 0,0 km/h 100,00 %
20.05.2022 04:33 12,5 C 94 % 1021,1 hPa 0,0 l/m 0,0 km/h SW 234 0 min 0,000 mm 0,0 UV-I 0 W/m 11,6 C 12,5 C 0,0 km/h 100,00 %
20.05.2022 04:32 12,5 C 94 % 1021,1 hPa 0,0 l/m 0,0 km/h SW 234 0 min 0,000 mm 0,0 UV-I 0 W/m 11,6 C 12,5 C 0,0 km/h 100,00 %
20.05.2022 04:31 12,4 C 93 % 1021,1 hPa 0,0 l/m 0,0 km/h SW 234 0 min 0,000 mm 0,0 UV-I 0 W/m 11,3 C 12,4 C 0,0 km/h 95,83 %
20.05.2022 04:30 12,4 C 93 % 1021,1 hPa 0,0 l/m 0,0 km/h SW 234 0 min 0,000 mm 0,0 UV-I 0 W/m 11,3 C 12,4 C 0,0 km/h 100,00 %
20.05.2022 04:29 12,4 C 93 % 1021,1 hPa 0,0 l/m 0,0 km/h SW 234 0 min 0,000 mm 0,0 UV-I 0 W/m 11,3 C 12,4 C 0,0 km/h 100,00 %
20.05.2022 04:28 12,4 C 93 % 1021,1 hPa 0,0 l/m 0,0 km/h SW 234 0 min 0,000 mm 0,0 UV-I 0 W/m 11,3 C 12,4 C 0,0 km/h 100,00 %
20.05.2022 04:27 12,5 C 93 % 1021,2 hPa 0,0 l/m 0,0 km/h SW 234 0 min 0,000 mm 0,0 UV-I 0 W/m 11,4 C 12,5 C 0,0 km/h 95,83 %
20.05.2022 04:26 12,5 C 93 % 1021,1 hPa 0,0 l/m 0,0 km/h SW 234 0 min 0,000 mm 0,0 UV-I 0 W/m 11,4 C 12,5 C 0,0 km/h 100,00 %
20.05.2022 04:25 12,5 C 92 % 1021,2 hPa 0,0 l/m 0,0 km/h SW 234 0 min 0,000 mm 0,0 UV-I 0 W/m 11,2 C 12,5 C 0,0 km/h 100,00 %
20.05.2022 04:24 12,6 C 92 % 1021,1 hPa 0,0 l/m 0,0 km/h SW 234 0 min 0,000 mm 0,0 UV-I 0 W/m 11,3 C 12,6 C 0,0 km/h 96,15 %
20.05.2022 04:23 12,7 C 92 % 1021,1 hPa 0,0 l/m 0,0 km/h SW 234 0 min 0,000 mm 0,0 UV-I 0 W/m 11,4 C 12,7 C 0,0 km/h 100,00 %
20.05.2022 04:22 12,8 C 92 % 1021,1 hPa 0,0 l/m 0,0 km/h SW 234 0 min 0,000 mm 0,0 UV-I 0 W/m 11,5 C 12,8 C 0,0 km/h 100,00 %
20.05.2022 04:21 12,8 C 93 % 1021,1 hPa 0,0 l/m 0,0 km/h SW 234 0 min 0,000 mm 0,0 UV-I 0 W/m 11,7 C 12,8 C 0,0 km/h 95,65 %
20.05.2022 04:20 12,9 C 93 % 1021,0 hPa 0,0 l/m 0,0 km/h SW 234 0 min 0,000 mm 0,0 UV-I 0 W/m 11,8 C 12,9 C 0,0 km/h 96,30 %
20.05.2022 04:19 12,9 C 93 % 1021,0 hPa 0,0 l/m 0,0 km/h SW 234 0 min 0,000 mm 0,0 UV-I 0 W/m 11,8 C 12,9 C 0,0 km/h 91,67 %
20.05.2022 04:18 12,9 C 93 % 1021,0 hPa 0,0 l/m 0,0 km/h SW 234 0 min 0,000 mm 0,0 UV-I 0 W/m 11,8 C 12,9 C 0,0 km/h 100,00 %
20.05.2022 04:17 12,9 C 93 % 1021,1 hPa 0,0 l/m 0,0 km/h SW 234 0 min 0,000 mm 0,0 UV-I 0 W/m 11,8 C 12,9 C 0,0 km/h 100,00 %
20.05.2022 04:16 12,9 C 92 % 1021,1 hPa 0,0 l/m 0,0 km/h SW 234 0 min 0,000 mm 0,0 UV-I 0 W/m 11,6 C 12,9 C 0,0 km/h 100,00 %
20.05.2022 04:15 12,9 C 92 % 1021,1 hPa 0,0 l/m 0,0 km/h SW 234 0 min 0,000 mm 0,0 UV-I 0 W/m 11,6 C 12,9 C 0,0 km/h 100,00 %
20.05.2022 04:14 13,0 C 92 % 1021,1 hPa 0,0 l/m 0,0 km/h SW 234 0 min 0,000 mm 0,0 UV-I 0 W/m 11,7 C 13,0 C 0,0 km/h 100,00 %
20.05.2022 04:13 13,1 C 93 % 1021,2 hPa 0,0 l/m 0,0 km/h SW 234 0 min 0,000 mm 0,0 UV-I 0 W/m 12,0 C 13,1 C 0,0 km/h 96,15 %
20.05.2022 04:12 13,1 C 93 % 1021,2 hPa 0,0 l/m 0,0 km/h SW 234 0 min 0,000 mm 0,0 UV-I 0 W/m 12,0 C 13,1 C 0,0 km/h 100,00 %
20.05.2022 04:11 13,2 C 93 % 1021,2 hPa 0,0 l/m 0,0 km/h SW 234 0 min 0,000 mm 0,0 UV-I 0 W/m 12,1 C 13,2 C 0,0 km/h 100,00 %
20.05.2022 04:10 13,2 C 93 % 1021,2 hPa 0,0 l/m 0,0 km/h SW 234 0 min 0,000 mm 0,0 UV-I 0 W/m 12,1 C 13,2 C 0,0 km/h 100,00 %
20.05.2022 04:09 13,3 C 93 % 1021,3 hPa 0,0 l/m 0,0 km/h SW 234 0 min 0,000 mm 0,0 UV-I 0 W/m 12,2 C 13,3 C 0,0 km/h 95,65 %
20.05.2022 04:08 13,3 C 93 % 1021,3 hPa 0,0 l/m 0,0 km/h SW 234 0 min 0,000 mm 0,0 UV-I 0 W/m 12,2 C 13,3 C 0,0 km/h 100,00 %
20.05.2022 04:07 13,3 C 94 % 1021,4 hPa 0,0 l/m 0,0 km/h SW 234 0 min 0,000 mm 0,0 UV-I 0 W/m 12,4 C 13,3 C 0,0 km/h 100,00 %
20.05.2022 04:06 13,3 C 94 % 1021,4 hPa 0,0 l/m 0,0 km/h SW 234 0 min 0,000 mm 0,0 UV-I 0 W/m 12,4 C 13,3 C 0,0 km/h 100,00 %
20.05.2022 04:05 13,3 C 94 % 1021,4 hPa 0,0 l/m 0,0 km/h SW 234 0 min 0,000 mm 0,0 UV-I 0 W/m 12,4 C 13,3 C 0,0 km/h 100,00 %
20.05.2022 04:04 13,3 C 94 % 1021,4 hPa 0,0 l/m 0,0 km/h SW 234 0 min 0,000 mm 0,0 UV-I 0 W/m 12,4 C 13,3 C 0,0 km/h 100,00 %
20.05.2022 04:03 13,3 C 94 % 1021,5 hPa 0,0 l/m 0,0 km/h SW 234 0 min 0,000 mm 0,0 UV-I 0 W/m 12,4 C 13,3 C 0,0 km/h 100,00 %
20.05.2022 04:02 13,3 C 94 % 1021,5 hPa 0,0 l/m 0,0 km/h SW 234 0 min 0,000 mm 0,0 UV-I 0 W/m 12,4 C 13,3 C 0,0 km/h 96,15 %
20.05.2022 04:01 13,3 C 94 % 1021,4 hPa 0,0 l/m 0,0 km/h SW 234 0 min 0,000 mm 0,0 UV-I 0 W/m 12,4 C 13,3 C 0,0 km/h 100,00 %
20.05.2022 04:00 13,2 C 94 % 1021,5 hPa 0,0 l/m 0,0 km/h SW 234 0 min 0,000 mm 0,0 UV-I 0 W/m 12,3 C 13,2 C 0,0 km/h 100,00 %
20.05.2022 03:59 13,3 C 94 % 1021,5 hPa 0,0 l/m 0,0 km/h SW 234 0 min 0,000 mm 0,0 UV-I 0 W/m 12,4 C 13,3 C 0,0 km/h 100,00 %
20.05.2022 03:58 13,2 C 94 % 1021,5 hPa 0,0 l/m 0,0 km/h SW 234 0 min 0,000 mm 0,0 UV-I 0 W/m 12,3 C 13,2 C 0,0 km/h 99,33 %
20.05.2022 03:57 13,2 C 94 % 1021,4 hPa 0,0 l/m 0,0 km/h SW 234 0 min 0,000 mm 0,0 UV-I 0 W/m 12,3 C 13,2 C 0,0 km/h 100,00 %
20.05.2022 03:56 13,2 C 94 % 1021,5 hPa 0,0 l/m 0,0 km/h SW 234 0 min 0,000 mm 0,0 UV-I 0 W/m 12,3 C 13,2 C 0,0 km/h 96,15 %
20.05.2022 03:55 13,2 C 94 % 1021,5 hPa 0,0 l/m 0,0 km/h SW 234 0 min 0,000 mm 0,0 UV-I 0 W/m 12,3 C 13,2 C 0,0 km/h 100,00 %
20.05.2022 03:54 13,2 C 94 % 1021,5 hPa 0,0 l/m 0,0 km/h SW 234 0 min 0,000 mm 0,0 UV-I 0 W/m 12,3 C 13,2 C 0,0 km/h 100,00 %
20.05.2022 03:53 13,2 C 94 % 1021,5 hPa 0,0 l/m 0,0 km/h SW 234 0 min 0,000 mm 0,0 UV-I 0 W/m 12,3 C 13,2 C 0,0 km/h 100,00 %
20.05.2022 03:52 13,1 C 94 % 1021,5 hPa 0,0 l/m 0,0 km/h SW 234 0 min 0,000 mm 0,0 UV-I 0 W/m 12,2 C 13,1 C 0,0 km/h 95,83 %
20.05.2022 03:51 13,1 C 94 % 1021,5 hPa 0,0 l/m 0,0 km/h SW 234 0 min 0,000 mm 0,0 UV-I 0 W/m 12,2 C 13,1 C 0,0 km/h 100,00 %
20.05.2022 03:50 13,1 C 94 % 1021,5 hPa 0,0 l/m 0,0 km/h SW 234 0 min 0,000 mm 0,0 UV-I 0 W/m 12,2 C 13,1 C 0,0 km/h 100,00 %
20.05.2022 03:49 13,1 C 94 % 1021,5 hPa 0,0 l/m 0,0 km/h SW 234 0 min 0,000 mm 0,0 UV-I 0 W/m 12,2 C 13,1 C 0,0 km/h 100,00 %
20.05.2022 03:48 13,1 C 94 % 1021,6 hPa 0,0 l/m 0,0 km/h SW 234 0 min 0,000 mm 0,0 UV-I 0 W/m 12,2 C 13,1 C 0,0 km/h 100,00 %
20.05.2022 03:47 13,0 C 93 % 1021,6 hPa 0,0 l/m 0,0 km/h SW 234 0 min 0,000 mm 0,0 UV-I 0 W/m 11,9 C 13,0 C 0,0 km/h 100,00 %
20.05.2022 03:46 13,1 C 94 % 1021,6 hPa 0,0 l/m 0,0 km/h SW 234 0 min 0,000 mm 0,0 UV-I 0 W/m 12,2 C 13,1 C 0,0 km/h 100,00 %
20.05.2022 03:45 13,1 C 94 % 1021,6 hPa 0,0 l/m 0,0 km/h SW 234 0 min 0,000 mm 0,0 UV-I 0 W/m 12,2 C 13,1 C 0,0 km/h 100,00 %
20.05.2022 03:44 13,1 C 94 % 1021,6 hPa 0,0 l/m 0,0 km/h SW 234 0 min 0,000 mm 0,0 UV-I 0 W/m 12,2 C 13,1 C 0,0 km/h 100,00 %
20.05.2022 03:43 13,1 C 94 % 1021,6 hPa 0,0 l/m 0,0 km/h SW 234 0 min 0,000 mm 0,0 UV-I 0 W/m 12,2 C 13,1 C 0,0 km/h 100,00 %
20.05.2022 03:42 13,1 C 93 % 1021,6 hPa 0,0 l/m 0,0 km/h SW 234 0 min 0,000 mm 0,0 UV-I 0 W/m 12,0 C 13,1 C 0,0 km/h 100,00 %
20.05.2022 03:41 13,2 C 94 % 1021,6 hPa 0,0 l/m 0,0 km/h SW 234 0 min 0,000 mm 0,0 UV-I 0 W/m 12,3 C 13,2 C 0,0 km/h 100,00 %
20.05.2022 03:40 13,2 C 94 % 1021,6 hPa 0,0 l/m 0,0 km/h SW 234 0 min 0,000 mm 0,0 UV-I 0 W/m 12,3 C 13,2 C 0,0 km/h 100,00 %
20.05.2022 03:39 13,2 C 95 % 1021,6 hPa 0,0 l/m 0,0 km/h SW 234 0 min 0,000 mm 0,0 UV-I 0 W/m 12,4 C 13,2 C 0,0 km/h 100,00 %
20.05.2022 03:38 13,2 C 94 % 1021,6 hPa 0,0 l/m 0,0 km/h SW 234 0 min 0,000 mm 0,0 UV-I 0 W/m 12,3 C 13,2 C 0,0 km/h 100,00 %
20.05.2022 03:37 13,1 C 95 % 1021,6 hPa 0,0 l/m 0,0 km/h SW 234 0 min 0,000 mm 0,0 UV-I 0 W/m 12,3 C 13,1 C 0,0 km/h 97,56 %
20.05.2022 03:36 13,1 C 94 % 1021,6 hPa 0,0 l/m 0,0 km/h SW 234 0 min 0,000 mm 0,0 UV-I 0 W/m 12,2 C 13,1 C 0,0 km/h 99,32 %
20.05.2022 03:35 13,0 C 94 % 1021,7 hPa 0,0 l/m 0,0 km/h SW 234 0 min 0,000 mm 0,0 UV-I 0 W/m 12,1 C 13,0 C 0,0 km/h 95,65 %
20.05.2022 03:34 12,9 C 94 % 1021,7 hPa 0,0 l/m 0,0 km/h SW 234 0 min 0,000 mm 0,0 UV-I 0 W/m 12,0 C 12,9 C 0,0 km/h 100,00 %
20.05.2022 03:33 12,9 C 93 % 1021,7 hPa 0,0 l/m 0,0 km/h SW 234 0 min 0,000 mm 0,0 UV-I 0 W/m 11,8 C 12,9 C 0,0 km/h 100,00 %
20.05.2022 03:32 12,9 C 93 % 1021,7 hPa 0,0 l/m 0,0 km/h SW 234 0 min 0,000 mm 0,0 UV-I 0 W/m 11,8 C 12,9 C 0,0 km/h 100,00 %
20.05.2022 03:31 12,9 C 93 % 1021,6 hPa 0,0 l/m 0,0 km/h SW 234 0 min 0,000 mm 0,0 UV-I 0 W/m 11,8 C 12,9 C 0,0 km/h 100,00 %
20.05.2022 03:30 12,9 C 93 % 1021,6 hPa 0,0 l/m 0,0 km/h SW 234 0 min 0,000 mm 0,0 UV-I 0 W/m 11,8 C 12,9 C 0,0 km/h 100,00 %
20.05.2022 03:29 13,0 C 93 % 1021,7 hPa 0,0 l/m 0,0 km/h SW 234 0 min 0,000 mm 0,0 UV-I 0 W/m 11,9 C 13,0 C 0,0 km/h 96,15 %
20.05.2022 03:28 13,1 C 93 % 1021,7 hPa 0,0 l/m 0,0 km/h SW 234 0 min 0,000 mm 0,0 UV-I 0 W/m 12,0 C 13,1 C 0,0 km/h 100,00 %
20.05.2022 03:27 13,1 C 93 % 1021,6 hPa 0,0 l/m 0,0 km/h SW 234 0 min 0,000 mm 0,0 UV-I 0 W/m 12,0 C 13,1 C 0,0 km/h 100,00 %
20.05.2022 03:26 13,2 C 93 % 1021,6 hPa 0,0 l/m 0,0 km/h SW 234 0 min 0,000 mm 0,0 UV-I 0 W/m 12,1 C 13,2 C 0,0 km/h 100,00 %
20.05.2022 03:25 13,2 C 93 % 1021,6 hPa 0,0 l/m 0,0 km/h SW 234 0 min 0,000 mm 0,0 UV-I 0 W/m 12,1 C 13,2 C 0,0 km/h 100,00 %
20.05.2022 03:24 13,2 C 93 % 1021,6 hPa 0,0 l/m 0,0 km/h SW 234 0 min 0,000 mm 0,0 UV-I 0 W/m 12,1 C 13,2 C 0,0 km/h 100,00 %
20.05.2022 03:23 13,3 C 93 % 1021,6 hPa 0,0 l/m 0,0 km/h SW 234 0 min 0,000 mm 0,0 UV-I 0 W/m 12,2 C 13,3 C 0,0 km/h 100,00 %
20.05.2022 03:22 13,3 C 93 % 1021,6 hPa 0,0 l/m 0,0 km/h SW 234 0 min 0,000 mm 0,0 UV-I 0 W/m 12,2 C 13,3 C 0,0 km/h 100,00 %
20.05.2022 03:21 13,4 C 93 % 1021,6 hPa 0,0 l/m 0,0 km/h SW 234 0 min 0,000 mm 0,0 UV-I 0 W/m 12,3 C 13,4 C 0,0 km/h 100,00 %
20.05.2022 03:20 13,4 C 94 % 1021,6 hPa 0,0 l/m 0,0 km/h SW 234 0 min 0,000 mm 0,0 UV-I 0 W/m 12,5 C 13,4 C 0,0 km/h 100,00 %
20.05.2022 03:19 13,5 C 94 % 1021,6 hPa 0,0 l/m 0,0 km/h SW 234 0 min 0,000 mm 0,0 UV-I 0 W/m 12,6 C 13,5 C 0,0 km/h 100,00 %
20.05.2022 03:18 13,5 C 94 % 1021,6 hPa 0,0 l/m 0,0 km/h SW 234 0 min 0,000 mm 0,0 UV-I 0 W/m 12,6 C 13,5 C 0,0 km/h 100,00 %
20.05.2022 03:17 13,5 C 94 % 1021,6 hPa 0,0 l/m 0,0 km/h SW 234 0 min 0,000 mm 0,0 UV-I 0 W/m 12,6 C 13,5 C 0,0 km/h 100,00 %
20.05.2022 03:16 13,4 C 94 % 1021,6 hPa 0,0 l/m 0,0 km/h SW 234 0 min 0,000 mm 0,0 UV-I 0 W/m 12,5 C 13,4 C 0,0 km/h 100,00 %
20.05.2022 03:15 13,4 C 94 % 1021,6 hPa 0,0 l/m 0,0 km/h SW 234 0 min 0,000 mm 0,0 UV-I 0 W/m 12,5 C 13,4 C 0,0 km/h 100,00 %
20.05.2022 03:14 13,4 C 94 % 1021,6 hPa 0,0 l/m 0,0 km/h SW 234 0 min 0,000 mm 0,0 UV-I 0 W/m 12,5 C 13,4 C 0,0 km/h 100,00 %
20.05.2022 03:13 13,3 C 94 % 1021,6 hPa 0,0 l/m 0,0 km/h SW 234 0 min 0,000 mm 0,0 UV-I 0 W/m 12,4 C 13,3 C 0,0 km/h 100,00 %
20.05.2022 03:12 13,3 C 94 % 1021,5 hPa 0,0 l/m 0,0 km/h SW 234 0 min 0,000 mm 0,0 UV-I 0 W/m 12,4 C 13,3 C 0,0 km/h 95,65 %
20.05.2022 03:11 13,3 C 94 % 1021,5 hPa 0,0 l/m 0,0 km/h SW 234 0 min 0,000 mm 0,0 UV-I 0 W/m 12,4 C 13,3 C 0,0 km/h 100,00 %
20.05.2022 03:10 13,2 C 94 % 1021,5 hPa 0,0 l/m 0,0 km/h SW 234 0 min 0,000 mm 0,0 UV-I 0 W/m 12,3 C 13,2 C 0,0 km/h 100,00 %
20.05.2022 03:09 13,2 C 94 % 1021,5 hPa 0,0 l/m 0,0 km/h SW 234 0 min 0,000 mm 0,0 UV-I 0 W/m 12,3 C 13,2 C 0,0 km/h 100,00 %
20.05.2022 03:08 13,1 C 94 % 1021,5 hPa 0,0 l/m 0,0 km/h SW 234 0 min 0,000 mm 0,0 UV-I 0 W/m 12,2 C 13,1 C 0,0 km/h 91,30 %
20.05.2022 03:07 13,1 C 93 % 1021,5 hPa 0,0 l/m 0,0 km/h SW 234 0 min 0,000 mm 0,0 UV-I 0 W/m 12,0 C 13,1 C 0,0 km/h 100,00 %
20.05.2022 03:06 13,1 C 93 % 1021,6 hPa 0,0 l/m 0,0 km/h SW 234 0 min 0,000 mm 0,0 UV-I 0 W/m 12,0 C 13,1 C 0,0 km/h 100,00 %
20.05.2022 03:05 13,1 C 93 % 1021,6 hPa 0,0 l/m 0,0 km/h SW 234 0 min 0,000 mm 0,0 UV-I 0 W/m 12,0 C 13,1 C 0,0 km/h 100,00 %
20.05.2022 03:04 13,1 C 93 % 1021,6 hPa 0,0 l/m 0,0 km/h SW 234 0 min 0,000 mm 0,0 UV-I 0 W/m 12,0 C 13,1 C 0,0 km/h 100,00 %
20.05.2022 03:03 13,1 C 93 % 1021,7 hPa 0,0 l/m 0,0 km/h SW 234 0 min 0,000 mm 0,0 UV-I 0 W/m 12,0 C 13,1 C 0,0 km/h 100,00 %
20.05.2022 03:02 13,2 C 93 % 1021,6 hPa 0,0 l/m 0,0 km/h SW 234 0 min 0,000 mm 0,0 UV-I 0 W/m 12,1 C 13,2 C 0,0 km/h 100,00 %
20.05.2022 03:01 13,2 C 93 % 1021,7 hPa 0,0 l/m 0,0 km/h SW 234 0 min 0,000 mm 0,0 UV-I 0 W/m 12,1 C 13,2 C 0,0 km/h 96,15 %
20.05.2022 03:00 13,2 C 93 % 1021,6 hPa 0,0 l/m 0,0 km/h SW 234 0 min 0,000 mm 0,0 UV-I 0 W/m 12,1 C 13,2 C 0,0 km/h 100,00 %
20.05.2022 02:59 13,2 C 93 % 1021,6 hPa 0,0 l/m 0,0 km/h SW 234 0 min 0,000 mm 0,0 UV-I 0 W/m 12,1 C 13,2 C 0,0 km/h 100,00 %
20.05.2022 02:58 13,2 C 93 % 1021,6 hPa 0,0 l/m 0,0 km/h SW 234 0 min 0,000 mm 0,0 UV-I 0 W/m 12,1 C 13,2 C 0,0 km/h 100,00 %
20.05.2022 02:57 13,2 C 93 % 1021,6 hPa 0,0 l/m 0,0 km/h SW 234 0 min 0,000 mm 0,0 UV-I 0 W/m 12,1 C 13,2 C 0,0 km/h 100,00 %
20.05.2022 02:56 13,2 C 93 % 1021,6 hPa 0,0 l/m 0,0 km/h SW 234 0 min 0,000 mm 0,0 UV-I 0 W/m 12,1 C 13,2 C 0,0 km/h 100,00 %
20.05.2022 02:55 13,2 C 93 % 1021,6 hPa 0,0 l/m 0,0 km/h SW 234 0 min 0,000 mm 0,0 UV-I 0 W/m 12,1 C 13,2 C 0,0 km/h 95,65 %
20.05.2022 02:54 13,3 C 92 % 1021,6 hPa 0,0 l/m 0,0 km/h SW 234 0 min 0,000 mm 0,0 UV-I 0 W/m 12,0 C 13,3 C 0,0 km/h 100,00 %
20.05.2022 02:53 13,3 C 92 % 1021,6 hPa 0,0 l/m 0,2 km/h SW 234 0 min 0,000 mm 0,0 UV-I 0 W/m 12,0 C 13,3 C 1,9 km/h 100,00 %
20.05.2022 02:52 13,4 C 92 % 1021,6 hPa 0,0 l/m 0,0 km/h SW 234 0 min 0,000 mm 0,0 UV-I 0 W/m 12,1 C 13,4 C 0,0 km/h 100,00 %
20.05.2022 02:51 13,4 C 92 % 1021,6 hPa 0,0 l/m 0,1 km/h SW 234 0 min 0,000 mm 0,0 UV-I 0 W/m 12,1 C 13,4 C 1,9 km/h 100,00 %
20.05.2022 02:50 13,6 C 92 % 1021,6 hPa 0,0 l/m 0,1 km/h SW 234 0 min 0,000 mm 0,0 UV-I 0 W/m 12,3 C 13,6 C 1,9 km/h 100,00 %
20.05.2022 02:49 13,6 C 92 % 1021,6 hPa 0,0 l/m 0,0 km/h SW 234 0 min 0,000 mm 0,0 UV-I 0 W/m 12,3 C 13,6 C 0,0 km/h 95,83 %
20.05.2022 02:48 13,7 C 92 % 1021,6 hPa 0,0 l/m 0,0 km/h SW 234 0 min 0,000 mm 0,0 UV-I 0 W/m 12,4 C 13,7 C 0,0 km/h 95,65 %
20.05.2022 02:47 13,8 C 92 % 1021,6 hPa 0,0 l/m 0,0 km/h SW 234 0 min 0,000 mm 0,0 UV-I 0 W/m 12,5 C 13,8 C 0,0 km/h 95,83 %
20.05.2022 02:46 13,9 C 92 % 1021,6 hPa 0,0 l/m 0,0 km/h SW 234 0 min 0,000 mm 0,0 UV-I 0 W/m 12,6 C 13,9 C 0,0 km/h 100,00 %
20.05.2022 02:45 13,9 C 92 % 1021,5 hPa 0,0 l/m 0,0 km/h SW 234 0 min 0,000 mm 0,0 UV-I 0 W/m 12,6 C 13,9 C 0,0 km/h 100,00 %
20.05.2022 02:44 14,0 C 92 % 1021,6 hPa 0,0 l/m 0,0 km/h SW 234 0 min 0,000 mm 0,0 UV-I 0 W/m 12,7 C 14,0 C 0,0 km/h 100,00 %
20.05.2022 02:43 14,0 C 93 % 1021,6 hPa 0,0 l/m 0,0 km/h SW 234 0 min 0,000 mm 0,0 UV-I 0 W/m 12,9 C 14,0 C 0,0 km/h 100,00 %
20.05.2022 02:42 14,1 C 93 % 1021,6 hPa 0,0 l/m 0,0 km/h SW 234 0 min 0,000 mm 0,0 UV-I 0 W/m 13,0 C 14,1 C 0,0 km/h 100,00 %
20.05.2022 02:41 14,0 C 93 % 1021,6 hPa 0,0 l/m 0,0 km/h SW 234 0 min 0,000 mm 0,0 UV-I 0 W/m 12,9 C 14,0 C 0,0 km/h 100,00 %
20.05.2022 02:40 14,0 C 93 % 1021,6 hPa 0,0 l/m 0,0 km/h SW 234 0 min 0,000 mm 0,0 UV-I 0 W/m 12,9 C 14,0 C 0,0 km/h 100,00 %
20.05.2022 02:39 13,9 C 93 % 1021,6 hPa 0,0 l/m 0,0 km/h SW 234 0 min 0,000 mm 0,0 UV-I 0 W/m 12,8 C 13,9 C 0,0 km/h 100,00 %
20.05.2022 02:38 13,9 C 93 % 1021,6 hPa 0,0 l/m 0,3 km/h SW 234 0 min 0,000 mm 0,0 UV-I 0 W/m 12,8 C 13,9 C 1,9 km/h 100,00 %
20.05.2022 02:37 14,0 C 93 % 1021,6 hPa 0,0 l/m 0,0 km/h SW 234 0 min 0,000 mm 0,0 UV-I 0 W/m 12,9 C 14,0 C 0,0 km/h 100,00 %
20.05.2022 02:36 13,9 C 92 % 1021,6 hPa 0,0 l/m 0,2 km/h SW 234 0 min 0,000 mm 0,0 UV-I 0 W/m 12,6 C 13,9 C 1,9 km/h 100,00 %
20.05.2022 02:35 14,0 C 92 % 1021,6 hPa 0,0 l/m 0,7 km/h SW 234 0 min 0,000 mm 0,0 UV-I 0 W/m 12,7 C 14,0 C 1,9 km/h 100,00 %
20.05.2022 02:34 14,0 C 92 % 1021,6 hPa 0,0 l/m 1,1 km/h SW 234 0 min 0,000 mm 0,0 UV-I 0 W/m 12,7 C 14,0 C 3,8 km/h 100,00 %
20.05.2022 02:33 14,1 C 92 % 1021,6 hPa 0,0 l/m 1,2 km/h SW 234 0 min 0,000 mm 0,0 UV-I 0 W/m 12,8 C 14,1 C 3,8 km/h 100,00 %
20.05.2022 02:32 14,1 C 92 % 1021,6 hPa 0,0 l/m 0,1 km/h SW 234 0 min 0,000 mm 0,0 UV-I 0 W/m 12,8 C 14,1 C 1,9 km/h 100,00 %
20.05.2022 02:31 14,1 C 92 % 1021,6 hPa 0,0 l/m 0,2 km/h SW 234 0 min 0,000 mm 0,0 UV-I 0 W/m 12,8 C 14,1 C 1,9 km/h 100,00 %
20.05.2022 02:30 14,1 C 92 % 1021,7 hPa 0,0 l/m 0,3 km/h SW 234 0 min 0,000 mm 0,0 UV-I 0 W/m 12,8 C 14,1 C 1,9 km/h 100,00 %
20.05.2022 02:29 14,1 C 92 % 1021,7 hPa 0,0 l/m 0,0 km/h SW 234 0 min 0,000 mm 0,0 UV-I 0 W/m 12,8 C 14,1 C 0,0 km/h 100,00 %
20.05.2022 02:28 14,0 C 92 % 1021,7 hPa 0,0 l/m 0,0 km/h SW 234 0 min 0,000 mm 0,0 UV-I 0 W/m 12,7 C 14,0 C 0,0 km/h 100,00 %
20.05.2022 02:27 14,1 C 92 % 1021,7 hPa 0,0 l/m 0,0 km/h SW 234 0 min 0,000 mm 0,0 UV-I 0 W/m 12,8 C 14,1 C 0,0 km/h 100,00 %
20.05.2022 02:26 14,0 C 92 % 1021,7 hPa 0,0 l/m 0,0 km/h SW 234 0 min 0,000 mm 0,0 UV-I 0 W/m 12,7 C 14,0 C 0,0 km/h 100,00 %
20.05.2022 02:25 14,0 C 92 % 1021,7 hPa 0,0 l/m 0,0 km/h SW 234 0 min 0,000 mm 0,0 UV-I 0 W/m 12,7 C 14,0 C 0,0 km/h 100,00 %
20.05.2022 02:24 14,0 C 91 % 1021,7 hPa 0,0 l/m 0,0 km/h SW 234 0 min 0,000 mm 0,0 UV-I 0 W/m 12,6 C 14,0 C 0,0 km/h 100,00 %
20.05.2022 02:23 14,1 C 91 % 1021,7 hPa 0,0 l/m 0,0 km/h SW 234 0 min 0,000 mm 0,0 UV-I 0 W/m 12,7 C 14,1 C 0,0 km/h 100,00 %
20.05.2022 02:22 14,1 C 91 % 1021,7 hPa 0,0 l/m 0,0 km/h SW 234 0 min 0,000 mm 0,0 UV-I 0 W/m 12,7 C 14,1 C 0,0 km/h 100,00 %
20.05.2022 02:21 14,2 C 91 % 1021,7 hPa 0,0 l/m 0,0 km/h SW 234 0 min 0,000 mm 0,0 UV-I 0 W/m 12,8 C 14,2 C 0,0 km/h 100,00 %
20.05.2022 02:20 14,2 C 91 % 1021,7 hPa 0,0 l/m 0,0 km/h SW 234 0 min 0,000 mm 0,0 UV-I 0 W/m 12,8 C 14,2 C 0,0 km/h 100,00 %
20.05.2022 02:19 14,3 C 91 % 1021,7 hPa 0,0 l/m 0,0 km/h SW 234 0 min 0,000 mm 0,0 UV-I 0 W/m 12,8 C 14,3 C 0,0 km/h 100,00 %
20.05.2022 02:18 14,3 C 91 % 1021,7 hPa 0,0 l/m 0,0 km/h SW 234 0 min 0,000 mm 0,0 UV-I 0 W/m 12,8 C 14,3 C 0,0 km/h 100,00 %
20.05.2022 02:17 14,3 C 92 % 1021,7 hPa 0,0 l/m 0,0 km/h SW 234 0 min 0,000 mm 0,0 UV-I 0 W/m 13,0 C 14,3 C 0,0 km/h 100,00 %
20.05.2022 02:16 14,3 C 92 % 1021,7 hPa 0,0 l/m 0,0 km/h SW 234 0 min 0,000 mm 0,0 UV-I 0 W/m 13,0 C 14,3 C 0,0 km/h 100,00 %
20.05.2022 02:15 14,4 C 92 % 1021,8 hPa 0,0 l/m 0,0 km/h SW 234 0 min 0,000 mm 0,0 UV-I 0 W/m 13,1 C 14,4 C 0,0 km/h 100,00 %
20.05.2022 02:14 14,4 C 92 % 1021,8 hPa 0,0 l/m 0,0 km/h SW 234 0 min 0,000 mm 0,0 UV-I 0 W/m 13,1 C 14,4 C 0,0 km/h 100,00 %
20.05.2022 02:13 14,4 C 92 % 1021,8 hPa 0,0 l/m 0,0 km/h SW 234 0 min 0,000 mm 0,0 UV-I 0 W/m 13,1 C 14,4 C 0,0 km/h 100,00 %
20.05.2022 02:12 14,4 C 92 % 1021,8 hPa 0,0 l/m 0,0 km/h SW 234 0 min 0,000 mm 0,0 UV-I 0 W/m 13,1 C 14,4 C 0,0 km/h 100,00 %
20.05.2022 02:11 14,4 C 92 % 1021,8 hPa 0,0 l/m 0,0 km/h SW 234 0 min 0,000 mm 0,0 UV-I 0 W/m 13,1 C 14,4 C 0,0 km/h 100,00 %
20.05.2022 02:10 14,4 C 92 % 1021,8 hPa 0,0 l/m 0,0 km/h SW 234 0 min 0,000 mm 0,0 UV-I 0 W/m 13,1 C 14,4 C 0,0 km/h 100,00 %
20.05.2022 02:09 14,4 C 92 % 1021,7 hPa 0,0 l/m 0,0 km/h SW 234 0 min 0,000 mm 0,0 UV-I 0 W/m 13,1 C 14,4 C 0,0 km/h 95,65 %
20.05.2022 02:08 14,4 C 92 % 1021,7 hPa 0,0 l/m 0,0 km/h SW 234 0 min 0,000 mm 0,0 UV-I 0 W/m 13,1 C 14,4 C 0,0 km/h 100,00 %
20.05.2022 02:07 14,4 C 92 % 1021,8 hPa 0,0 l/m 0,0 km/h SW 234 0 min 0,000 mm 0,0 UV-I 0 W/m 13,1 C 14,4 C 0,0 km/h 100,00 %
20.05.2022 02:06 14,4 C 92 % 1021,8 hPa 0,0 l/m 0,0 km/h SW 234 0 min 0,000 mm 0,0 UV-I 0 W/m 13,1 C 14,4 C 0,0 km/h 100,00 %
20.05.2022 02:05 14,4 C 92 % 1021,7 hPa 0,0 l/m 0,0 km/h SW 234 0 min 0,000 mm 0,0 UV-I 0 W/m 13,1 C 14,4 C 0,0 km/h 95,83 %
20.05.2022 02:04 14,4 C 92 % 1021,7 hPa 0,0 l/m 0,0 km/h SW 234 0 min 0,000 mm 0,0 UV-I 0 W/m 13,1 C 14,4 C 0,0 km/h 100,00 %
20.05.2022 02:03 14,4 C 92 % 1021,8 hPa 0,0 l/m 0,0 km/h SW 234 0 min 0,000 mm 0,0 UV-I 0 W/m 13,1 C 14,4 C 0,0 km/h 100,00 %
20.05.2022 02:02 14,4 C 92 % 1021,7 hPa 0,0 l/m 0,0 km/h SW 234 0 min 0,000 mm 0,0 UV-I 0 W/m 13,1 C 14,4 C 0,0 km/h 100,00 %
20.05.2022 02:01 14,4 C 92 % 1021,7 hPa 0,0 l/m 0,0 km/h SW 234 0 min 0,000 mm 0,0 UV-I 0 W/m 13,1 C 14,4 C 0,0 km/h 100,00 %
20.05.2022 02:00 14,4 C 92 % 1021,7 hPa 0,0 l/m 0,0 km/h SW 234 0 min 0,000 mm 0,0 UV-I 0 W/m 13,1 C 14,4 C 0,0 km/h 100,00 %
20.05.2022 01:59 14,4 C 92 % 1021,7 hPa 0,0 l/m 0,0 km/h SW 234 0 min 0,000 mm 0,0 UV-I 0 W/m 13,1 C 14,4 C 0,0 km/h 100,00 %
20.05.2022 01:58 14,4 C 92 % 1021,7 hPa 0,0 l/m 0,0 km/h SW 234 0 min 0,000 mm 0,0 UV-I 0 W/m 13,1 C 14,4 C 0,0 km/h 100,00 %
20.05.2022 01:57 14,5 C 92 % 1021,8 hPa 0,0 l/m 0,0 km/h SW 234 0 min 0,000 mm 0,0 UV-I 0 W/m 13,2 C 14,5 C 0,0 km/h 100,00 %
20.05.2022 01:56 14,5 C 92 % 1021,8 hPa 0,0 l/m 0,0 km/h SW 234 0 min 0,000 mm 0,0 UV-I 0 W/m 13,2 C 14,5 C 0,0 km/h 100,00 %
20.05.2022 01:55 14,5 C 92 % 1021,8 hPa 0,0 l/m 0,0 km/h SW 234 0 min 0,000 mm 0,0 UV-I 0 W/m 13,2 C 14,5 C 0,0 km/h 100,00 %
20.05.2022 01:54 14,5 C 92 % 1021,8 hPa 0,0 l/m 0,0 km/h SW 234 0 min 0,000 mm 0,0 UV-I 0 W/m 13,2 C 14,5 C 0,0 km/h 100,00 %
20.05.2022 01:53 14,5 C 92 % 1021,8 hPa 0,0 l/m 0,0 km/h SW 234 0 min 0,000 mm 0,0 UV-I 0 W/m 13,2 C 14,5 C 0,0 km/h 95,83 %
20.05.2022 01:52 14,5 C 92 % 1021,8 hPa 0,0 l/m 0,0 km/h SW 234 0 min 0,000 mm 0,0 UV-I 0 W/m 13,2 C 14,5 C 0,0 km/h 95,83 %
20.05.2022 01:51 14,5 C 92 % 1021,8 hPa 0,0 l/m 0,0 km/h SW 234 0 min 0,000 mm 0,0 UV-I 0 W/m 13,2 C 14,5 C 0,0 km/h 100,00 %
20.05.2022 01:50 14,5 C 92 % 1021,8 hPa 0,0 l/m 0,0 km/h SW 234 0 min 0,000 mm 0,0 UV-I 0 W/m 13,2 C 14,5 C 0,0 km/h 100,00 %
20.05.2022 01:49 14,5 C 92 % 1021,8 hPa 0,0 l/m 0,0 km/h SW 234 0 min 0,000 mm 0,0 UV-I 0 W/m 13,2 C 14,5 C 0,0 km/h 100,00 %
20.05.2022 01:48 14,5 C 92 % 1021,8 hPa 0,0 l/m 0,0 km/h SW 234 0 min 0,000 mm 0,0 UV-I 0 W/m 13,2 C 14,5 C 0,0 km/h 100,00 %
20.05.2022 01:47 14,5 C 92 % 1021,8 hPa 0,0 l/m 0,0 km/h SW 234 0 min 0,000 mm 0,0 UV-I 0 W/m 13,2 C 14,5 C 0,0 km/h 100,00 %
20.05.2022 01:46 14,6 C 92 % 1021,9 hPa 0,0 l/m 0,0 km/h SW 234 0 min 0,000 mm 0,0 UV-I 0 W/m 13,3 C 14,6 C 0,0 km/h 100,00 %
20.05.2022 01:45 14,6 C 92 % 1021,9 hPa 0,0 l/m 0,0 km/h SW 234 0 min 0,000 mm 0,0 UV-I 0 W/m 13,3 C 14,6 C 0,0 km/h 100,00 %
20.05.2022 01:44 14,6 C 92 % 1021,9 hPa 0,0 l/m 0,0 km/h SW 234 0 min 0,000 mm 0,0 UV-I 0 W/m 13,3 C 14,6 C 0,0 km/h 100,00 %
20.05.2022 01:43 14,7 C 93 % 1021,9 hPa 0,0 l/m 0,0 km/h SW 234 0 min 0,000 mm 0,0 UV-I 0 W/m 13,6 C 14,7 C 0,0 km/h 100,00 %
20.05.2022 01:42 14,7 C 93 % 1021,9 hPa 0,0 l/m 0,0 km/h SW 234 0 min 0,000 mm 0,0 UV-I 0 W/m 13,6 C 14,7 C 0,0 km/h 100,00 %
20.05.2022 01:41 14,6 C 93 % 1021,9 hPa 0,0 l/m 0,0 km/h SW 234 0 min 0,000 mm 0,0 UV-I 0 W/m 13,5 C 14,6 C 0,0 km/h 100,00 %
20.05.2022 01:40 14,6 C 93 % 1021,8 hPa 0,0 l/m 0,0 km/h SW 234 0 min 0,000 mm 0,0 UV-I 0 W/m 13,5 C 14,6 C 0,0 km/h 100,00 %
20.05.2022 01:39 14,6 C 93 % 1021,8 hPa 0,0 l/m 0,0 km/h SW 234 0 min 0,000 mm 0,0 UV-I 0 W/m 13,5 C 14,6 C 0,0 km/h 100,00 %
20.05.2022 01:38 14,6 C 93 % 1021,8 hPa 0,0 l/m 0,0 km/h SW 234 0 min 0,000 mm 0,0 UV-I 0 W/m 13,5 C 14,6 C 0,0 km/h 100,00 %
20.05.2022 01:37 14,5 C 93 % 1021,8 hPa 0,0 l/m 0,0 km/h SW 234 0 min 0,000 mm 0,0 UV-I 0 W/m 13,4 C 14,5 C 0,0 km/h 100,00 %
20.05.2022 01:36 14,4 C 93 % 1021,8 hPa 0,0 l/m 0,0 km/h SW 234 0 min 0,000 mm 0,0 UV-I 0 W/m 13,3 C 14,4 C 0,0 km/h 100,00 %
20.05.2022 01:35 14,4 C 93 % 1021,8 hPa 0,0 l/m 0,0 km/h SW 234 0 min 0,000 mm 0,0 UV-I 0 W/m 13,3 C 14,4 C 0,0 km/h 100,00 %
20.05.2022 01:34 14,4 C 92 % 1021,8 hPa 0,0 l/m 0,0 km/h SW 234 0 min 0,000 mm 0,0 UV-I 0 W/m 13,1 C 14,4 C 0,0 km/h 95,83 %
20.05.2022 01:33 14,4 C 92 % 1021,8 hPa 0,0 l/m 0,0 km/h SW 234 0 min 0,000 mm 0,0 UV-I 0 W/m 13,1 C 14,4 C 0,0 km/h 100,00 %
20.05.2022 01:32 14,4 C 92 % 1021,8 hPa 0,0 l/m 0,0 km/h SW 234 0 min 0,000 mm 0,0 UV-I 0 W/m 13,1 C 14,4 C 0,0 km/h 100,00 %
20.05.2022 01:31 14,4 C 92 % 1021,8 hPa 0,0 l/m 0,0 km/h SW 234 0 min 0,000 mm 0,0 UV-I 0 W/m 13,1 C 14,4 C 0,0 km/h 100,00 %
20.05.2022 01:30 14,4 C 91 % 1021,7 hPa 0,0 l/m 0,0 km/h SW 234 0 min 0,000 mm 0,0 UV-I 0 W/m 12,9 C 14,4 C 0,0 km/h 99,09 %
20.05.2022 01:29 14,4 C 91 % 1021,7 hPa 0,0 l/m 0,0 km/h SW 234 0 min 0,000 mm 0,0 UV-I 0 W/m 12,9 C 14,4 C 0,0 km/h 100,00 %
20.05.2022 01:28 14,4 C 91 % 1021,7 hPa 0,0 l/m 0,0 km/h SW 234 0 min 0,000 mm 0,0 UV-I 0 W/m 12,9 C 14,4 C 0,0 km/h 100,00 %
20.05.2022 01:27 14,5 C 91 % 1021,7 hPa 0,0 l/m 0,0 km/h SW 234 0 min 0,000 mm 0,0 UV-I 0 W/m 13,0 C 14,5 C 0,0 km/h 100,00 %
20.05.2022 01:26 14,5 C 91 % 1021,7 hPa 0,0 l/m 0,0 km/h SW 234 0 min 0,000 mm 0,0 UV-I 0 W/m 13,0 C 14,5 C 0,0 km/h 100,00 %
20.05.2022 01:25 14,6 C 91 % 1021,7 hPa 0,0 l/m 0,0 km/h SW 234 0 min 0,000 mm 0,0 UV-I 0 W/m 13,1 C 14,6 C 0,0 km/h 100,00 %
20.05.2022 01:24 14,6 C 91 % 1021,7 hPa 0,0 l/m 0,0 km/h SW 234 0 min 0,000 mm 0,0 UV-I 0 W/m 13,1 C 14,6 C 0,0 km/h 100,00 %
20.05.2022 01:23 14,7 C 91 % 1021,7 hPa 0,0 l/m 0,0 km/h SW 234 0 min 0,000 mm 0,0 UV-I 0 W/m 13,2 C 14,7 C 0,0 km/h 100,00 %
20.05.2022 01:22 14,7 C 91 % 1021,7 hPa 0,0 l/m 0,0 km/h SW 234 0 min 0,000 mm 0,0 UV-I 0 W/m 13,2 C 14,7 C 0,0 km/h 95,83 %
20.05.2022 01:21 14,7 C 91 % 1021,8 hPa 0,0 l/m 0,0 km/h SW 234 0 min 0,000 mm 0,0 UV-I 0 W/m 13,2 C 14,7 C 0,0 km/h 100,00 %
20.05.2022 01:20 14,7 C 91 % 1021,7 hPa 0,0 l/m 0,0 km/h SW 234 0 min 0,000 mm 0,0 UV-I 0 W/m 13,2 C 14,7 C 0,0 km/h 100,00 %
20.05.2022 01:19 14,7 C 91 % 1021,8 hPa 0,0 l/m 0,0 km/h SW 234 0 min 0,000 mm 0,0 UV-I 0 W/m 13,2 C 14,7 C 0,0 km/h 100,00 %
20.05.2022 01:18 14,7 C 91 % 1021,7 hPa 0,0 l/m 0,0 km/h SW 234 0 min 0,000 mm 0,0 UV-I 0 W/m 13,2 C 14,7 C 0,0 km/h 100,00 %
20.05.2022 01:17 14,8 C 91 % 1021,7 hPa 0,0 l/m 0,0 km/h SW 234 0 min 0,000 mm 0,0 UV-I 0 W/m 13,3 C 14,8 C 0,0 km/h 100,00 %
20.05.2022 01:16 14,8 C 91 % 1021,7 hPa 0,0 l/m 0,0 km/h SW 234 0 min 0,000 mm 0,0 UV-I 0 W/m 13,3 C 14,8 C 0,0 km/h 100,00 %
20.05.2022 01:15 14,8 C 91 % 1021,7 hPa 0,0 l/m 0,0 km/h SW 234 0 min 0,000 mm 0,0 UV-I 0 W/m 13,3 C 14,8 C 0,0 km/h 100,00 %
20.05.2022 01:14 14,8 C 91 % 1021,7 hPa 0,0 l/m 0,0 km/h SW 234 0 min 0,000 mm 0,0 UV-I 0 W/m 13,3 C 14,8 C 0,0 km/h 95,65 %
20.05.2022 01:13 14,9 C 91 % 1021,7 hPa 0,0 l/m 0,0 km/h SW 234 0 min 0,000 mm 0,0 UV-I 0 W/m 13,4 C 14,9 C 0,0 km/h 95,83 %
20.05.2022 01:12 14,9 C 91 % 1021,7 hPa 0,0 l/m 0,0 km/h SW 234 0 min 0,000 mm 0,0 UV-I 0 W/m 13,4 C 14,9 C 0,0 km/h 100,00 %
20.05.2022 01:11 14,9 C 91 % 1021,7 hPa 0,0 l/m 0,0 km/h SW 234 0 min 0,000 mm 0,0 UV-I 0 W/m 13,4 C 14,9 C 0,0 km/h 100,00 %
20.05.2022 01:10 15,0 C 91 % 1021,7 hPa 0,0 l/m 0,0 km/h SW 234 0 min 0,000 mm 0,0 UV-I 0 W/m 13,5 C 15,0 C 0,0 km/h 100,00 %
20.05.2022 01:09 15,0 C 91 % 1021,7 hPa 0,0 l/m 0,0 km/h SW 234 0 min 0,000 mm 0,0 UV-I 0 W/m 13,5 C 15,0 C 0,0 km/h 100,00 %
20.05.2022 01:08 15,1 C 91 % 1021,7 hPa 0,0 l/m 0,0 km/h SW 234 0 min 0,000 mm 0,0 UV-I 0 W/m 13,6 C 15,1 C 0,0 km/h 100,00 %
20.05.2022 01:07 15,0 C 91 % 1021,7 hPa 0,0 l/m 0,0 km/h SW 234 0 min 0,000 mm 0,0 UV-I 0 W/m 13,5 C 15,0 C 0,0 km/h 100,00 %
20.05.2022 01:06 15,1 C 90 % 1021,7 hPa 0,0 l/m 0,0 km/h SW 234 0 min 0,000 mm 0,0 UV-I 0 W/m 13,5 C 15,1 C 0,0 km/h 100,00 %
20.05.2022 01:05 15,1 C 90 % 1021,7 hPa 0,0 l/m 0,0 km/h SW 234 0 min 0,000 mm 0,0 UV-I 0 W/m 13,5 C 15,1 C 0,0 km/h 100,00 %
20.05.2022 01:04 15,1 C 90 % 1021,7 hPa 0,0 l/m 0,0 km/h SW 234 0 min 0,000 mm 0,0 UV-I 0 W/m 13,5 C 15,1 C 0,0 km/h 100,00 %
20.05.2022 01:03 15,1 C 90 % 1021,7 hPa 0,0 l/m 0,0 km/h SW 234 0 min 0,000 mm 0,0 UV-I 0 W/m 13,5 C 15,1 C 0,0 km/h 100,00 %
20.05.2022 01:02 15,1 C 91 % 1021,7 hPa 0,0 l/m 0,0 km/h SW 234 0 min 0,000 mm 0,0 UV-I 0 W/m 13,6 C 15,1 C 0,0 km/h 100,00 %
20.05.2022 01:01 15,2 C 91 % 1021,7 hPa 0,0 l/m 0,2 km/h SW 234 0 min 0,000 mm 0,0 UV-I 0 W/m 13,7 C 15,2 C 1,9 km/h 100,00 %
20.05.2022 01:00 15,2 C 90 % 1021,7 hPa 0,0 l/m 0,0 km/h SW 234 0 min 0,000 mm 0,0 UV-I 0 W/m 13,6 C 15,2 C 0,0 km/h 100,00 %
20.05.2022 00:59 15,2 C 90 % 1021,7 hPa 0,0 l/m 0,0 km/h SW 234 0 min 0,000 mm 0,0 UV-I 0 W/m 13,6 C 15,2 C 0,0 km/h 100,00 %
20.05.2022 00:58 15,2 C 90 % 1021,7 hPa 0,0 l/m 0,0 km/h SW 234 0 min 0,000 mm 0,0 UV-I 0 W/m 13,6 C 15,2 C 0,0 km/h 100,00 %
20.05.2022 00:57 15,2 C 91 % 1021,7 hPa 0,0 l/m 0,0 km/h SW 234 0 min 0,000 mm 0,0 UV-I 0 W/m 13,7 C 15,2 C 0,0 km/h 100,00 %
20.05.2022 00:56 15,2 C 91 % 1021,7 hPa 0,0 l/m 0,0 km/h SW 234 0 min 0,000 mm 0,0 UV-I 0 W/m 13,7 C 15,2 C 0,0 km/h 100,00 %
20.05.2022 00:55 15,2 C 91 % 1021,7 hPa 0,0 l/m 0,0 km/h SW 234 0 min 0,000 mm 0,0 UV-I 0 W/m 13,7 C 15,2 C 0,0 km/h 100,00 %
20.05.2022 00:54 15,2 C 90 % 1021,7 hPa 0,0 l/m 0,0 km/h SW 234 0 min 0,000 mm 0,0 UV-I 0 W/m 13,6 C 15,2 C 0,0 km/h 95,83 %
20.05.2022 00:53 15,2 C 90 % 1021,7 hPa 0,0 l/m 0,0 km/h SW 234 0 min 0,000 mm 0,0 UV-I 0 W/m 13,6 C 15,2 C 0,0 km/h 100,00 %
20.05.2022 00:52 15,2 C 90 % 1021,7 hPa 0,0 l/m 0,0 km/h SW 234 0 min 0,000 mm 0,0 UV-I 0 W/m 13,6 C 15,2 C 0,0 km/h 95,83 %
20.05.2022 00:51 15,2 C 90 % 1021,6 hPa 0,0 l/m 0,0 km/h SW 234 0 min 0,000 mm 0,0 UV-I 0 W/m 13,6 C 15,2 C 0,0 km/h 100,00 %
20.05.2022 00:50 15,3 C 89 % 1021,6 hPa 0,0 l/m 0,2 km/h SW 234 0 min 0,000 mm 0,0 UV-I 0 W/m 13,5 C 15,3 C 1,9 km/h 100,00 %
20.05.2022 00:49 15,3 C 89 % 1021,6 hPa 0,0 l/m 0,3 km/h SW 234 0 min 0,000 mm 0,0 UV-I 0 W/m 13,5 C 15,3 C 1,9 km/h 95,83 %
20.05.2022 00:48 15,4 C 89 % 1021,6 hPa 0,0 l/m 0,0 km/h SW 234 0 min 0,000 mm 0,0 UV-I 0 W/m 13,6 C 15,4 C 0,0 km/h 100,00 %
20.05.2022 00:47 15,4 C 89 % 1021,6 hPa 0,0 l/m 0,1 km/h SW 234 0 min 0,000 mm 0,0 UV-I 0 W/m 13,6 C 15,4 C 1,9 km/h 100,00 %
20.05.2022 00:46 15,5 C 89 % 1021,6 hPa 0,0 l/m 0,1 km/h SW 234 0 min 0,000 mm 0,0 UV-I 0 W/m 13,7 C 15,5 C 1,9 km/h 100,00 %
20.05.2022 00:45 15,6 C 89 % 1021,6 hPa 0,0 l/m 0,0 km/h SW 234 0 min 0,000 mm 0,0 UV-I 0 W/m 13,8 C 15,6 C 0,0 km/h 95,83 %
20.05.2022 00:44 15,6 C 89 % 1021,6 hPa 0,0 l/m 0,5 km/h SW 234 0 min 0,000 mm 0,0 UV-I 0 W/m 13,8 C 15,6 C 1,9 km/h 100,00 %
20.05.2022 00:43 15,6 C 89 % 1021,6 hPa 0,0 l/m 0,2 km/h SW 234 0 min 0,000 mm 0,0 UV-I 0 W/m 13,8 C 15,6 C 1,9 km/h 100,00 %
20.05.2022 00:42 15,7 C 89 % 1021,6 hPa 0,0 l/m 0,0 km/h SW 234 0 min 0,000 mm 0,0 UV-I 0 W/m 13,9 C 15,7 C 0,0 km/h 100,00 %
20.05.2022 00:41 15,7 C 89 % 1021,6 hPa 0,0 l/m 0,0 km/h SW 234 0 min 0,000 mm 0,0 UV-I 0 W/m 13,9 C 15,7 C 0,0 km/h 100,00 %
20.05.2022 00:40 15,7 C 89 % 1021,6 hPa 0,0 l/m 0,0 km/h SW 234 0 min 0,000 mm 0,0 UV-I 0 W/m 13,9 C 15,7 C 0,0 km/h 100,00 %
20.05.2022 00:39 15,8 C 89 % 1021,6 hPa 0,0 l/m 0,0 km/h SW 234 0 min 0,000 mm 0,0 UV-I 0 W/m 14,0 C 15,8 C 0,0 km/h 100,00 %
20.05.2022 00:38 15,8 C 89 % 1021,6 hPa 0,0 l/m 0,0 km/h SW 234 0 min 0,000 mm 0,0 UV-I 0 W/m 14,0 C 15,8 C 0,0 km/h 100,00 %
20.05.2022 00:37 15,8 C 89 % 1021,6 hPa 0,0 l/m 0,0 km/h SW 234 0 min 0,000 mm 0,0 UV-I 0 W/m 14,0 C 15,8 C 0,0 km/h 100,00 %
20.05.2022 00:36 15,8 C 89 % 1021,6 hPa 0,0 l/m 0,0 km/h SW 234 0 min 0,000 mm 0,0 UV-I 0 W/m 14,0 C 15,8 C 0,0 km/h 100,00 %
20.05.2022 00:35 15,8 C 89 % 1021,7 hPa 0,0 l/m 0,0 km/h SW 234 0 min 0,000 mm 0,0 UV-I 0 W/m 14,0 C 15,8 C 0,0 km/h 100,00 %
20.05.2022 00:34 15,8 C 89 % 1021,7 hPa 0,0 l/m 0,0 km/h SW 234 0 min 0,000 mm 0,0 UV-I 0 W/m 14,0 C 15,8 C 0,0 km/h 100,00 %
20.05.2022 00:33 15,9 C 89 % 1021,7 hPa 0,0 l/m 0,0 km/h SW 234 0 min 0,000 mm 0,0 UV-I 0 W/m 14,1 C 15,9 C 0,0 km/h 100,00 %
20.05.2022 00:32 15,9 C 89 % 1021,7 hPa 0,0 l/m 0,0 km/h SW 234 0 min 0,000 mm 0,0 UV-I 0 W/m 14,1 C 15,9 C 0,0 km/h 100,00 %
20.05.2022 00:31 15,9 C 89 % 1021,7 hPa 0,0 l/m 0,0 km/h SW 234 0 min 0,000 mm 0,0 UV-I 0 W/m 14,1 C 15,9 C 0,0 km/h 100,00 %
20.05.2022 00:30 15,9 C 89 % 1021,6 hPa 0,0 l/m 0,0 km/h SW 234 0 min 0,000 mm 0,0 UV-I 0 W/m 14,1 C 15,9 C 0,0 km/h 95,83 %
20.05.2022 00:29 15,9 C 88 % 1021,6 hPa 0,0 l/m 0,0 km/h SW 234 0 min 0,000 mm 0,0 UV-I 0 W/m 13,9 C 15,9 C 0,0 km/h 100,00 %
20.05.2022 00:28 15,9 C 88 % 1021,7 hPa 0,0 l/m 0,0 km/h SW 234 0 min 0,000 mm 0,0 UV-I 0 W/m 13,9 C 15,9 C 0,0 km/h 100,00 %
20.05.2022 00:27 16,0 C 88 % 1021,7 hPa 0,0 l/m 0,0 km/h SW 234 0 min 0,000 mm 0,0 UV-I 0 W/m 14,0 C 16,0 C 0,0 km/h 100,00 %
20.05.2022 00:26 16,1 C 88 % 1021,6 hPa 0,0 l/m 0,0 km/h SW 234 0 min 0,000 mm 0,0 UV-I 0 W/m 14,1 C 16,1 C 0,0 km/h 100,00 %
20.05.2022 00:25 16,1 C 88 % 1021,6 hPa 0,0 l/m 0,0 km/h SW 234 0 min 0,000 mm 0,0 UV-I 0 W/m 14,1 C 16,1 C 0,0 km/h 95,65 %
20.05.2022 00:24 16,1 C 89 % 1021,6 hPa 0,0 l/m 0,0 km/h SW 234 0 min 0,000 mm 0,0 UV-I 0 W/m 14,3 C 16,1 C 0,0 km/h 100,00 %
20.05.2022 00:23 16,1 C 89 % 1021,6 hPa 0,0 l/m 0,0 km/h SW 234 0 min 0,000 mm 0,0 UV-I 0 W/m 14,3 C 16,1 C 0,0 km/h 100,00 %
20.05.2022 00:22 16,2 C 89 % 1021,6 hPa 0,0 l/m 0,0 km/h SW 234 0 min 0,000 mm 0,0 UV-I 0 W/m 14,4 C 16,2 C 0,0 km/h 100,00 %
20.05.2022 00:21 16,1 C 89 % 1021,6 hPa 0,0 l/m 0,0 km/h SW 234 0 min 0,000 mm 0,0 UV-I 0 W/m 14,3 C 16,1 C 0,0 km/h 100,00 %
20.05.2022 00:20 16,1 C 89 % 1021,6 hPa 0,0 l/m 0,0 km/h SW 234 0 min 0,000 mm 0,0 UV-I 0 W/m 14,3 C 16,1 C 0,0 km/h 100,00 %
20.05.2022 00:19 16,1 C 89 % 1021,6 hPa 0,0 l/m 0,0 km/h SW 234 0 min 0,000 mm 0,0 UV-I 0 W/m 14,3 C 16,1 C 0,0 km/h 100,00 %
20.05.2022 00:18 16,1 C 89 % 1021,6 hPa 0,0 l/m 0,0 km/h SW 234 0 min 0,000 mm 0,0 UV-I 0 W/m 14,3 C 16,1 C 0,0 km/h 100,00 %
20.05.2022 00:17 16,1 C 89 % 1021,6 hPa 0,0 l/m 0,0 km/h SW 234 0 min 0,000 mm 0,0 UV-I 0 W/m 14,3 C 16,1 C 0,0 km/h 100,00 %
20.05.2022 00:16 16,1 C 89 % 1021,6 hPa 0,0 l/m 0,0 km/h SW 234 0 min 0,000 mm 0,0 UV-I 0 W/m 14,3 C 16,1 C 0,0 km/h 100,00 %
20.05.2022 00:15 16,1 C 89 % 1021,6 hPa 0,0 l/m 0,0 km/h SW 234 0 min 0,000 mm 0,0 UV-I 0 W/m 14,3 C 16,1 C 0,0 km/h 96,15 %
20.05.2022 00:14 16,1 C 89 % 1021,6 hPa 0,0 l/m 0,0 km/h SW 234 0 min 0,000 mm 0,0 UV-I 0 W/m 14,3 C 16,1 C 0,0 km/h 100,00 %
20.05.2022 00:13 16,1 C 88 % 1021,6 hPa 0,0 l/m 0,0 km/h SW 234 0 min 0,000 mm 0,0 UV-I 0 W/m 14,1 C 16,1 C 0,0 km/h 95,65 %
20.05.2022 00:12 16,1 C 88 % 1021,6 hPa 0,0 l/m 0,0 km/h SW 234 0 min 0,000 mm 0,0 UV-I 0 W/m 14,1 C 16,1 C 0,0 km/h 100,00 %
20.05.2022 00:11 16,1 C 88 % 1021,6 hPa 0,0 l/m 0,0 km/h SW 234 0 min 0,000 mm 0,0 UV-I 0 W/m 14,1 C 16,1 C 0,0 km/h 91,30 %
20.05.2022 00:10 16,2 C 88 % 1021,6 hPa 0,0 l/m 0,0 km/h SW 234 0 min 0,000 mm 0,0 UV-I 0 W/m 14,2 C 16,2 C 0,0 km/h 100,00 %
20.05.2022 00:09 16,2 C 88 % 1021,5 hPa 0,0 l/m 0,1 km/h SW 234 0 min 0,000 mm 0,0 UV-I 0 W/m 14,2 C 16,2 C 1,9 km/h 95,83 %
20.05.2022 00:08 16,2 C 88 % 1021,5 hPa 0,0 l/m 0,3 km/h SW 234 0 min 0,000 mm 0,0 UV-I 0 W/m 14,2 C 16,2 C 1,9 km/h 95,65 %
20.05.2022 00:07 16,2 C 87 % 1021,5 hPa 0,0 l/m 0,0 km/h SW 234 0 min 0,000 mm 0,0 UV-I 0 W/m 14,0 C 16,2 C 0,0 km/h 100,00 %
20.05.2022 00:06 16,3 C 87 % 1021,5 hPa 0,0 l/m 0,3 km/h SW 234 0 min 0,000 mm 0,0 UV-I 0 W/m 14,1 C 16,3 C 1,9 km/h 100,00 %
20.05.2022 00:05 16,3 C 87 % 1021,4 hPa 0,0 l/m 0,0 km/h SW 234 0 min 0,000 mm 0,0 UV-I 0 W/m 14,1 C 16,3 C 0,0 km/h 95,83 %
20.05.2022 00:04 16,3 C 87 % 1021,4 hPa 0,0 l/m 0,0 km/h SW 234 0 min 0,000 mm 0,0 UV-I 0 W/m 14,1 C 16,3 C 0,0 km/h 96,15 %
20.05.2022 00:03 16,3 C 87 % 1021,4 hPa 0,0 l/m 0,0 km/h SW 234 0 min 0,000 mm 0,0 UV-I 0 W/m 14,1 C 16,3 C 0,0 km/h 100,00 %
20.05.2022 00:02 16,4 C 87 % 1021,4 hPa 0,0 l/m 0,0 km/h SW 234 0 min 0,000 mm 0,0 UV-I 0 W/m 14,2 C 16,4 C 0,0 km/h 95,65 %
20.05.2022 00:01 16,4 C 87 % 1021,5 hPa 0,0 l/m 0,0 km/h SW 234 0 min 0,000 mm 0,0 UV-I 0 W/m 14,2 C 16,4 C 0,0 km/h 94,74 %
20.05.2022 00:00 16,5 C 86 % 1021,4 hPa 0,0 l/m 0,0 km/h SW 234 0 min 0,000 mm 0,0 UV-I 0 W/m 14,1 C 16,5 C 0,0 km/h 96,15 %
19.05.2022 23:59 16,6 C 86 % 1021,4 hPa 0,0 l/m 0,0 km/h SW 234 0 min 0,000 mm 0,0 UV-I 0 W/m 14,2 C 16,6 C 0,0 km/h 95,83 %
19.05.2022 23:58 16,6 C 86 % 1021,4 hPa 0,0 l/m 0,0 km/h SW 234 0 min 0,000 mm 0,0 UV-I 0 W/m 14,2 C 16,6 C 0,0 km/h 100,00 %
19.05.2022 23:57 16,6 C 86 % 1021,4 hPa 0,0 l/m 0,0 km/h SW 234 0 min 0,000 mm 0,0 UV-I 0 W/m 14,2 C 16,6 C 0,0 km/h 96,30 %
19.05.2022 23:56 16,7 C 86 % 1021,3 hPa 0,0 l/m 0,0 km/h SW 234 0 min 0,000 mm 0,0 UV-I 0 W/m 14,3 C 16,7 C 0,0 km/h 100,00 %
19.05.2022 23:55 16,7 C 86 % 1021,4 hPa 0,0 l/m 0,0 km/h SW 234 0 min 0,000 mm 0,0 UV-I 0 W/m 14,3 C 16,7 C 0,0 km/h 96,30 %
19.05.2022 23:54 16,7 C 86 % 1021,3 hPa 0,0 l/m 0,0 km/h SW 234 0 min 0,000 mm 0,0 UV-I 0 W/m 14,3 C 16,7 C 0,0 km/h 100,00 %
19.05.2022 23:53 16,8 C 86 % 1021,3 hPa 0,0 l/m 0,0 km/h SW 234 0 min 0,000 mm 0,0 UV-I 0 W/m 14,4 C 16,8 C 0,0 km/h 91,67 %
19.05.2022 23:52 16,8 C 86 % 1021,3 hPa 0,0 l/m 0,0 km/h SW 234 0 min 0,000 mm 0,0 UV-I 0 W/m 14,4 C 16,8 C 0,0 km/h 100,00 %
19.05.2022 23:51 16,8 C 86 % 1021,3 hPa 0,0 l/m 0,0 km/h SW 234 0 min 0,000 mm 0,0 UV-I 0 W/m 14,4 C 16,8 C 0,0 km/h 91,30 %
19.05.2022 23:50 16,8 C 86 % 1021,3 hPa 0,0 l/m 0,0 km/h SW 234 0 min 0,000 mm 0,0 UV-I 0 W/m 14,4 C 16,8 C 0,0 km/h 100,00 %
19.05.2022 23:49 16,8 C 86 % 1021,3 hPa 0,0 l/m 0,0 km/h SW 234 0 min 0,000 mm 0,0 UV-I 0 W/m 14,4 C 16,8 C 0,0 km/h 95,65 %
19.05.2022 23:48 16,8 C 86 % 1021,2 hPa 0,0 l/m 0,0 km/h SW 234 0 min 0,000 mm 0,0 UV-I 0 W/m 14,4 C 16,8 C 0,0 km/h 95,83 %
19.05.2022 23:47 16,8 C 86 % 1021,2 hPa 0,0 l/m 0,0 km/h SW 234 0 min 0,000 mm 0,0 UV-I 0 W/m 14,4 C 16,8 C 0,0 km/h 100,00 %
19.05.2022 23:46 16,9 C 86 % 1021,2 hPa 0,0 l/m 0,0 km/h SW 234 0 min 0,000 mm 0,0 UV-I 0 W/m 14,5 C 16,9 C 0,0 km/h 95,83 %
19.05.2022 23:45 16,9 C 86 % 1021,2 hPa 0,0 l/m 0,0 km/h SW 234 0 min 0,000 mm 0,0 UV-I 0 W/m 14,5 C 16,9 C 0,0 km/h 100,00 %
19.05.2022 23:44 16,9 C 86 % 1021,2 hPa 0,0 l/m 0,0 km/h SW 234 0 min 0,000 mm 0,0 UV-I 0 W/m 14,5 C 16,9 C 0,0 km/h 96,67 %
19.05.2022 23:43 16,9 C 86 % 1021,3 hPa 0,0 l/m 0,0 km/h SW 234 0 min 0,000 mm 0,0 UV-I 0 W/m 14,5 C 16,9 C 0,0 km/h 100,00 %
19.05.2022 23:42 17,0 C 86 % 1021,2 hPa 0,0 l/m 0,0 km/h SW 234 0 min 0,000 mm 0,0 UV-I 0 W/m 14,6 C 17,0 C 0,0 km/h 95,83 %
19.05.2022 23:41 17,0 C 86 % 1021,2 hPa 0,0 l/m 0,0 km/h SW 234 0 min 0,000 mm 0,0 UV-I 0 W/m 14,6 C 17,0 C 0,0 km/h 96,15 %
19.05.2022 23:40 16,9 C 85 % 1021,2 hPa 0,0 l/m 0,0 km/h SW 234 0 min 0,000 mm 0,0 UV-I 0 W/m 14,4 C 16,9 C 0,0 km/h 100,00 %
19.05.2022 23:39 17,0 C 85 % 1021,3 hPa 0,0 l/m 0,0 km/h SW 234 0 min 0,000 mm 0,0 UV-I 0 W/m 14,5 C 17,0 C 0,0 km/h 95,65 %
19.05.2022 23:38 17,0 C 86 % 1021,3 hPa 0,0 l/m 0,0 km/h SW 234 0 min 0,000 mm 0,0 UV-I 0 W/m 14,6 C 17,0 C 0,0 km/h 100,00 %
19.05.2022 23:37 17,1 C 86 % 1021,3 hPa 0,0 l/m 0,0 km/h SW 234 0 min 0,000 mm 0,0 UV-I 0 W/m 14,7 C 17,1 C 0,0 km/h 95,65 %
19.05.2022 23:36 17,1 C 86 % 1021,3 hPa 0,0 l/m 0,0 km/h SW 234 0 min 0,000 mm 0,0 UV-I 0 W/m 14,7 C 17,1 C 0,0 km/h 95,83 %
19.05.2022 23:35 17,1 C 85 % 1021,3 hPa 0,0 l/m 0,0 km/h SW 234 0 min 0,000 mm 0,0 UV-I 0 W/m 14,6 C 17,1 C 0,0 km/h 96,15 %
19.05.2022 23:34 17,1 C 85 % 1021,3 hPa 0,0 l/m 0,0 km/h SW 234 0 min 0,000 mm 0,0 UV-I 0 W/m 14,6 C 17,1 C 0,0 km/h 92,31 %
19.05.2022 23:33 17,1 C 85 % 1021,3 hPa 0,0 l/m 0,0 km/h SW 234 0 min 0,000 mm 0,0 UV-I 0 W/m 14,6 C 17,1 C 0,0 km/h 95,83 %
19.05.2022 23:32 17,1 C 86 % 1021,3 hPa 0,0 l/m 0,2 km/h SW 234 0 min 0,000 mm 0,0 UV-I 0 W/m 14,7 C 17,1 C 1,9 km/h 100,00 %
19.05.2022 23:31 17,1 C 85 % 1021,3 hPa 0,0 l/m 0,2 km/h SW 234 0 min 0,000 mm 0,0 UV-I 0 W/m 14,6 C 17,1 C 1,9 km/h 95,83 %
19.05.2022 23:30 17,1 C 85 % 1021,3 hPa 0,0 l/m 0,1 km/h SW 234 0 min 0,000 mm 0,0 UV-I 0 W/m 14,6 C 17,1 C 1,9 km/h 95,65 %
19.05.2022 23:29 17,1 C 85 % 1021,3 hPa 0,0 l/m 1,1 km/h SW 234 0 min 0,000 mm 0,0 UV-I 0 W/m 14,6 C 17,1 C 5,7 km/h 100,00 %
19.05.2022 23:28 17,1 C 85 % 1021,3 hPa 0,0 l/m 0,1 km/h SW 234 0 min 0,000 mm 0,0 UV-I 0 W/m 14,6 C 17,1 C 1,9 km/h 92,31 %
19.05.2022 23:27 17,1 C 85 % 1021,3 hPa 0,0 l/m 0,2 km/h SW 234 0 min 0,000 mm 0,0 UV-I 0 W/m 14,6 C 17,1 C 1,9 km/h 100,00 %
19.05.2022 23:26 17,1 C 85 % 1021,3 hPa 0,0 l/m 3,1 km/h SW 234 0 min 0,000 mm 0,0 UV-I 0 W/m 14,6 C 17,1 C 7,7 km/h 97,37 %
19.05.2022 23:25 17,1 C 85 % 1021,2 hPa 0,0 l/m 1,9 km/h SW 234 0 min 0,000 mm 0,0 UV-I 0 W/m 14,6 C 17,1 C 5,7 km/h 98,66 %
19.05.2022 23:24 17,2 C 85 % 1021,2 hPa 0,0 l/m 3,1 km/h SW 234 0 min 0,000 mm 0,0 UV-I 0 W/m 14,7 C 17,2 C 7,7 km/h 95,65 %
19.05.2022 23:23 17,2 C 85 % 1021,2 hPa 0,0 l/m 5,6 km/h SW 234 0 min 0,000 mm 0,0 UV-I 0 W/m 14,7 C 17,2 C 9,6 km/h 100,00 %
19.05.2022 23:22 17,2 C 85 % 1021,2 hPa 0,0 l/m 4,3 km/h W-SW 238 0 min 0,000 mm 0,0 UV-I 0 W/m 14,7 C 17,2 C 9,6 km/h 91,67 %
19.05.2022 23:21 17,3 C 85 % 1021,2 hPa 0,0 l/m 1,8 km/h SW 230 0 min 0,000 mm 0,0 UV-I 0 W/m 14,8 C 17,3 C 3,8 km/h 95,83 %
19.05.2022 23:20 17,3 C 85 % 1021,2 hPa 0,0 l/m 2,0 km/h SW 230 0 min 0,000 mm 0,0 UV-I 0 W/m 14,8 C 17,3 C 3,8 km/h 100,00 %
19.05.2022 23:19 17,3 C 84 % 1021,1 hPa 0,0 l/m 3,4 km/h SW 230 0 min 0,000 mm 0,0 UV-I 0 W/m 14,6 C 17,3 C 5,7 km/h 96,30 %
19.05.2022 23:18 17,3 C 84 % 1021,1 hPa 0,0 l/m 3,9 km/h SW 230 0 min 0,000 mm 0,0 UV-I 0 W/m 14,6 C 17,3 C 7,7 km/h 100,00 %
19.05.2022 23:17 17,4 C 84 % 1021,2 hPa 0,0 l/m 1,8 km/h SW 230 0 min 0,000 mm 0,0 UV-I 0 W/m 14,7 C 17,4 C 5,7 km/h 95,83 %
19.05.2022 23:16 17,4 C 84 % 1021,2 hPa 0,0 l/m 1,1 km/h SW 230 0 min 0,000 mm 0,0 UV-I 0 W/m 14,7 C 17,4 C 3,8 km/h 92,31 %
19.05.2022 23:15 17,4 C 84 % 1021,2 hPa 0,0 l/m 2,7 km/h SW 230 0 min 0,000 mm 0,0 UV-I 0 W/m 14,7 C 17,4 C 3,8 km/h 95,65 %
19.05.2022 23:14 17,4 C 84 % 1021,1 hPa 0,0 l/m 4,3 km/h SW 230 0 min 0,000 mm 0,0 UV-I 0 W/m 14,7 C 17,4 C 7,7 km/h 100,00 %
19.05.2022 23:13 17,5 C 84 % 1021,1 hPa 0,0 l/m 4,5 km/h SW 230 0 min 0,000 mm 0,0 UV-I 0 W/m 14,8 C 17,5 C 7,7 km/h 96,55 %
19.05.2022 23:12 17,5 C 84 % 1021,1 hPa 0,0 l/m 3,6 km/h SW 230 0 min 0,000 mm 0,0 UV-I 0 W/m 14,8 C 17,5 C 5,7 km/h 95,65 %
19.05.2022 23:11 17,6 C 84 % 1021,1 hPa 0,0 l/m 3,7 km/h SW 230 0 min 0,000 mm 0,0 UV-I 0 W/m 14,9 C 17,6 C 5,7 km/h 100,00 %
19.05.2022 23:10 17,6 C 84 % 1021,0 hPa 0,0 l/m 4,0 km/h SW 232 0 min 0,000 mm 0,0 UV-I 0 W/m 14,9 C 17,6 C 7,7 km/h 96,15 %
19.05.2022 23:09 17,6 C 84 % 1021,0 hPa 0,0 l/m 4,0 km/h SW 233 0 min 0,000 mm 0,0 UV-I 0 W/m 14,9 C 17,6 C 7,7 km/h 100,00 %
19.05.2022 23:08 17,6 C 84 % 1021,0 hPa 0,0 l/m 4,4 km/h SW 233 0 min 0,000 mm 0,0 UV-I 0 W/m 14,9 C 17,6 C 5,7 km/h 96,30 %
19.05.2022 23:07 17,7 C 84 % 1021,0 hPa 0,0 l/m 3,2 km/h SW 233 0 min 0,000 mm 0,0 UV-I 0 W/m 15,0 C 17,7 C 7,7 km/h 96,15 %
19.05.2022 23:06 17,7 C 84 % 1020,9 hPa 0,0 l/m 0,5 km/h W-SW 257 0 min 0,000 mm 0,0 UV-I 0 W/m 15,0 C 17,7 C 1,9 km/h 100,00 %
19.05.2022 23:05 17,7 C 84 % 1020,9 hPa 0,0 l/m 1,3 km/h W-SW 257 0 min 0,000 mm 0,0 UV-I 0 W/m 15,0 C 17,7 C 3,8 km/h 95,65 %
19.05.2022 23:04 17,7 C 84 % 1020,9 hPa 0,0 l/m 1,0 km/h W-SW 257 0 min 0,000 mm 0,0 UV-I 0 W/m 15,0 C 17,7 C 1,9 km/h 100,00 %
19.05.2022 23:03 17,7 C 84 % 1020,9 hPa 0,0 l/m 3,8 km/h W-SW 257 0 min 0,000 mm 0,0 UV-I 0 W/m 15,0 C 17,7 C 5,7 km/h 95,65 %
19.05.2022 23:02 17,8 C 84 % 1020,8 hPa 0,0 l/m 4,0 km/h W-SW 239 0 min 0,000 mm 0,0 UV-I 0 W/m 15,1 C 17,8 C 5,7 km/h 100,00 %
19.05.2022 23:01 17,8 C 84 % 1020,9 hPa 0,0 l/m 5,5 km/h W-SW 247 0 min 0,025 mm 0,0 UV-I 0 W/m 15,1 C 17,8 C 9,6 km/h 90,91 %
19.05.2022 23:00 17,8 C 84 % 1020,9 hPa 0,0 l/m 1,8 km/h SW 225 0 min 0,000 mm 0,0 UV-I 0 W/m 15,1 C 17,8 C 5,7 km/h 100,00 %
19.05.2022 22:59 17,9 C 84 % 1020,9 hPa 0,0 l/m 2,8 km/h SW 225 0 min 0,000 mm 0,0 UV-I 0 W/m 15,2 C 17,9 C 5,7 km/h 95,65 %
19.05.2022 22:58 17,9 C 84 % 1020,9 hPa 0,0 l/m 1,4 km/h SW 225 0 min 0,000 mm 0,0 UV-I 0 W/m 15,2 C 17,9 C 3,8 km/h 100,00 %
19.05.2022 22:57 17,9 C 84 % 1020,8 hPa 0,0 l/m 1,4 km/h SW 225 0 min 0,000 mm 0,0 UV-I 0 W/m 15,2 C 17,9 C 3,8 km/h 95,65 %
19.05.2022 22:56 17,9 C 84 % 1020,8 hPa 0,0 l/m 2,5 km/h SW 225 0 min 0,000 mm 0,0 UV-I 0 W/m 15,2 C 17,9 C 5,7 km/h 96,30 %
19.05.2022 22:55 18,0 C 84 % 1020,8 hPa 0,0 l/m 1,0 km/h SW 225 0 min 0,000 mm 0,0 UV-I 0 W/m 15,3 C 18,0 C 3,8 km/h 100,00 %
19.05.2022 22:54 18,0 C 84 % 1020,8 hPa 0,0 l/m 2,4 km/h SW 225 0 min 0,000 mm 0,0 UV-I 0 W/m 15,3 C 18,0 C 5,7 km/h 96,15 %
19.05.2022 22:53 18,0 C 84 % 1020,8 hPa 0,0 l/m 0,2 km/h SW 225 0 min 0,000 mm 0,0 UV-I 0 W/m 15,3 C 18,0 C 1,9 km/h 100,00 %
19.05.2022 22:52 18,1 C 84 % 1020,8 hPa 0,0 l/m 0,2 km/h SW 225 0 min 0,000 mm 0,0 UV-I 0 W/m 15,4 C 18,1 C 1,9 km/h 95,83 %
19.05.2022 22:51 18,1 C 84 % 1020,8 hPa 0,0 l/m 1,0 km/h SW 225 0 min 0,000 mm 0,0 UV-I 0 W/m 15,4 C 18,1 C 3,8 km/h 100,00 %
19.05.2022 22:50 18,1 C 84 % 1020,8 hPa 0,0 l/m 1,8 km/h SW 225 0 min 0,000 mm 0,0 UV-I 0 W/m 15,4 C 18,1 C 5,7 km/h 91,30 %
19.05.2022 22:49 18,1 C 84 % 1020,8 hPa 0,0 l/m 0,3 km/h W-SW 237 0 min 0,000 mm 0,0 UV-I 0 W/m 15,4 C 18,1 C 1,9 km/h 96,00 %
19.05.2022 22:48 18,2 C 84 % 1020,7 hPa 0,0 l/m 2,0 km/h W-SW 237 0 min 0,000 mm 0,0 UV-I 0 W/m 15,4 C 18,2 C 7,7 km/h 100,00 %
19.05.2022 22:47 18,2 C 84 % 1020,7 hPa 0,0 l/m 0,3 km/h W-SW 237 0 min 0,000 mm 0,0 UV-I 0 W/m 15,4 C 18,2 C 1,9 km/h 95,83 %
19.05.2022 22:46 18,1 C 84 % 1020,7 hPa 0,0 l/m 0,4 km/h W-SW 237 0 min 0,000 mm 0,0 UV-I 0 W/m 15,4 C 18,1 C 1,9 km/h 93,33 %
19.05.2022 22:45 18,2 C 84 % 1020,7 hPa 0,0 l/m 1,7 km/h W-SW 237 0 min 0,000 mm 0,0 UV-I 0 W/m 15,4 C 18,2 C 5,7 km/h 95,83 %
19.05.2022 22:44 18,2 C 84 % 1020,7 hPa 0,0 l/m 2,4 km/h SW 236 0 min 0,000 mm 0,0 UV-I 0 W/m 15,4 C 18,2 C 5,7 km/h 95,65 %
19.05.2022 22:43 18,2 C 84 % 1020,7 hPa 0,0 l/m 0,9 km/h SW 224 0 min 0,000 mm 0,0 UV-I 0 W/m 15,4 C 18,2 C 3,8 km/h 96,00 %
19.05.2022 22:42 18,2 C 84 % 1020,7 hPa 0,0 l/m 3,1 km/h SW 224 0 min 0,000 mm 0,0 UV-I 0 W/m 15,4 C 18,2 C 7,7 km/h 100,00 %
19.05.2022 22:41 18,3 C 84 % 1020,7 hPa 0,0 l/m 1,0 km/h SW 236 0 min 0,000 mm 0,0 UV-I 0 W/m 15,5 C 18,3 C 5,7 km/h 96,30 %
19.05.2022 22:40 18,3 C 83 % 1020,7 hPa 0,0 l/m 1,2 km/h SW 236 0 min 0,000 mm 0,0 UV-I 0 W/m 15,4 C 18,3 C 3,8 km/h 96,15 %
19.05.2022 22:39 18,3 C 83 % 1020,6 hPa 0,0 l/m 2,6 km/h SW 236 0 min 0,000 mm 0,0 UV-I 0 W/m 15,4 C 18,3 C 7,7 km/h 100,00 %
19.05.2022 22:38 18,3 C 84 % 1020,6 hPa 0,0 l/m 1,6 km/h SW 228 0 min 0,000 mm 0,0 UV-I 0 W/m 15,5 C 18,3 C 3,8 km/h 95,83 %
19.05.2022 22:37 18,4 C 84 % 1020,6 hPa 0,0 l/m 0,5 km/h SW 228 0 min 0,000 mm 0,0 UV-I 0 W/m 15,6 C 18,4 C 3,8 km/h 100,00 %
19.05.2022 22:36 18,4 C 84 % 1020,6 hPa 0,0 l/m 2,6 km/h SW 227 0 min 0,000 mm 0,0 UV-I 0 W/m 15,6 C 18,4 C 5,7 km/h 95,83 %
19.05.2022 22:35 18,4 C 84 % 1020,6 hPa 0,0 l/m 3,7 km/h SW 226 0 min 0,000 mm 0,0 UV-I 0 W/m 15,6 C 18,4 C 5,7 km/h 100,00 %
19.05.2022 22:34 18,5 C 84 % 1020,6 hPa 0,0 l/m 4,4 km/h W 268 0 min 0,000 mm 0,0 UV-I 0 W/m 15,7 C 18,5 C 9,6 km/h 96,30 %
19.05.2022 22:33 18,5 C 84 % 1020,6 hPa 0,0 l/m 2,0 km/h S-SW 213 0 min 0,000 mm 0,0 UV-I 0 W/m 15,7 C 18,5 C 7,7 km/h 95,83 %
19.05.2022 22:32 18,6 C 84 % 1020,6 hPa 0,0 l/m 1,6 km/h SW 214 0 min 0,000 mm 0,0 UV-I 0 W/m 15,8 C 18,6 C 7,7 km/h 100,00 %
19.05.2022 22:31 18,6 C 84 % 1020,5 hPa 0,0 l/m 7,1 km/h SW 214 0 min 0,000 mm 0,0 UV-I 0 W/m 15,8 C 18,3 C 11,5 km/h 92,59 %
19.05.2022 22:30 18,6 C 84 % 1020,5 hPa 0,0 l/m 2,9 km/h W-SW 244 0 min 0,000 mm 0,0 UV-I 0 W/m 15,8 C 18,6 C 7,7 km/h 100,00 %
19.05.2022 22:29 18,6 C 84 % 1020,5 hPa 0,0 l/m 1,3 km/h W-SW 245 0 min 0,000 mm 0,0 UV-I 0 W/m 15,8 C 18,6 C 5,7 km/h 95,65 %
19.05.2022 22:28 18,7 C 84 % 1020,5 hPa 0,0 l/m 0,7 km/h W-SW 246 0 min 0,000 mm 0,0 UV-I 0 W/m 15,9 C 18,7 C 1,9 km/h 100,00 %
19.05.2022 22:27 18,7 C 84 % 1020,4 hPa 0,0 l/m 0,0 km/h W-SW 246 0 min 0,000 mm 0,0 UV-I 0 W/m 15,9 C 18,7 C 0,0 km/h 95,65 %
19.05.2022 22:26 18,7 C 84 % 1020,5 hPa 0,0 l/m 0,2 km/h W-SW 246 0 min 0,000 mm 0,0 UV-I 0 W/m 15,9 C 18,7 C 1,9 km/h 100,00 %
19.05.2022 22:25 18,7 C 84 % 1020,4 hPa 0,0 l/m 0,2 km/h W-SW 246 0 min 0,000 mm 0,0 UV-I 0 W/m 15,9 C 18,7 C 1,9 km/h 95,65 %
19.05.2022 22:24 18,7 C 84 % 1020,4 hPa 0,0 l/m 2,1 km/h W-SW 246 0 min 0,000 mm 0,0 UV-I 0 W/m 15,9 C 18,7 C 5,7 km/h 100,00 %
19.05.2022 22:23 18,8 C 84 % 1020,4 hPa 0,0 l/m 0,4 km/h W-NW 288 0 min 0,000 mm 0,0 UV-I 0 W/m 16,0 C 18,8 C 1,9 km/h 96,15 %
19.05.2022 22:22 18,8 C 84 % 1020,5 hPa 0,0 l/m 0,0 km/h W-NW 289 0 min 0,000 mm 0,0 UV-I 0 W/m 16,0 C 18,8 C 0,0 km/h 93,33 %
19.05.2022 22:21 18,8 C 84 % 1020,4 hPa 0,0 l/m 0,0 km/h W-NW 289 0 min 0,000 mm 0,0 UV-I 0 W/m 16,0 C 18,8 C 0,0 km/h 91,30 %
19.05.2022 22:20 18,8 C 84 % 1020,4 hPa 0,0 l/m 0,0 km/h W-NW 289 0 min 0,000 mm 0,0 UV-I 0 W/m 16,0 C 18,8 C 0,0 km/h 95,83 %
19.05.2022 22:19 18,8 C 84 % 1020,4 hPa 0,0 l/m 0,0 km/h W-NW 289 0 min 0,000 mm 0,0 UV-I 0 W/m 16,0 C 18,8 C 0,0 km/h 100,00 %
19.05.2022 22:18 18,9 C 84 % 1020,4 hPa 0,0 l/m 0,1 km/h W-NW 289 0 min 0,000 mm 0,0 UV-I 0 W/m 16,1 C 18,9 C 1,9 km/h 95,83 %
19.05.2022 22:17 18,9 C 83 % 1020,4 hPa 0,0 l/m 0,2 km/h W-NW 289 0 min 0,000 mm 0,0 UV-I 0 W/m 15,9 C 18,9 C 1,9 km/h 100,00 %
19.05.2022 22:16 18,9 C 83 % 1020,4 hPa 0,0 l/m 0,2 km/h W-NW 289 0 min 0,000 mm 0,0 UV-I 0 W/m 15,9 C 18,9 C 1,9 km/h 96,30 %
19.05.2022 22:15 18,9 C 83 % 1020,4 hPa 0,0 l/m 0,7 km/h W-NW 289 0 min 0,000 mm 0,0 UV-I 0 W/m 15,9 C 18,9 C 3,8 km/h 100,00 %
19.05.2022 22:14 18,9 C 84 % 1020,4 hPa 0,0 l/m 2,1 km/h W-NW 298 0 min 0,000 mm 0,0 UV-I 0 W/m 16,1 C 18,9 C 3,8 km/h 95,65 %
19.05.2022 22:13 19,0 C 83 % 1020,5 hPa 0,0 l/m 0,8 km/h NW 319 0 min 0,000 mm 0,0 UV-I 0 W/m 16,0 C 19,0 C 1,9 km/h 96,00 %
19.05.2022 22:12 19,1 C 83 % 1020,4 hPa 0,0 l/m 1,3 km/h NW 319 0 min 0,000 mm 0,0 UV-I 0 W/m 16,1 C 19,1 C 5,7 km/h 100,00 %
19.05.2022 22:11 19,1 C 83 % 1020,5 hPa 0,0 l/m 0,0 km/h W-SW 240 0 min 0,000 mm 0,0 UV-I 0 W/m 16,1 C 19,1 C 0,0 km/h 92,59 %
19.05.2022 22:10 19,1 C 83 % 1020,4 hPa 0,0 l/m 0,1 km/h W-SW 240 0 min 0,000 mm 0,0 UV-I 0 W/m 16,1 C 19,1 C 1,9 km/h 100,00 %
19.05.2022 22:09 19,1 C 83 % 1020,5 hPa 0,0 l/m 0,8 km/h W-SW 240 0 min 0,000 mm 0,0 UV-I 0 W/m 16,1 C 19,1 C 1,9 km/h 91,67 %
19.05.2022 22:08 19,1 C 83 % 1020,4 hPa 0,0 l/m 0,5 km/h W-SW 240 0 min 0,000 mm 0,0 UV-I 0 W/m 16,1 C 19,1 C 1,9 km/h 100,00 %
19.05.2022 22:07 19,1 C 83 % 1020,5 hPa 0,0 l/m 1,7 km/h W-SW 240 0 min 0,000 mm 0,0 UV-I 0 W/m 16,1 C 19,1 C 5,7 km/h 100,00 %
19.05.2022 22:06 19,2 C 83 % 1020,4 hPa 0,0 l/m 0,8 km/h W-SW 240 0 min 0,000 mm 0,0 UV-I 0 W/m 16,2 C 19,2 C 5,7 km/h 100,00 %
19.05.2022 22:05 19,2 C 83 % 1020,4 hPa 0,0 l/m 4,5 km/h W-SW 240 0 min 0,000 mm 0,0 UV-I 0 W/m 16,2 C 19,2 C 7,7 km/h 100,00 %
19.05.2022 22:04 19,3 C 83 % 1020,4 hPa 0,0 l/m 1,7 km/h W-NW 295 0 min 0,000 mm 0,0 UV-I 0 W/m 16,3 C 19,3 C 5,7 km/h 100,00 %
19.05.2022 22:03 19,3 C 83 % 1020,4 hPa 0,0 l/m 1,2 km/h SW 220 0 min 0,000 mm 0,0 UV-I 0 W/m 16,3 C 19,3 C 3,8 km/h 100,00 %
19.05.2022 22:02 19,3 C 83 % 1020,4 hPa 0,0 l/m 0,4 km/h SW 219 0 min 0,000 mm 0,0 UV-I 0 W/m 16,3 C 19,3 C 1,9 km/h 95,65 %
19.05.2022 22:01 19,3 C 83 % 1020,4 hPa 0,0 l/m 0,6 km/h SW 219 0 min 0,000 mm 0,0 UV-I 0 W/m 16,3 C 19,3 C 3,8 km/h 100,00 %
19.05.2022 22:00 19,3 C 83 % 1020,4 hPa 0,0 l/m 0,3 km/h SW 217 0 min 0,000 mm 0,0 UV-I 0 W/m 16,3 C 19,3 C 1,9 km/h 100,00 %
_ Min-Zeit 05:51 10:47 18:26 - 22:11 - - - - - - 05:51 21:37 22:11 08:41
Minimum _ 11,9 C 59 % 1012,1 hPa - 0,0 km/h - - - - - - 10,8 C 9,3 C 0,0 km/h 50,00 %
_ Max-Zeit 13:54 06:55 01:41 15:12 18:40 - - 08:17 14:00 13:44 12:22 15:54 13:52 18:40 22:00
Maximum _ 25,5 C 97 % 1021,9 hPa 0,8 l/m 30,4 km/h
S-SW
- - 1 min 0,533 mm 4,7 UV-I 967 W/m 19,9 C 25,4 C 47,8 km/h
S-SW
100,00 %
Durchschnitt _ 17,7 C 83 % 1018,3 hPa #8,4 l/m 5,2 km/h SW - #5:58 h #2,921 mm 2,0 UV-I 295 W/m 14,7 C 17,1 C 9,1 km/h 97,63 %